ECMWFFLT2_700_spd_045.txt.gz
Wind_Speed
35 34 35 36 39 42 42 43 45 48 49 49 50 52 52 51 49 49 48 47 48 48 43 33 27 28 34 37 38 42 42 39 40 38 36 36 34 34 33 32 31 32 33 34 36 35 35 34 34 34 34 34
36 35 34 34 36 39 40 40 42 45 47 47 47 48 49 49 47 45 45 45 45 44 44 42 35 31 28 29 35 41 43 41 40 39 38 38 37 37 36 34 33 33 34 34 35 37 36 34 34 35 35 35
37 37 36 36 36 38 40 40 40 41 45 47 46 45 45 46 46 43 42 42 43 42 43 48 46 41 33 28 30 35 39 41 40 39 38 38 39 40 40 38 36 35 35 34 34 35 35 35 35 35 35 36
38 38 38 38 37 38 40 41 41 41 43 46 47 46 44 43 43 42 40 39 41 40 42 48 49 46 42 34 29 29 33 38 41 41 39 38 38 40 42 42 39 38 37 36 35 34 35 37 38 36 36 37
38 38 38 39 39 39 39 41 43 43 43 45 47 48 45 43 42 41 40 38 38 38 38 46 48 45 45 42 36 30 29 33 39 42 41 40 40 40 42 43 42 41 40 39 38 37 36 39 40 38 37 37
37 38 38 39 39 39 40 41 43 44 44 45 46 48 48 46 42 40 40 39 38 37 36 41 47 46 44 44 42 37 32 29 32 37 39 41 41 41 41 42 43 44 44 42 41 40 40 41 41 39 38 38
35 37 38 39 39 40 40 41 43 44 45 45 46 48 49 49 47 43 40 39 38 38 36 37 43 46 45 44 45 44 41 36 31 30 34 39 40 39 40 41 43 46 47 46 43 43 43 43 42 42 41 39
33 34 36 37 38 40 40 41 42 44 45 46 46 47 49 50 50 48 44 41 39 39 37 35 39 44 46 45 45 46 47 46 42 35 32 37 38 36 38 40 41 43 46 47 45 45 46 45 44 45 45 43
34 34 35 35 36 38 39 41 42 43 45 46 46 47 48 49 50 50 48 45 41 39 39 37 37 41 44 46 46 47 48 48 48 45 38 36 36 34 36 38 38 39 42 45 45 46 47 48 46 46 46 45
35 36 36 36 35 35 36 38 41 43 45 46 47 47 48 48 49 50 49 48 45 42 40 39 37 38 42 45 46 47 48 48 47 48 46 42 39 37 35 35 33 34 37 41 44 45 47 49 48 47 48 47
35 36 36 37 37 36 35 36 38 41 44 46 47 48 48 49 49 49 49 48 47 45 43 42 39 38 40 43 46 47 48 48 48 48 48 48 46 44 42 39 35 32 32 36 41 43 44 48 50 50 49 48
34 34 35 36 37 37 36 36 36 38 42 45 47 49 49 49 50 50 50 48 47 45 44 43 43 41 40 41 44 46 48 49 49 50 49 49 51 52 50 49 46 40 34 33 35 38 40 44 49 51 51 50
33 33 33 34 35 36 37 37 37 37 39 42 46 49 51 51 51 51 50 49 48 46 44 44 44 44 43 42 42 44 47 48 49 50 51 51 51 53 54 54 55 52 45 39 35 34 35 39 44 48 51 52
34 35 36 36 37 37 37 38 38 38 38 39 42 46 50 52 52 52 52 51 50 48 46 44 44 45 45 44 43 42 44 47 48 50 51 52 51 52 54 54 56 57 55 49 44 39 35 35 39 44 48 49
37 39 40 40 40 40 40 40 39 39 38 38 39 41 45 49 52 52 52 52 52 50 48 46 45 45 45 46 45 44 44 45 46 47 49 52 53 53 54 54 54 56 56 54 52 49 44 38 36 40 46 47
40 41 42 42 42 41 41 41 41 41 39 37 37 39 40 43 46 50 52 52 53 52 50 49 47 46 45 46 46 46 46 45 45 46 47 49 52 53 54 54 53 53 53 52 53 53 52 48 42 39 41 44
41 42 42 42 41 40 39 40 41 42 42 40 37 37 39 39 41 44 47 50 51 52 52 51 50 48 47 46 46 47 47 47 48 47 47 47 49 52 54 55 54 53 52 51 51 52 53 54 51 46 41 39
40 41 41 40 40 39 38 38 39 40 42 42 40 37 37 38 39 40 41 44 47 49 51 51 51 51 50 48 47 47 48 49 49 50 50 49 48 49 51 54 55 55 53 51 50 50 52 54 55 53 50 44
39 40 40 39 38 38 37 37 37 39 40 41 41 39 37 37 38 39 39 39 41 44 47 50 51 52 51 51 49 48 48 49 50 51 52 52 51 49 50 52 54 56 55 53 51 51 52 54 55 56 55 52
38 38 39 38 37 37 37 37 37 37 39 41 41 41 39 37 37 38 39 38 36 37 41 45 49 51 52 52 51 50 49 48 49 51 52 53 54 53 51 51 52 55 57 57 55 53 53 54 55 57 57 55
37 38 38 37 36 36 36 36 36 36 37 39 39 40 40 38 36 36 37 38 36 33 34 38 43 48 51 52 52 52 51 50 50 50 51 52 54 56 55 53 53 53 56 58 58 56 55 55 55 55 57 58
36 37 37 36 35 34 34 35 36 35 34 36 37 37 39 38 35 34 34 36 36 33 31 32 36 41 46 50 52 52 52 52 51 51 51 51 52 55 57 57 56 54 54 56 58 57 56 55 56 55 55 57
35 36 37 35 33 32 33 34 35 34 32 33 34 35 36 36 34 33 32 33 34 34 30 29 31 34 39 44 48 50 51 52 53 53 52 52 52 52 55 57 58 58 56 55 56 57 56 55 55 55 55 55
35 36 36 35 32 31 30 31 32 32 31 31 31 32 33 33 32 32 31 30 31 33 31 28 28 30 32 36 41 45 48 50 52 54 54 53 53 52 53 55 58 59 59 58 57 56 56 55 54 53 53 52
35 35 36 35 32 30 29 29 29 29 29 29 29 29 30 30 30 30 29 28 28 31 31 30 29 29 29 31 34 39 43 46 49 52 54 55 54 54 53 53 55 58 60 60 59 59 57 55 54 53 52 51
34 34 35 35 33 30 29 28 28 27 26 26 27 27 27 27 27 26 26 26 27 28 30 30 30 30 31 32 32 35 38 41 45 47 51 53 55 56 55 54 54 55 58 60 60 60 59 57 54 53 53 52
33 33 34 34 33 31 29 28 28 27 26 24 24 25 25 24 24 23 21 22 24 27 29 30 31 32 33 34 35 35 36 38 40 42 45 49 52 54 56 56 55 55 56 58 60 60 61 60 57 55 54 54
32 32 32 33 32 31 30 28 27 27 25 24 22 22 23 22 21 20 18 17 19 22 25 28 30 33 34 36 37 38 38 39 39 40 42 44 47 50 53 56 56 56 56 57 58 59 60 61 60 57 56 56
31 31 31 31 31 30 29 28 28 26 25 24 22 20 20 20 19 18 17 15 15 16 18 22 25 28 30 32 34 36 38 39 40 41 42 42 44 46 49 53 55 56 56 57 58 60 59 59 61 61 58 57
31 31 30 29 29 29 28 27 27 26 24 23 21 20 18 18 18 17 16 15 14 15 16 18 20 23 25 26 28 30 32 34 36 38 40 42 43 44 45 48 51 54 56 57 58 60 60 60 61 62 60 58
30 30 29 28 28 27 26 26 26 24 22 21 20 19 18 17 16 15 15 14 14 14 15 16 18 19 21 23 24 26 27 29 31 33 35 38 41 43 45 46 47 50 52 55 57 59 61 62 61 61 61 60

ECMWFFLT2_700_spd_051.txt.gz
Wind_Speed
32 33 33 33 33 33 33 34 36 37 38 38 37 36 36 35 36 36 35 35 37 39 43 46 51 63 72 76 78 78 76 73 67 62 57 52 44 36 31 24 26 42 55 55 52 53 52 53 53 52 49 51
32 32 33 33 33 33 33 34 36 37 38 38 38 37 37 36 36 36 37 36 37 38 41 44 47 54 64 71 76 77 78 78 76 72 69 62 54 45 37 31 23 26 44 56 55 54 54 52 53 55 51 48
32 33 33 33 33 33 33 34 36 37 38 39 39 39 38 37 37 37 38 38 37 39 41 43 45 49 56 64 70 73 75 78 78 77 75 70 64 54 45 38 32 23 26 45 56 57 57 54 51 54 55 49
34 34 34 34 34 34 34 34 35 36 37 39 40 40 40 39 39 39 40 40 39 39 41 42 45 46 50 57 64 68 70 73 77 78 77 74 70 63 54 45 40 35 25 29 47 57 59 57 51 50 55 51
35 35 35 36 35 35 35 35 36 36 37 38 39 39 40 40 40 40 41 42 42 41 41 43 45 46 48 52 57 63 65 67 73 78 78 75 74 70 63 54 48 44 37 25 32 50 58 59 52 47 51 53
35 35 36 36 36 35 36 36 37 37 37 38 39 39 40 40 40 41 42 43 44 44 44 44 46 47 48 50 53 57 59 61 66 73 76 75 73 74 70 64 57 51 46 36 25 35 53 59 53 45 47 52
35 36 36 37 37 36 37 37 38 38 38 39 39 40 40 41 41 42 42 43 44 45 46 46 47 48 49 50 52 55 54 55 59 64 69 72 71 72 73 70 65 59 52 45 34 26 39 54 56 47 43 48
36 36 37 37 37 37 37 38 38 39 39 39 40 40 41 41 42 43 44 44 45 46 47 47 47 48 49 51 52 55 54 51 52 57 61 65 67 68 70 71 70 66 59 52 44 32 27 41 53 51 45 45
36 36 37 37 37 37 37 38 38 38 38 38 38 39 39 40 41 42 44 45 46 47 47 47 47 47 48 50 52 55 56 51 49 51 54 57 60 62 65 68 70 69 65 59 51 42 30 30 41 49 48 46
36 37 37 36 37 37 37 38 38 37 37 37 37 37 37 38 38 39 41 43 44 46 47 48 47 47 47 48 51 54 56 54 48 48 50 52 54 55 59 62 65 68 68 66 59 51 40 31 31 39 44 45
38 38 38 37 37 38 38 38 38 38 37 37 37 37 37 37 37 37 38 39 41 42 44 45 46 46 46 47 48 51 55 55 50 46 47 49 50 50 52 56 60 63 66 68 65 58 50 39 32 32 36 41
38 39 38 38 38 38 39 39 39 38 38 38 38 38 38 37 37 37 37 36 37 39 40 42 44 45 45 45 45 47 51 53 50 46 44 45 48 48 47 50 55 58 61 66 67 63 58 49 38 32 33 37
38 39 39 39 39 39 39 39 39 39 38 38 38 38 38 38 38 37 36 35 35 36 38 40 42 44 44 44 43 44 47 50 49 45 43 42 44 47 45 46 50 54 56 61 66 66 63 57 48 38 33 34
38 39 40 40 40 40 40 40 40 40 39 38 38 37 37 38 38 37 36 34 34 35 37 39 41 43 44 44 43 42 43 46 46 44 42 40 40 43 45 44 46 49 52 56 61 64 64 61 57 47 38 34
39 40 40 40 40 40 40 40 41 40 39 38 37 37 37 37 37 37 36 35 34 34 36 38 39 41 42 43 43 41 40 42 44 42 40 39 37 40 43 43 44 47 49 52 56 60 62 62 61 56 47 38
40 40 41 41 41 40 40 40 41 41 40 38 37 37 36 36 36 36 36 36 35 35 36 37 38 39 40 41 42 42 40 40 41 40 38 38 36 37 41 42 43 45 47 49 52 56 59 60 62 61 56 47
40 41 41 41 41 41 40 40 41 41 40 39 38 37 36 36 36 36 36 36 36 36 36 36 37 37 39 40 40 41 41 40 40 39 36 36 35 35 38 42 42 44 45 47 50 53 56 58 60 62 61 56
40 41 41 41 41 41 41 41 41 41 40 39 38 37 36 36 36 36 36 36 36 36 36 36 36 36 37 39 39 40 41 41 40 39 36 34 34 34 36 41 42 43 44 45 47 51 54 55 58 60 61 60
40 41 42 42 42 42 41 41 41 41 41 40 39 37 36 36 36 36 36 36 36 36 36 35 35 36 36 37 38 39 40 41 41 39 36 34 33 33 33 38 42 43 44 45 46 48 51 53 55 58 59 59
41 41 42 42 43 42 41 41 41 41 41 40 39 38 36 36 36 36 36 36 36 36 36 35 35 35 35 36 37 38 39 40 41 39 36 34 33 32 32 35 41 43 43 44 45 46 49 51 53 56 57 56
41 41 42 43 43 43 42 42 41 41 41 40 39 38 37 36 36 36 36 36 35 35 35 35 34 34 34 35 36 37 38 39 40 39 36 34 32 32 31 31 37 42 43 43 44 45 46 49 51 54 55 54
41 42 43 43 43 43 43 43 42 41 41 40 39 38 37 37 37 37 36 36 35 34 34 34 34 33 33 34 35 36 37 38 38 38 37 34 33 32 31 30 32 39 43 44 43 45 45 47 49 51 52 52
42 43 43 43 43 43 44 43 42 42 41 40 39 38 38 37 36 36 36 36 35 33 33 33 33 32 32 33 34 35 35 36 36 37 37 35 34 32 31 29 30 34 41 43 43 44 45 46 47 48 49 49
42 43 43 43 43 43 43 43 42 42 41 40 39 38 37 37 36 36 36 36 34 33 31 31 31 31 31 32 33 33 33 34 34 35 36 36 35 32 29 28 28 30 35 40 42 44 45 46 46 46 46 47
41 42 43 43 43 43 42 42 42 41 40 40 39 37 37 37 36 35 35 35 34 32 30 30 30 30 30 30 31 31 31 31 31 32 34 35 35 33 30 27 26 27 30 34 37 41 45 45 47 47 46 46
40 41 42 43 43 43 42 41 41 41 40 40 39 37 37 37 36 35 34 35 33 31 29 28 28 29 29 29 29 30 29 29 29 29 31 33 33 33 32 30 28 27 28 30 33 35 41 45 46 47 47 47
40 40 41 42 43 43 42 41 41 41 40 39 38 37 36 36 36 34 34 34 33 31 28 27 27 27 27 27 27 27 27 27 27 27 28 30 31 31 32 33 31 30 29 30 32 32 35 41 45 46 46 47
39 40 41 42 42 43 42 41 40 40 40 39 38 36 35 36 35 34 33 34 33 30 27 26 25 26 26 26 25 25 25 25 25 25 26 27 28 29 30 32 32 31 29 29 32 33 32 35 40 45 45 44
39 39 40 41 42 43 43 41 40 40 40 39 38 36 35 35 35 34 33 32 32 30 27 25 24 24 24 24 24 23 23 23 23 23 24 24 25 26 26 27 28 28 28 26 28 31 33 32 35 41 45 44
39 39 40 41 42 43 43 42 40 40 40 39 38 37 35 35 35 34 33 32 32 30 27 25 23 23 23 23 23 22 21 21 21 22 23 24 25 25 25 25 25 25 25 24 24 26 30 32 33 36 41 44
39 39 39 41 42 42 43 42 41 40 39 39 38 37 35 35 35 35 33 32 31 30 27 25 23 23 22 22 21 21 20 20 20 21 22 23 24 25 25 25 24 24 24 24 23 23 26 29 31 33 36 42

ECMWFFLT2_700_spd_054.txt.gz
Wind_Speed
26 27 28 28 29 29 30 31 31 32 32 32 31 31 30 30 31 32 33 33 34 35 35 36 36 36 35 36 37 37 38 39 46 58 67 68 65 61 59 57 56 52 48 43 40 45 53 58 59 55 52 53
28 28 29 29 29 30 30 31 32 32 33 33 32 31 31 31 32 33 34 34 35 36 36 36 37 37 37 37 38 39 40 40 42 49 60 68 71 70 67 61 57 52 48 44 39 39 44 50 57 59 55 53
27 28 29 30 30 30 30 31 32 33 33 33 33 32 32 32 33 33 34 35 36 37 37 37 38 38 38 39 39 41 41 42 43 45 51 60 69 74 76 73 68 62 56 49 41 38 39 43 51 58 58 56
27 28 29 30 30 30 30 31 32 33 33 33 33 33 33 33 34 35 35 36 37 37 37 37 38 38 39 40 40 42 43 43 45 46 48 53 60 67 74 79 81 78 70 59 49 42 39 40 44 52 58 58
28 28 29 30 30 31 31 31 31 32 33 33 34 33 34 34 35 36 37 37 38 38 38 38 38 38 39 40 41 42 43 44 46 48 49 51 56 60 64 71 80 84 81 72 62 53 46 42 41 46 53 57
28 29 29 30 30 31 31 31 32 32 33 34 34 34 34 35 36 37 38 39 39 40 40 39 39 39 40 41 41 42 43 45 47 49 50 52 55 59 61 63 70 79 85 85 77 67 58 49 43 42 46 51
29 29 29 30 30 31 32 32 33 33 33 34 34 34 35 36 37 38 39 40 41 41 41 41 40 40 41 42 42 42 42 44 46 49 51 53 54 57 61 62 62 68 78 88 88 81 72 62 52 44 42 43
29 29 30 30 30 31 32 32 33 33 33 34 35 35 35 36 37 38 39 40 41 42 42 42 42 41 41 42 42 42 41 42 44 47 50 52 54 55 59 62 60 60 66 76 84 87 84 75 64 54 46 40
29 30 30 30 31 31 31 32 33 33 34 34 34 35 35 36 37 38 39 40 41 42 42 42 42 42 42 42 42 42 41 41 43 45 48 49 52 53 55 59 59 57 59 64 72 81 87 84 76 66 56 46
29 30 31 31 31 32 32 33 33 34 34 35 35 35 35 36 37 37 38 39 40 41 42 42 42 42 42 42 42 42 42 42 42 43 46 47 48 50 51 54 56 55 55 58 61 69 79 84 83 76 68 57
29 30 31 32 32 33 33 34 34 34 35 35 35 35 35 36 37 37 38 39 40 40 41 41 41 41 41 42 41 41 42 41 41 42 45 46 46 47 47 49 52 51 52 55 56 60 68 76 82 81 76 68
30 30 31 32 33 33 34 34 35 35 35 36 36 36 36 36 37 38 38 39 39 40 40 40 40 40 41 41 41 41 41 41 41 41 43 45 45 45 45 45 48 48 48 51 53 54 59 66 75 80 80 76
30 31 32 32 33 34 34 35 35 35 36 36 36 36 36 36 37 38 38 39 39 39 39 39 39 39 40 40 40 40 40 40 40 41 42 44 45 44 44 43 44 46 45 47 51 51 53 58 67 75 78 78
31 31 32 33 34 34 35 35 35 36 37 37 37 36 36 36 37 38 38 39 39 39 39 38 38 38 39 39 39 40 40 39 39 40 41 43 44 43 43 43 41 43 43 44 48 49 50 53 59 68 73 76
31 32 33 34 34 35 35 35 36 37 37 37 37 37 37 37 38 38 39 39 39 39 39 38 37 37 38 39 39 39 39 39 39 39 40 42 43 42 41 42 40 41 42 41 44 46 46 49 52 59 67 71
31 32 33 34 34 35 35 36 37 37 37 38 38 38 37 37 38 38 39 39 39 39 39 37 37 37 37 38 39 39 39 38 38 38 39 41 42 42 40 40 40 40 41 40 41 44 44 45 47 51 59 65
32 32 33 33 34 35 36 37 38 38 38 38 38 38 37 37 37 38 39 39 39 39 39 38 36 36 37 37 38 39 39 38 38 38 38 40 41 41 40 40 39 38 40 39 39 41 42 42 44 46 52 58
33 33 33 34 34 35 36 37 38 38 38 38 38 38 37 37 37 38 38 38 39 39 38 37 36 36 37 37 38 38 39 38 37 37 37 38 40 40 40 39 38 37 38 38 37 38 40 40 41 43 46 51
35 34 34 34 34 35 36 37 38 38 38 38 38 38 37 37 37 37 38 38 39 39 38 37 36 36 36 37 38 38 38 38 37 36 36 37 39 40 39 38 37 35 35 36 35 35 38 39 41 41 42 46
35 35 34 34 34 35 36 37 38 38 38 38 38 38 37 37 37 37 37 38 39 38 37 36 35 36 36 37 38 38 38 37 36 36 35 35 38 39 39 37 35 34 33 33 33 33 36 39 41 41 41 43
35 35 35 35 35 35 36 37 37 38 38 38 39 38 38 37 36 37 37 38 38 38 37 36 35 35 36 37 38 38 37 37 36 35 35 34 36 38 38 35 33 32 31 30 32 33 35 38 40 42 41 42
36 36 36 35 35 35 36 37 37 37 38 39 39 39 38 38 37 37 37 38 38 38 38 37 35 35 35 37 37 37 36 36 35 34 34 33 33 36 36 33 30 29 29 28 29 31 33 35 37 41 42 42
37 37 36 36 36 35 36 37 37 37 38 39 39 39 39 38 38 37 37 38 38 39 38 37 36 35 35 36 37 37 35 34 34 33 32 31 31 33 33 30 28 27 27 26 27 29 30 31 32 36 42 42
37 37 37 37 36 36 36 37 37 38 38 39 39 40 39 38 38 37 37 37 38 39 39 38 36 35 34 36 36 36 34 33 32 31 30 30 30 30 29 28 26 25 25 25 26 27 28 29 29 30 36 42
38 38 38 38 37 37 37 37 38 39 39 39 40 40 40 39 38 37 37 37 38 38 38 38 37 35 34 35 36 36 34 32 31 30 28 28 28 28 27 25 24 23 23 25 25 26 27 28 29 28 30 36
39 39 39 39 38 38 38 38 38 40 40 40 40 40 40 39 39 38 37 37 37 38 38 37 36 35 34 35 36 35 34 32 30 29 27 26 26 26 25 23 22 21 21 24 25 27 28 29 30 30 28 30
39 40 39 39 39 39 38 39 39 40 41 41 41 41 41 41 40 39 38 37 37 37 37 37 36 35 34 34 35 35 34 31 29 28 26 25 25 24 23 22 21 21 20 21 23 25 27 28 29 30 29 28
40 40 40 39 39 39 39 39 40 40 40 41 41 42 42 42 41 41 39 38 37 37 37 37 36 35 34 33 34 35 33 31 29 27 25 24 24 24 23 22 22 21 20 19 20 22 24 26 27 27 27 27
41 41 41 40 40 39 39 39 39 40 41 41 41 41 42 42 42 42 41 39 37 37 36 36 36 36 34 34 34 34 33 31 28 26 25 23 23 23 23 22 22 22 21 19 19 20 22 23 24 25 24 24
42 42 41 41 40 40 40 40 39 40 41 41 41 42 42 43 43 42 42 40 39 37 36 36 36 36 35 34 33 33 33 31 29 26 24 23 22 22 23 22 21 21 22 21 19 19 20 22 24 24 23 22
42 43 42 41 41 41 41 41 40 41 41 41 41 42 43 43 43 43 43 41 40 38 37 36 36 36 35 34 33 33 33 32 30 27 25 23 22 22 23 23 22 21 22 21 20 18 19 21 23 24 23 22

ECMWFFLT2_700_spd_060.txt.gz
Wind_Speed
24 25 25 25 25 24 24 24 24 24 24 24 24 24 24 24 24 25 26 27 28 28 29 29 29 29 30 30 30 30 29 29 30 30 30 30 31 31 31 33 33 34 36 37 38 38 38 38 37 35 34 32
23 24 24 24 24 24 24 24 23 23 23 23 23 23 24 24 24 25 26 27 28 29 29 30 30 30 31 31 31 31 31 31 31 31 31 31 31 31 31 32 34 35 36 37 38 38 39 39 39 38 38 35
23 24 24 24 24 24 24 24 24 24 24 24 24 24 24 25 25 25 26 27 28 29 30 30 30 30 31 32 33 32 32 32 32 32 33 33 32 31 31 32 34 35 36 38 38 39 39 40 40 40 40 39
24 24 24 24 24 24 24 24 24 25 25 25 26 26 26 27 27 27 28 28 29 30 30 31 31 31 31 33 33 33 34 34 34 34 35 35 33 32 31 32 34 35 36 38 39 39 40 41 41 41 41 41
23 24 24 24 25 25 25 25 25 26 27 27 28 29 29 29 29 29 29 29 30 30 31 31 31 31 32 33 34 34 35 36 36 36 37 37 35 35 34 34 34 35 37 38 39 39 40 41 43 43 42 42
23 24 25 26 26 27 28 28 29 29 30 30 31 31 31 32 32 31 31 31 31 31 32 32 32 32 32 33 34 35 35 36 38 38 38 38 37 37 37 36 36 36 37 38 39 40 41 42 43 44 44 44
25 26 27 28 29 30 31 32 32 33 33 33 33 34 34 33 33 33 33 32 32 32 33 33 33 33 33 33 34 34 35 37 38 38 39 39 38 38 38 39 38 38 38 39 40 40 42 43 43 45 46 46
28 28 29 30 31 32 33 34 35 35 35 35 35 35 35 35 35 34 34 34 33 33 33 34 34 34 34 33 34 35 36 36 38 38 39 39 40 39 39 40 40 39 39 39 40 41 42 43 44 45 46 47
29 29 30 31 32 33 34 35 35 36 37 37 37 37 37 36 36 36 36 35 35 35 34 35 35 35 35 34 34 35 36 37 37 38 39 40 40 40 40 41 41 41 41 40 40 41 42 43 44 45 46 47
30 30 31 32 32 33 34 35 36 37 37 38 38 38 38 38 38 37 37 37 36 36 36 36 36 36 36 36 35 36 36 37 38 38 39 40 40 41 41 41 41 42 42 41 40 41 42 43 44 46 46 47
30 31 32 32 33 34 35 36 36 37 38 38 38 39 39 39 39 39 38 38 38 38 37 37 37 37 38 38 37 37 37 37 38 39 40 40 41 41 42 42 42 42 42 41 41 41 42 42 44 45 47 47
31 32 33 34 34 35 35 36 36 37 38 39 39 39 40 40 40 40 40 39 39 39 39 38 39 39 39 39 39 38 38 38 39 39 40 40 41 41 42 42 42 42 42 42 42 42 42 43 43 45 46 48
31 32 33 34 35 35 36 36 37 38 39 40 40 40 41 41 41 41 41 40 40 40 40 40 40 40 40 40 40 40 39 39 39 40 40 41 41 41 42 42 42 42 42 42 42 42 43 43 44 45 46 47
31 33 34 35 36 36 37 37 38 38 39 40 40 41 41 41 42 42 42 42 42 41 41 41 41 41 41 41 41 41 40 40 40 40 40 41 41 41 42 41 42 42 42 42 42 43 43 43 44 45 45 47
33 34 36 37 37 38 38 39 39 39 40 40 41 41 42 42 42 43 43 43 43 42 42 42 42 42 43 42 42 42 42 41 41 41 41 41 41 42 42 41 41 42 42 42 42 43 43 43 44 45 46 46
35 36 38 39 40 40 41 41 41 41 41 42 42 43 43 42 43 44 44 44 44 44 43 43 43 43 43 43 43 43 43 43 42 42 42 41 41 42 42 42 42 42 42 42 42 43 43 43 44 44 46 46
37 38 40 41 42 42 43 43 43 43 43 43 43 44 44 43 43 44 44 45 45 44 44 44 44 44 44 44 44 44 44 43 43 43 43 42 41 42 42 42 42 42 42 42 42 42 43 43 43 44 45 46
39 40 41 42 43 44 44 45 45 44 44 45 44 45 44 44 44 44 45 45 45 45 44 45 45 45 45 45 45 44 44 44 44 44 43 42 42 42 42 42 42 42 42 42 42 42 42 43 43 43 44 45
41 42 43 44 45 45 45 45 45 45 45 45 45 45 45 45 44 44 45 45 46 46 45 45 45 45 45 45 45 45 44 44 44 44 44 43 42 42 42 42 42 42 42 42 42 41 42 42 42 42 43 43
42 43 45 46 46 46 46 46 46 45 45 46 45 45 45 46 46 46 46 46 47 47 46 45 45 45 45 45 45 45 44 44 44 44 44 43 43 43 42 42 42 41 42 42 41 41 41 41 42 41 42 41
44 45 46 47 47 48 48 47 47 46 46 47 47 46 45 46 46 47 47 47 48 48 47 46 46 46 45 45 45 45 44 44 44 44 44 43 43 43 43 42 41 41 41 41 41 41 40 40 41 41 41 40
45 47 48 48 48 49 49 48 48 47 47 47 47 47 46 46 47 47 48 48 49 50 49 47 47 47 46 46 46 46 45 44 44 44 44 43 43 43 43 42 41 41 40 41 41 40 40 40 39 40 40 39
47 48 49 49 49 49 49 49 48 47 47 47 48 48 47 47 47 47 48 49 50 51 50 49 48 48 47 47 46 46 46 45 45 45 44 43 43 42 43 42 41 41 40 40 40 40 39 38 38 38 38 37
50 51 51 51 50 49 49 48 48 47 46 46 47 47 48 48 48 48 48 50 51 52 52 51 50 50 49 48 48 47 46 46 46 46 45 43 43 42 42 41 41 41 40 40 39 39 39 37 37 37 36 36
53 53 53 52 50 49 48 48 48 48 47 46 46 46 47 48 48 48 49 50 52 53 54 54 52 52 52 50 50 49 48 47 46 46 46 44 43 42 41 41 40 40 40 40 39 39 38 37 37 37 36 35
54 53 52 52 50 50 49 49 49 50 49 49 48 47 47 47 48 48 49 49 51 54 55 55 54 54 54 53 51 50 50 49 48 47 47 45 43 42 42 40 40 40 40 39 39 39 38 37 36 36 36 35
53 52 51 51 51 51 50 50 50 51 51 51 51 51 49 49 49 49 49 49 50 53 55 56 56 56 56 55 54 52 51 50 49 49 48 46 44 42 41 40 39 39 39 39 39 39 38 36 35 35 36 34
53 52 51 51 51 50 50 49 48 49 49 50 52 52 52 51 50 50 50 50 50 52 54 56 57 58 58 58 56 55 53 51 50 50 49 46 44 43 41 40 40 39 39 38 38 39 38 37 36 35 34 32
52 52 52 51 50 49 48 47 47 47 48 48 50 52 53 53 52 51 50 50 50 51 52 54 56 58 59 59 59 57 55 52 50 49 50 48 44 43 42 40 40 40 39 38 37 38 37 37 37 36 34 32
51 50 49 48 47 47 47 47 46 47 48 49 50 52 54 55 54 53 52 51 50 50 52 53 54 56 58 60 59 59 57 54 51 49 49 49 46 44 42 41 40 39 39 39 38 37 37 37 37 36 34 33
46 44 43 43 43 43 44 46 46 47 48 49 51 53 55 56 57 56 54 53 52 51 51 52 53 54 56 58 59 60 59 57 53 50 49 48 47 45 42 42 41 38 38 40 39 38 37 36 36 36 35 33

ECMWFFLT2_700_spd_063.txt.gz
Wind_Speed
21 20 20 20 19 20 20 19 19 19 19 19 20 20 20 21 21 22 22 23 24 24 25 25 25 25 26 27 27 27 28 28 28 28 28 28 29 29 29 29 29 29 30 30 31 30 30 30 30 30 28 26
18 19 18 18 18 18 19 19 19 19 20 20 21 21 22 22 23 24 24 25 26 26 27 26 26 26 26 27 28 28 28 29 29 28 29 29 29 29 29 30 30 30 29 30 31 31 31 30 30 31 30 28
15 16 17 18 18 19 19 20 20 20 21 22 23 23 24 25 25 26 26 27 27 28 29 28 28 27 27 27 28 28 29 29 29 29 29 29 30 29 29 30 30 30 30 30 31 31 32 31 31 30 30 30
14 16 17 18 19 20 21 22 22 22 22 23 23 24 25 26 26 27 27 27 28 28 29 29 29 29 28 28 28 29 29 30 30 29 29 29 30 30 30 30 30 31 31 31 32 32 32 32 32 31 30 30
17 18 19 20 20 21 22 23 23 23 24 24 24 25 26 26 27 27 27 27 28 28 29 30 30 30 30 29 29 30 30 31 31 31 30 30 30 30 30 30 30 31 32 33 33 33 33 33 32 32 31 31
19 20 21 21 21 22 22 23 24 25 25 26 26 26 26 27 28 28 28 28 28 28 29 30 30 31 31 30 31 31 31 32 32 32 31 31 32 32 31 31 31 31 32 34 34 35 35 34 33 33 32 32
20 20 21 22 22 22 23 24 25 26 27 27 28 28 28 28 29 29 29 29 29 29 30 30 31 31 32 32 32 32 32 33 33 33 33 33 33 33 33 32 31 32 33 34 35 35 36 36 35 35 34 33
20 20 21 22 23 23 24 25 26 27 28 29 30 31 31 31 31 32 32 31 31 31 31 31 32 33 33 33 33 33 33 34 34 35 35 35 35 35 35 34 33 33 33 34 35 35 36 36 36 36 35 35
20 20 21 22 23 24 25 26 27 28 28 29 30 31 32 32 33 33 34 34 33 33 33 33 33 34 34 35 35 35 35 35 36 36 37 37 37 37 37 36 35 35 34 35 35 35 35 36 36 37 37 36
19 20 22 23 24 25 26 27 28 29 29 30 31 32 32 33 34 34 35 35 35 35 34 34 35 35 36 36 37 37 37 37 38 38 38 39 39 39 39 38 38 37 37 36 36 36 35 35 35 36 37 37
20 21 23 25 26 27 28 29 30 31 31 32 33 33 34 34 35 35 36 37 37 37 36 36 36 37 37 37 38 39 39 39 39 39 40 40 41 41 41 40 40 40 39 38 38 37 36 35 34 35 35 37
20 22 24 26 27 28 29 30 31 33 33 34 35 35 36 36 36 37 37 38 39 39 39 38 38 38 39 39 39 39 40 40 40 41 41 41 42 42 42 42 42 42 41 40 40 38 37 36 35 35 34 36
21 23 25 27 29 30 31 32 33 34 35 36 37 37 38 38 38 38 38 39 39 40 40 40 40 40 40 41 41 40 40 41 41 41 41 42 42 42 42 42 42 43 42 41 41 40 39 38 37 36 35 35
22 24 27 29 31 32 33 34 35 36 36 37 38 39 39 39 39 39 39 40 40 41 41 41 41 41 41 41 42 42 41 41 42 41 41 42 42 43 42 42 43 43 43 41 41 41 40 40 39 38 37 36
24 27 29 31 33 34 35 36 37 37 38 38 39 39 40 40 40 40 40 40 40 41 41 42 42 42 42 42 43 43 43 42 42 42 42 43 43 43 43 43 43 43 43 42 41 41 41 41 40 40 39 38
27 30 32 34 35 37 38 39 39 40 40 40 40 41 41 41 40 40 40 39 40 41 41 42 43 43 42 42 43 43 43 43 43 43 43 43 44 44 43 43 43 43 44 42 42 42 42 42 41 41 41 40
31 33 35 36 38 39 40 41 42 42 42 42 42 42 42 41 41 40 40 39 39 40 41 42 43 44 44 44 43 43 43 43 43 43 43 43 44 44 44 43 43 43 44 43 43 43 43 42 42 42 42 42
34 36 38 39 40 42 43 43 43 43 43 43 43 43 42 42 41 41 40 39 39 40 40 42 43 45 46 46 45 44 44 44 44 44 44 44 45 45 45 44 43 44 44 43 43 43 43 43 43 43 43 43
36 38 40 41 42 44 44 45 44 44 44 44 44 43 43 42 42 41 40 40 39 39 40 41 42 44 46 47 47 46 46 46 46 46 46 46 46 46 45 45 45 45 45 44 44 44 44 44 43 44 44 44
38 40 42 43 44 45 46 46 46 45 45 44 44 43 43 42 42 41 41 41 41 41 40 40 41 43 46 48 49 48 47 47 47 47 47 47 47 48 47 46 46 46 46 45 45 44 44 44 44 44 44 44
40 42 44 45 47 48 48 48 47 47 46 45 44 44 43 43 42 42 42 42 42 42 41 41 42 42 45 48 50 50 49 48 48 49 48 48 48 49 49 48 47 46 46 47 46 45 45 45 45 45 45 45
43 45 47 48 49 50 50 49 49 48 47 46 46 45 44 44 43 43 43 42 42 43 43 43 43 43 44 47 50 52 51 50 50 50 50 49 48 49 50 49 48 47 47 47 47 46 45 45 46 45 45 45
46 48 49 50 51 52 52 51 50 49 48 48 47 46 45 45 44 44 44 43 43 44 44 44 45 45 45 47 49 52 53 52 52 53 52 51 50 49 50 50 50 49 48 48 48 47 46 46 46 46 45 45
50 51 52 53 53 53 53 52 51 50 49 48 47 46 45 44 44 44 44 44 44 45 45 45 46 46 46 47 49 51 52 52 53 54 54 53 52 51 51 50 50 50 50 50 48 47 47 47 46 46 45 45
53 54 55 55 55 54 53 52 50 48 47 46 45 44 44 43 43 43 43 44 44 45 46 46 47 47 47 47 49 50 51 51 52 53 54 55 55 54 53 51 50 50 51 51 49 48 47 47 46 46 46 45
56 56 57 57 56 54 52 49 47 45 44 44 44 43 43 42 42 42 42 42 43 44 45 46 47 47 48 48 49 50 51 51 52 52 53 55 56 55 55 53 51 50 52 52 50 49 49 47 46 46 46 45
57 57 56 55 53 51 48 45 43 42 42 43 43 42 42 41 40 40 41 41 41 42 43 44 45 46 47 48 49 50 51 52 52 53 53 55 56 56 56 55 53 52 52 53 51 50 50 48 46 46 46 45
57 55 52 49 46 44 42 41 40 40 39 39 40 40 40 40 39 39 39 38 39 39 40 41 41 42 43 45 47 49 51 52 53 54 54 55 56 57 58 57 55 53 54 53 52 50 50 48 47 46 45 45
54 50 46 43 40 39 39 38 38 37 37 36 37 38 38 39 39 39 38 38 38 38 38 39 40 40 41 42 43 45 47 49 51 53 55 55 55 56 58 58 56 55 54 54 52 51 50 48 48 47 45 44
48 44 41 39 38 37 37 37 36 36 36 36 36 37 37 38 39 40 40 40 40 40 40 40 40 41 41 41 42 43 44 45 47 49 52 55 56 56 56 57 58 56 54 54 54 53 50 47 47 47 46 45
42 39 38 37 37 37 37 37 36 36 36 37 37 38 38 39 40 41 42 43 43 43 43 44 43 43 43 43 43 44 45 45 45 46 48 51 55 57 56 56 58 57 54 54 55 54 51 48 47 46 46 46

ECMWFFLT2_700_spd_066.txt.gz
Wind_Speed
17 16 16 16 15 15 15 16 17 17 17 18 18 18 18 18 19 19 20 20 21 21 22 22 23 23 24 24 25 25 26 26 26 26 26 26 27 27 28 29 30 31 31 32 32 31 30 29 28 27 25 24
16 14 14 15 15 15 16 17 18 19 19 19 20 20 20 21 21 21 22 22 23 23 23 24 24 24 24 25 26 26 27 27 27 27 27 27 27 27 27 28 29 30 31 31 32 32 32 31 29 29 28 27
14 13 14 15 16 17 17 18 19 19 20 20 21 21 22 22 23 23 23 23 24 25 25 25 25 25 25 25 26 26 27 27 28 28 27 27 28 27 27 27 28 29 30 31 32 32 33 32 31 30 29 29
13 14 15 16 16 17 17 18 18 19 20 20 21 22 23 24 24 24 24 24 24 25 26 26 27 26 26 26 26 26 27 27 28 28 28 28 28 28 28 28 28 29 30 30 31 31 32 33 33 32 31 31
14 15 15 16 16 16 16 17 17 18 19 20 21 22 23 23 24 25 25 25 25 25 26 27 28 28 28 28 27 27 27 28 28 29 29 29 29 29 29 29 29 30 31 31 31 31 32 33 34 34 33 32
15 15 15 15 14 14 15 16 16 17 18 19 20 21 22 23 24 24 25 25 25 26 26 27 28 29 29 29 29 29 28 29 29 29 30 30 30 30 31 31 31 31 31 32 33 33 33 33 34 35 35 34
14 14 14 13 13 14 15 16 17 18 19 20 21 22 23 24 24 25 25 26 26 26 26 27 28 28 29 30 30 30 30 30 30 30 31 31 31 32 32 32 32 32 32 33 34 34 34 34 35 36 36 36
13 13 12 12 13 14 16 17 19 20 21 22 23 24 25 26 26 27 27 27 27 27 28 28 28 29 29 30 30 31 31 31 32 32 32 32 33 33 33 33 33 33 34 34 34 35 35 36 36 36 37 37
13 12 12 13 14 15 17 18 20 21 22 24 25 26 27 28 28 29 29 29 30 29 29 30 30 29 30 30 31 31 32 32 33 33 33 33 34 34 34 34 34 34 34 35 35 35 36 36 36 37 37 38
13 13 13 14 15 16 18 19 21 23 24 26 27 28 29 30 31 31 31 32 32 32 32 32 31 31 31 31 32 32 32 33 34 34 34 35 35 35 35 35 35 35 35 35 35 35 36 36 36 37 37 38
14 14 14 16 17 18 20 22 24 26 27 29 30 31 32 33 33 33 33 34 34 34 34 34 34 34 33 33 33 33 33 34 34 35 35 36 36 36 36 36 36 36 36 36 36 36 36 36 36 36 37 37
16 16 16 17 19 21 23 25 26 28 30 31 33 34 35 35 35 35 35 35 36 36 36 36 36 36 36 35 35 35 34 35 35 36 36 36 37 37 37 37 37 37 37 37 37 36 36 36 37 37 37 37
17 18 18 20 22 24 26 27 29 31 32 34 35 36 37 37 37 36 36 37 37 38 38 38 38 38 38 38 38 37 36 36 36 37 37 37 37 38 38 37 38 38 37 37 38 37 37 37 37 37 37 37
19 20 21 23 26 28 29 30 31 33 34 35 37 37 38 38 38 38 38 38 38 39 39 39 39 39 39 39 40 38 37 37 37 37 38 38 38 38 38 38 38 38 38 37 38 38 37 37 37 37 37 38
21 23 25 27 29 31 32 33 34 35 37 38 39 39 40 40 40 40 40 39 39 39 39 39 39 39 40 40 41 40 39 39 38 38 38 39 39 39 39 39 39 39 39 38 38 39 38 38 38 38 38 38
23 25 28 31 32 34 35 36 37 38 39 40 41 42 42 42 42 42 41 41 40 40 39 39 39 39 40 41 41 41 40 40 40 39 39 40 40 40 40 40 40 41 40 39 39 40 39 39 39 38 38 38
26 29 31 33 35 36 37 38 39 41 42 43 44 44 44 44 44 44 43 42 42 42 41 41 41 40 41 42 42 42 42 42 41 41 41 41 41 41 42 41 41 42 42 41 41 41 41 41 40 40 40 39
30 32 34 35 37 38 40 41 42 44 45 46 46 46 46 46 46 45 45 45 44 44 44 43 42 42 42 43 43 43 43 44 43 43 43 43 43 42 43 43 42 43 43 43 43 42 42 42 41 41 41 40
32 34 35 37 39 41 43 44 46 47 48 49 49 48 48 48 48 47 47 47 46 46 45 45 44 43 43 44 44 44 44 44 44 44 44 44 44 44 44 44 44 44 45 45 45 44 44 44 43 43 42 42
34 35 37 39 42 44 46 48 49 50 51 51 51 51 50 50 49 48 48 47 46 45 44 44 43 43 43 43 43 43 43 44 44 44 45 45 45 46 45 45 45 45 46 46 46 46 46 45 45 45 43 43
35 38 40 42 45 47 48 50 51 51 52 52 52 52 51 50 49 48 46 45 44 43 42 42 41 41 41 42 43 43 43 43 43 44 45 45 45 47 47 47 47 46 47 48 48 47 47 47 47 47 46 45
38 41 43 45 47 48 50 51 52 53 53 53 52 52 50 49 47 46 44 42 42 41 40 40 40 40 40 41 41 42 42 42 43 44 45 45 45 47 48 48 48 48 49 50 50 49 48 47 48 48 47 47
42 44 46 48 49 50 51 52 53 53 53 53 52 50 48 47 45 43 42 41 41 40 39 39 39 39 39 40 41 41 41 41 42 43 44 45 45 46 47 48 49 49 50 51 51 51 49 48 49 49 49 49
46 48 50 51 52 52 52 52 53 53 53 52 50 48 46 44 43 42 41 40 40 39 38 38 38 38 38 39 40 40 40 40 40 41 42 43 44 45 45 46 48 49 50 52 52 51 51 50 50 49 49 50
50 52 53 54 55 54 53 53 53 53 51 50 48 46 44 43 42 42 41 39 39 38 38 37 37 37 37 38 39 39 39 39 39 39 40 41 42 43 43 44 44 46 49 51 52 52 52 51 50 49 50 51
52 54 56 57 56 56 54 53 53 52 50 48 46 45 44 43 42 42 40 39 39 38 38 37 37 37 37 38 38 38 38 37 38 38 38 39 40 41 42 42 41 42 46 49 51 52 53 52 49 48 50 50
53 55 57 57 56 55 54 53 51 50 48 47 46 45 44 43 43 42 41 40 39 39 38 38 38 38 38 38 38 39 38 38 37 37 38 38 40 40 41 41 40 40 43 46 48 50 53 52 51 49 48 48
57 58 58 57 55 54 53 52 50 48 46 45 46 45 45 44 44 43 42 41 40 40 39 39 39 39 39 39 39 39 39 39 38 39 39 39 40 41 42 41 40 40 41 42 44 47 50 51 52 51 49 48
61 62 61 59 57 54 52 51 48 46 45 44 44 45 45 44 44 44 43 42 42 41 41 41 40 40 40 40 39 39 39 39 39 39 40 40 41 43 43 44 43 42 41 41 42 46 48 49 51 51 50 50
62 63 62 60 58 54 50 49 47 45 45 44 43 44 44 44 43 43 42 42 42 41 41 41 41 41 41 40 40 39 39 39 38 39 40 41 42 42 43 45 45 44 42 42 43 45 46 48 50 50 50 52
60 60 59 57 56 53 50 48 46 45 45 45 44 43 43 42 41 41 41 41 41 40 40 40 41 41 41 41 39 39 39 38 38 39 39 40 41 42 43 45 46 45 44 44 44 45 46 47 49 50 50 52

ECMWFFLT2_700_spd_072.txt.gz
Wind_Speed
23 22 21 20 20 20 19 19 19 19 19 19 20 20 19 19 19 19 20 20 20 21 21 22 23 24 25 26 27 28 29 30 30 31 31 31 32 32 32 32 32 33 33 32 32 31 31 31 32 32 31 31
22 21 20 19 19 18 18 18 19 19 20 20 20 19 19 19 18 19 19 19 20 20 20 21 22 23 24 25 26 27 28 28 29 30 31 32 32 32 32 32 32 33 33 33 33 33 32 32 32 33 32 32
21 20 19 18 18 18 18 19 19 20 20 20 19 19 18 17 17 17 18 19 19 20 20 21 22 23 24 25 25 26 27 27 28 29 30 31 31 32 32 32 32 33 33 33 33 33 33 33 33 33 33 33
19 19 18 18 18 18 19 19 20 20 20 19 17 17 16 16 16 17 17 18 19 19 20 21 22 24 25 26 26 27 27 28 28 28 28 29 30 31 32 32 32 33 33 33 33 33 33 33 33 33 33 33
18 18 18 18 18 19 20 20 20 20 18 17 15 15 15 15 15 16 16 17 18 19 20 21 23 24 25 26 27 28 29 29 29 29 29 29 29 30 31 31 32 33 33 33 33 33 33 33 34 34 34 33
18 18 18 19 19 20 20 20 19 19 17 15 15 15 15 15 15 16 17 18 19 20 21 22 24 25 25 26 27 28 29 30 31 31 31 30 30 30 30 31 32 33 33 34 34 34 34 34 34 34 34 34
19 19 19 20 20 20 20 19 19 18 17 16 16 16 15 16 16 17 19 20 21 22 23 24 26 27 27 28 28 29 29 30 31 32 33 32 32 32 31 31 31 32 33 33 34 34 34 34 34 34 34 34
20 20 21 21 21 20 20 19 18 18 17 17 17 17 17 18 19 20 21 22 23 24 25 26 27 29 30 30 31 31 30 31 31 32 33 33 34 34 33 33 32 32 32 33 34 34 34 34 35 35 35 35
22 22 22 21 20 20 20 19 18 18 18 18 18 19 20 21 22 23 24 25 26 27 28 29 30 32 33 34 34 34 33 33 33 33 33 33 34 34 34 34 34 34 33 33 33 34 34 34 34 35 36 36
23 23 22 21 20 19 19 19 19 19 19 19 20 22 23 24 25 26 27 28 29 30 32 33 34 35 36 37 37 37 37 36 35 34 34 34 34 34 34 35 35 35 34 34 34 34 34 34 34 34 35 36
23 22 21 20 20 19 19 20 20 21 21 22 23 25 26 27 28 29 29 30 32 33 35 36 37 38 39 40 40 40 40 38 38 37 36 35 35 35 35 35 35 35 35 35 34 34 34 34 34 34 34 34
21 20 20 20 20 20 20 21 21 22 23 24 26 27 29 29 30 31 32 33 34 35 36 37 38 39 40 41 42 42 41 41 40 39 38 38 37 36 36 36 36 36 36 36 35 35 35 35 34 34 34 34
20 20 21 21 21 21 21 22 22 24 25 26 28 29 30 31 32 33 33 34 35 36 37 38 39 40 41 42 43 43 42 42 41 41 40 40 39 39 38 38 38 38 37 37 37 37 36 36 35 35 34 34
21 21 21 21 21 22 22 23 24 25 26 27 29 30 31 32 33 34 35 36 37 38 39 41 42 43 43 43 44 44 43 43 43 42 42 41 41 41 40 39 40 40 39 39 39 39 39 38 38 37 36 35
21 21 21 21 22 22 23 24 25 26 28 29 30 31 32 34 35 36 37 39 40 42 44 45 45 46 46 45 45 45 44 43 43 43 42 42 42 41 41 40 40 41 40 40 40 41 41 41 40 40 39 38
21 21 21 22 22 23 24 25 27 28 29 30 32 33 34 36 37 39 41 43 45 46 47 48 48 48 47 47 46 46 45 44 44 43 43 43 43 42 41 41 41 41 41 40 41 41 41 41 41 41 41 40
21 21 22 22 23 24 25 26 27 29 30 32 33 35 37 39 41 42 44 46 47 48 49 49 49 48 48 48 47 47 46 45 45 44 43 43 43 42 42 41 41 41 41 40 41 41 41 41 41 41 41 41
21 22 22 23 24 25 26 27 29 30 32 34 36 38 40 42 43 44 46 47 49 49 49 49 49 48 48 48 48 47 47 46 45 44 43 43 43 42 42 42 41 42 41 41 41 41 41 40 40 40 40 40
21 22 23 24 25 26 28 29 31 32 34 36 38 40 42 43 44 46 47 49 50 50 49 49 49 48 48 49 49 48 47 46 45 44 44 43 43 43 43 43 42 42 42 41 41 41 41 40 40 40 40 40
21 22 23 25 26 28 30 32 33 35 36 38 40 42 43 44 46 47 49 50 51 50 50 49 49 49 49 49 49 48 47 46 45 45 45 44 45 44 43 43 42 42 43 42 41 41 41 41 41 41 40 40
22 24 25 27 28 30 31 33 35 37 38 40 41 43 44 46 47 49 50 51 51 51 50 49 49 48 48 48 48 48 47 46 45 45 45 45 45 46 45 44 43 43 44 44 43 42 42 42 42 42 41 41
25 26 28 29 30 31 33 34 36 38 40 41 43 44 46 48 49 50 50 51 51 50 49 48 48 47 47 48 48 47 47 46 46 46 46 46 46 47 47 46 45 45 45 46 45 44 43 43 44 43 42 42
28 29 30 31 32 33 34 36 37 39 42 44 45 46 47 48 48 49 49 49 49 48 48 47 47 47 47 48 48 48 47 47 47 47 48 48 47 48 49 48 47 48 48 48 47 45 45 45 45 44 44 44
30 30 32 33 34 35 36 38 40 42 44 46 47 47 47 47 48 48 47 47 47 47 47 47 47 47 47 48 48 49 48 48 48 48 49 49 49 49 50 50 49 50 50 50 49 48 47 47 46 45 45 44
32 33 34 35 36 38 39 41 43 45 46 47 47 47 47 47 48 48 48 46 46 46 46 46 46 47 47 47 48 49 49 49 49 49 49 50 51 51 51 51 51 51 52 52 52 51 50 48 47 47 47 45
34 36 37 39 40 41 42 44 46 47 47 47 47 46 47 47 48 49 49 48 47 47 47 47 47 47 46 46 47 48 49 49 50 50 51 51 52 52 53 53 52 53 54 54 54 54 53 50 48 48 48 47
37 39 40 42 43 45 46 47 47 47 47 47 46 46 46 47 48 49 50 49 49 49 48 48 48 47 47 46 47 48 48 48 49 50 51 52 53 53 54 54 54 54 55 56 56 56 56 54 52 49 47 48
40 41 42 44 45 47 48 48 47 46 46 45 46 46 46 47 49 50 50 50 50 50 50 49 49 49 48 47 47 48 48 48 48 49 50 52 54 54 55 56 55 55 56 57 57 58 58 57 56 53 50 49
42 44 45 47 48 48 48 48 47 47 46 46 47 48 49 49 49 50 51 50 50 50 50 50 50 50 49 49 48 49 49 49 48 49 49 51 53 55 56 57 57 57 56 57 57 58 58 58 58 57 54 53
45 46 48 49 50 51 51 51 50 50 51 51 51 51 50 49 48 48 48 48 48 49 49 50 49 50 49 49 49 49 50 50 50 49 49 50 52 54 56 57 59 59 57 57 58 58 58 58 59 59 57 56
47 48 49 49 50 51 52 52 52 53 53 53 52 51 49 47 46 45 45 45 46 47 47 47 48 48 48 48 48 48 49 50 50 50 50 50 52 54 55 57 59 59 58 59 59 58 57 58 58 59 58 58

ECMWFFLT2_700_spd_075.txt.gz
Wind_Speed
27 27 27 27 26 25 24 24 24 23 23 23 23 22 21 21 20 20 19 19 18 18 18 18 18 19 19 20 20 20 21 22 22 23 24 25 26 26 27 28 29 30 30 31 31 32 32 31 31 30 31 32
28 28 27 26 26 25 24 24 24 23 23 23 22 21 21 20 19 19 18 17 17 16 16 16 17 17 17 18 19 20 20 21 22 23 24 25 26 26 26 27 28 29 30 31 32 32 32 32 32 32 31 32
29 28 27 26 25 25 24 24 24 23 23 22 21 20 20 19 18 18 17 16 16 16 15 15 16 16 17 17 18 19 20 22 23 24 24 25 26 27 27 27 28 28 29 30 31 31 32 33 33 33 32 32
29 28 27 26 25 24 24 24 23 23 22 21 20 19 19 18 18 18 17 16 16 16 15 16 16 17 17 18 19 19 21 22 23 24 25 26 27 27 28 29 29 29 29 29 30 31 31 32 32 33 33 33
30 28 27 25 25 24 24 23 23 22 21 20 19 19 19 19 18 18 17 17 16 16 16 17 17 18 18 19 20 21 22 23 24 25 25 26 27 28 28 29 30 31 31 30 30 30 31 31 32 32 33 33
30 29 27 25 25 24 24 23 23 22 21 20 19 19 19 19 19 18 18 17 17 17 17 18 19 19 20 21 22 23 24 25 26 27 27 28 28 28 29 30 30 31 32 32 31 31 31 31 31 32 32 33
31 29 27 25 25 24 24 23 23 22 21 20 20 20 20 20 19 19 18 18 18 18 19 20 21 21 22 24 25 26 27 28 29 30 30 30 30 30 30 30 31 32 32 33 33 32 32 32 32 32 32 32
31 28 26 25 24 24 23 23 22 22 21 21 21 21 21 20 20 19 19 19 20 20 21 22 23 24 25 26 27 28 30 31 32 32 33 33 33 33 32 32 32 32 33 33 33 33 33 32 32 32 32 32
29 27 26 25 24 23 22 22 21 21 21 21 22 22 22 21 21 21 21 22 22 23 24 24 25 26 27 28 29 30 31 32 32 33 34 34 35 35 35 34 34 34 34 34 34 34 34 33 33 32 33 33
28 27 26 25 23 22 21 21 21 21 22 22 23 23 23 23 23 23 24 24 25 26 26 27 27 28 29 30 30 31 32 32 32 33 34 34 35 36 36 36 36 36 35 35 35 35 35 35 34 33 33 33
27 26 25 24 23 22 22 22 22 22 23 23 24 24 24 24 25 25 26 27 27 28 28 28 29 29 30 30 31 32 33 33 34 34 35 35 36 37 37 37 38 37 37 36 36 37 37 36 35 34 34 33
27 27 26 25 24 23 23 23 23 23 24 24 25 25 25 26 27 27 28 29 29 29 30 30 30 31 31 33 34 35 35 36 37 37 37 38 38 38 38 38 38 38 38 38 38 37 38 38 37 37 36 35
28 28 27 26 24 23 23 23 23 24 24 25 26 27 27 28 29 29 30 30 31 31 31 31 32 33 34 35 37 38 39 40 40 40 40 40 40 40 40 39 39 39 39 39 39 39 39 39 39 38 38 37
28 27 26 25 24 23 23 23 24 24 25 26 27 28 29 29 30 31 31 32 32 32 32 33 34 35 35 36 37 38 40 41 41 41 41 41 41 41 40 40 40 40 39 39 40 39 39 39 39 39 39 39
26 25 25 24 24 24 24 24 25 25 26 27 28 29 30 31 32 32 33 33 34 34 34 35 36 37 37 37 38 39 40 40 41 41 41 41 41 41 40 40 40 40 40 39 40 40 40 40 39 39 39 39
25 25 24 24 24 25 25 25 26 26 27 28 29 29 31 32 33 34 34 35 35 35 36 37 38 38 38 39 41 42 42 41 41 41 40 40 40 40 40 39 39 40 40 39 39 39 40 39 39 39 39 38
24 24 24 25 25 25 25 26 26 27 28 29 29 30 32 33 34 35 35 36 37 37 38 39 39 39 40 42 44 44 44 43 42 41 40 40 40 39 39 39 38 39 39 39 38 39 39 39 39 39 39 38
24 24 24 24 24 25 25 26 27 27 28 29 30 31 32 33 34 35 36 37 38 39 40 40 41 42 43 44 45 45 45 45 43 42 41 40 39 39 39 38 38 38 38 38 38 38 38 38 38 39 39 38
24 24 24 24 25 25 26 26 27 28 29 30 31 32 33 34 35 36 37 38 40 41 42 43 43 44 45 45 46 46 46 45 44 42 41 40 39 39 38 38 38 38 38 38 38 38 38 38 39 39 38 38
25 25 25 25 25 26 26 27 28 29 30 31 32 33 34 36 36 38 39 40 42 43 44 45 45 45 45 46 46 46 46 45 44 43 41 40 40 40 39 39 38 38 38 38 38 38 38 38 39 39 39 39
26 25 25 26 26 26 27 28 29 30 31 32 33 34 35 37 38 40 41 43 44 45 46 46 46 45 45 46 46 46 45 45 45 44 43 42 42 41 41 40 39 39 39 40 39 39 39 39 39 39 39 39
26 26 26 26 27 28 28 29 30 31 32 33 34 35 37 38 40 42 43 45 46 47 46 46 46 45 45 46 46 46 46 46 47 46 46 45 44 44 43 42 41 41 41 41 40 40 40 40 41 40 40 40
26 27 27 28 28 29 30 30 31 32 33 34 36 37 39 40 42 44 45 47 47 48 47 46 46 46 46 47 47 48 48 48 48 48 47 47 45 45 45 44 43 43 43 42 42 41 41 42 42 41 41 41
28 28 29 29 29 30 31 32 33 34 36 37 38 40 41 43 45 46 47 48 48 48 48 48 48 48 49 49 50 50 50 49 48 48 47 46 46 45 44 44 43 44 44 44 43 43 42 42 43 43 43 43
30 30 31 31 32 32 33 35 36 37 38 39 40 42 44 46 47 48 49 48 48 48 49 49 50 50 51 51 51 51 50 48 47 46 45 45 45 44 44 43 43 44 45 45 44 44 43 43 43 44 44 44
32 33 33 34 35 35 36 37 39 40 41 42 43 45 47 48 48 48 48 48 49 49 50 51 51 51 51 50 50 49 47 46 45 43 43 43 44 44 44 43 42 43 45 45 45 45 45 44 43 44 44 44
33 34 35 36 37 38 39 40 41 42 44 45 46 48 48 49 48 48 48 48 49 49 50 50 50 49 48 47 46 46 45 44 43 42 42 43 43 43 44 43 42 43 45 46 46 47 47 46 45 44 44 44
34 35 36 37 38 40 41 42 43 44 45 47 47 48 48 48 48 49 49 49 49 48 48 47 47 46 45 45 44 44 44 43 42 42 42 42 43 44 44 43 43 43 44 46 46 47 48 48 48 47 46 46
36 37 38 39 40 41 42 43 44 45 46 46 47 47 47 48 48 49 49 49 48 47 46 45 45 44 44 43 43 43 43 43 42 41 41 42 43 44 44 44 44 43 43 44 46 48 49 49 50 50 48 49
38 40 41 42 43 44 45 46 47 48 48 48 48 48 48 48 49 48 48 47 46 45 44 43 43 43 43 42 42 42 42 42 42 42 41 42 43 44 44 45 46 45 44 44 46 48 49 49 51 52 51 51
40 42 43 44 46 47 48 49 49 49 49 50 49 49 49 49 48 47 46 45 44 43 43 42 42 41 41 41 41 41 41 41 42 42 42 42 43 43 44 45 47 46 45 46 47 48 48 50 51 53 53 53

ECMWFFLT2_700_spd_078.txt.gz
Wind_Speed
26 26 25 25 24 24 23 23 23 23 23 22 22 22 21 21 21 20 20 20 20 20 20 20 20 19 19 19 19 19 19 19 19 19 19 20 20 20 21 23 24 24 25 26 25 25 25 25 26 27 28 28
27 27 26 25 25 25 24 24 24 23 23 23 23 22 22 21 21 20 20 20 21 20 20 20 20 20 19 19 19 18 19 19 19 19 19 19 19 20 21 22 23 24 25 26 26 26 26 26 26 27 28 29
27 27 27 27 26 26 25 25 25 24 24 23 23 23 22 22 21 21 21 21 21 21 21 21 20 20 20 19 18 18 18 18 18 17 18 19 19 20 21 22 23 24 25 26 27 27 27 27 27 27 28 29
28 28 28 28 27 27 26 25 25 24 24 24 23 23 23 23 22 22 22 22 22 21 21 21 20 20 20 19 19 18 18 18 18 18 18 19 20 21 22 22 23 24 25 26 27 27 28 29 29 29 29 29
29 29 29 28 28 27 26 25 25 25 24 24 24 23 23 23 23 22 22 22 22 22 21 21 21 21 20 20 20 20 19 19 20 20 20 21 22 23 24 25 26 26 27 27 28 28 28 29 30 30 30 30
30 30 29 29 28 27 26 25 25 25 24 23 23 23 23 23 23 23 23 23 23 23 23 22 22 22 22 22 21 21 21 21 22 23 24 25 25 26 27 28 29 29 29 29 29 30 30 30 30 31 31 32
30 30 30 29 28 27 26 25 25 24 23 23 23 23 24 24 24 24 24 24 24 24 24 24 24 23 23 23 23 23 24 24 24 25 26 27 28 29 29 30 31 31 31 31 31 31 31 31 31 32 32 33
31 31 30 29 28 27 25 25 24 23 23 24 24 25 25 25 25 25 25 26 26 26 26 26 25 25 25 25 25 25 26 26 27 27 28 29 29 30 31 31 31 32 32 32 33 33 33 33 33 33 33 33
31 30 29 28 27 26 25 25 25 25 26 26 26 26 26 26 26 26 27 27 27 27 27 27 27 27 27 27 27 28 28 29 29 29 30 30 31 31 31 32 32 32 32 33 33 34 34 34 34 34 34 34
30 29 28 28 27 27 27 27 28 28 28 28 27 27 27 27 27 27 28 28 28 28 28 29 29 29 29 29 29 30 30 30 30 31 31 32 32 33 33 34 34 34 34 35 35 35 35 36 36 35 35 35
30 29 29 28 28 29 29 29 29 28 28 28 27 27 27 28 28 28 29 29 29 29 30 30 30 31 31 31 31 31 31 31 31 32 32 33 34 35 36 36 37 38 38 38 38 37 37 37 37 37 36 36
31 31 30 30 30 30 30 29 29 28 28 28 27 27 28 28 29 29 30 30 30 31 31 31 31 32 32 32 32 32 32 32 33 33 34 34 35 36 37 38 39 40 40 40 40 40 40 39 39 38 38 38
32 32 31 31 31 31 30 30 29 28 28 28 28 28 29 29 30 30 31 31 32 32 32 33 33 33 33 34 33 33 33 33 34 34 35 35 36 36 36 37 38 39 40 41 41 41 41 41 40 40 39 39
33 33 32 32 31 31 30 29 29 28 28 28 29 29 30 30 31 31 31 32 32 33 33 34 34 34 34 34 34 34 34 35 35 35 35 36 36 37 37 37 37 38 40 40 41 41 41 41 41 41 41 40
33 33 32 31 31 30 30 29 29 29 29 29 29 30 30 31 31 31 32 32 33 34 34 35 35 35 35 35 35 35 35 35 35 35 36 36 37 37 37 37 37 38 39 40 41 41 41 41 41 41 41 41
33 32 32 31 31 30 30 30 29 29 29 29 30 31 31 31 31 32 33 34 34 35 35 36 36 36 36 36 36 36 36 36 36 36 37 37 38 39 39 39 39 38 39 39 40 40 40 41 41 41 41 42
32 32 31 31 31 30 30 30 29 29 29 30 30 31 31 32 32 33 34 34 35 36 36 36 36 36 36 37 37 37 37 37 38 38 39 40 40 41 41 41 40 39 39 39 39 39 39 40 40 40 41 41
31 31 31 30 30 30 30 30 29 29 30 30 31 31 32 32 33 34 34 35 35 36 36 37 37 37 38 38 38 38 38 39 40 40 41 42 42 43 43 42 41 40 40 39 40 39 39 39 39 39 39 40
30 30 30 30 30 30 30 30 29 30 30 30 31 32 32 33 34 35 35 36 36 37 37 38 38 38 39 39 39 40 40 41 42 42 43 43 44 44 44 44 43 42 42 41 41 41 40 39 39 39 38 38
30 30 30 30 30 30 30 29 29 30 30 30 31 32 33 34 35 35 36 37 37 38 38 39 39 40 40 41 41 42 42 43 44 44 44 44 45 45 45 45 45 45 45 45 44 43 42 41 41 40 39 38
31 31 31 30 30 30 29 29 30 30 31 31 32 33 34 34 35 36 37 38 38 39 39 40 41 41 42 43 43 44 44 45 46 46 46 46 46 47 47 48 48 48 48 48 46 45 44 44 43 42 41 39
31 31 31 30 30 30 30 30 31 31 32 33 33 34 35 36 37 38 38 39 40 40 41 42 43 44 44 45 45 46 47 47 47 47 47 47 48 48 49 49 49 49 49 48 47 45 44 44 44 43 42 41
32 31 31 31 30 31 31 32 32 33 33 34 35 35 36 37 38 39 40 41 42 43 44 45 46 46 47 47 48 48 48 49 49 49 49 49 49 50 50 50 49 48 47 46 45 43 42 42 42 42 42 41
32 32 31 31 31 31 32 32 33 34 34 34 35 36 37 38 39 40 41 43 44 45 47 48 48 49 49 49 49 50 50 50 50 50 50 50 51 50 49 49 47 46 44 43 42 41 40 39 39 39 39 40
32 32 32 32 32 32 33 33 34 34 35 36 37 38 39 40 41 42 44 45 47 48 49 50 51 51 50 50 51 51 51 51 51 51 51 51 51 50 48 46 44 43 42 42 42 41 40 39 38 37 37 37
32 32 33 33 34 34 35 36 36 37 38 39 40 41 42 43 44 45 46 48 49 50 51 51 52 52 52 52 52 53 53 53 52 52 52 51 50 49 47 45 43 42 42 42 42 41 41 39 38 38 37 36
32 33 34 34 35 36 37 38 39 40 41 42 42 44 45 46 47 48 49 50 51 52 52 52 52 52 53 53 53 53 53 53 53 52 51 50 49 47 46 45 43 42 42 43 42 42 42 40 40 39 39 38
33 34 34 35 36 37 38 39 40 41 42 43 44 45 46 47 49 50 51 51 52 52 52 52 52 53 53 53 53 53 53 53 52 51 50 49 48 47 46 45 44 43 42 42 42 43 43 41 41 41 40 41
33 34 35 36 37 39 40 40 41 42 43 44 45 46 47 48 49 50 50 51 51 51 52 52 53 53 53 53 53 53 52 52 51 50 48 47 47 46 46 46 45 44 43 43 42 43 43 42 42 41 41 42
35 36 37 39 40 41 42 43 44 44 45 46 47 47 48 48 48 49 50 50 51 51 52 52 53 53 53 53 52 52 51 51 50 49 47 47 46 46 46 46 46 44 43 43 43 43 42 42 43 42 42 43
36 37 39 40 41 42 43 44 44 45 46 47 47 47 47 48 48 48 49 50 50 51 51 51 51 51 51 51 51 50 50 50 49 48 47 46 46 46 46 47 47 46 44 44 44 44 43 43 43 43 43 43

ECMWFFLT2_700_spd_081.txt.gz
Wind_Speed
29 29 29 29 29 28 27 26 25 24 22 21 20 20 19 19 20 20 20 20 20 20 20 20 20 20 20 20 20 20 20 20 20 20 20 20 20 20 20 20 19 19 18 18 18 19 20 21 23 24 25 26
30 30 30 29 29 28 27 25 24 22 21 20 19 19 19 19 20 20 20 20 20 20 20 20 20 20 20 20 20 21 21 20 20 19 19 19 19 19 19 19 19 19 18 18 18 18 19 20 22 23 25 26
30 30 30 29 28 27 26 25 23 22 21 20 19 19 19 20 20 20 20 20 20 20 20 20 20 21 21 21 21 21 21 21 21 20 20 20 20 20 20 20 20 20 19 19 19 19 20 20 21 22 24 26
31 30 30 29 28 27 26 24 23 22 21 20 20 20 20 20 21 21 21 21 21 21 22 22 22 22 22 22 22 22 23 22 22 21 22 21 21 21 21 21 21 22 22 22 22 22 22 22 23 23 24 25
31 30 29 28 28 27 25 24 23 22 21 20 20 20 20 21 22 22 23 23 23 23 23 23 23 24 24 24 24 24 24 23 23 23 23 23 23 23 23 23 23 24 24 25 25 25 25 25 25 26 26 26
30 30 29 28 27 26 25 24 23 22 21 21 21 21 22 23 24 24 25 24 25 25 24 24 24 25 25 25 25 25 25 24 24 24 25 25 25 25 25 26 26 26 26 27 27 27 27 28 28 28 28 29
30 30 29 28 27 26 25 24 23 23 23 23 23 24 25 26 26 26 26 25 26 26 26 26 25 26 26 26 26 26 26 26 26 26 26 27 27 27 27 28 28 28 28 28 29 29 29 29 29 29 29 30
30 30 29 27 27 26 26 25 25 24 24 25 25 26 26 27 26 26 27 26 26 27 27 27 27 27 28 28 28 28 28 27 27 28 28 29 29 29 29 30 30 30 30 30 30 30 31 31 30 30 30 31
30 29 28 28 27 27 27 26 25 26 26 26 26 27 27 27 27 27 27 27 27 28 28 28 28 29 29 30 29 29 29 29 29 30 30 30 31 31 31 31 31 32 32 32 33 33 33 33 33 33 33 33
30 29 29 29 28 28 27 26 26 27 27 27 27 27 27 27 27 27 28 28 28 28 29 29 30 30 31 31 31 31 31 31 31 31 32 32 32 32 32 32 32 33 33 34 35 35 36 36 36 37 37 37
31 30 30 29 29 29 28 28 28 28 28 28 27 27 27 27 28 28 29 29 29 30 30 31 31 32 32 32 32 33 33 33 33 33 33 33 32 32 32 33 33 33 34 35 36 37 38 38 38 39 39 39
32 31 31 30 30 29 28 29 29 29 29 29 28 28 27 28 29 29 30 31 31 31 32 32 32 32 33 33 34 34 34 34 34 34 34 33 33 33 33 33 33 34 34 35 36 37 38 38 39 39 39 40
33 32 32 31 30 29 29 29 29 30 30 30 30 29 29 29 30 31 32 32 32 33 33 33 33 33 34 34 35 35 35 35 34 34 35 34 34 33 33 34 34 34 34 35 35 36 36 37 38 39 39 39
34 33 32 32 31 30 30 31 31 31 32 32 32 31 31 31 32 32 33 33 33 34 34 34 34 34 35 35 36 36 35 35 35 35 35 35 34 34 34 34 34 34 34 34 34 34 35 36 37 38 39 39
34 34 33 32 32 32 32 32 32 33 33 34 33 33 33 32 33 33 34 34 34 34 34 34 34 35 35 36 36 36 36 36 36 36 36 36 35 35 35 35 35 35 35 35 35 35 35 35 36 38 38 39
35 35 34 34 34 34 34 34 34 34 34 34 34 34 34 34 34 34 34 34 34 34 34 34 35 35 35 36 37 37 37 37 37 37 37 36 36 35 35 35 35 36 36 36 37 37 37 37 38 38 38 38
36 35 35 35 34 34 34 34 34 34 34 35 35 34 34 34 34 35 35 35 35 35 35 35 35 35 36 36 37 37 37 38 37 37 37 37 37 37 36 36 36 37 37 37 38 39 39 39 40 40 39 39
35 35 35 34 34 34 34 34 34 34 34 34 35 35 35 35 35 35 35 35 35 35 35 35 35 36 36 37 37 37 38 38 38 38 38 38 38 38 38 38 38 38 38 39 39 40 41 41 41 41 41 41
34 34 34 34 34 34 34 34 34 34 34 34 35 35 35 35 36 36 36 35 35 35 36 36 36 37 37 38 37 38 38 39 39 39 40 40 40 40 40 40 40 40 40 40 41 42 42 42 43 43 43 43
33 33 33 33 33 33 34 34 34 34 34 35 35 36 36 36 36 37 36 36 36 36 37 37 37 38 38 38 38 39 39 40 40 41 41 42 42 42 42 42 42 42 42 42 42 43 43 43 44 45 45 45
32 32 33 33 33 34 34 34 34 34 35 35 36 36 36 36 37 37 37 37 37 37 37 38 38 39 39 39 39 40 41 41 42 43 43 44 44 44 44 44 44 43 43 44 44 44 45 45 45 46 47 46
32 32 33 33 34 34 34 34 34 35 35 36 36 36 37 37 38 38 38 38 38 38 39 39 39 40 40 41 41 42 43 43 44 45 45 46 46 46 46 45 45 45 45 45 46 46 46 46 47 47 47 47
32 32 33 33 34 34 34 35 35 36 36 36 37 38 38 38 39 39 39 39 39 39 40 40 41 42 42 43 44 44 45 46 46 47 47 48 48 47 46 46 47 47 47 47 47 47 47 48 47 47 47 47
32 32 33 33 34 34 35 36 36 37 38 38 38 39 39 39 39 39 39 40 40 40 41 42 43 43 44 45 46 47 48 48 49 49 50 49 49 48 47 48 48 48 49 49 48 48 49 49 48 47 46 45
32 33 33 33 34 35 36 37 38 38 38 39 38 39 40 39 39 40 40 41 41 42 43 44 45 46 47 48 49 50 51 51 52 52 51 50 49 49 49 49 49 50 51 51 50 50 50 49 48 47 46 45
33 33 34 35 35 36 37 38 39 40 40 41 40 41 42 42 42 43 43 44 44 45 46 47 48 49 50 51 52 53 53 53 53 53 52 51 51 51 51 51 51 52 52 53 52 51 51 50 49 47 47 47
34 34 35 36 36 37 38 39 40 41 42 43 43 43 44 45 45 46 46 47 48 49 49 50 51 52 53 54 54 55 54 54 54 53 53 53 52 52 52 53 53 53 53 54 53 52 52 51 49 48 47 47
34 35 36 37 37 38 39 41 42 43 43 44 45 45 46 47 48 49 49 50 51 51 52 52 53 54 54 54 55 55 54 54 54 53 53 53 53 54 54 54 54 54 54 54 54 53 52 51 50 49 47 47
35 36 37 38 38 39 40 41 42 43 44 44 45 45 46 47 48 49 49 50 50 51 51 52 52 53 53 53 53 53 54 54 54 54 54 54 55 55 55 55 55 55 54 54 53 53 52 51 50 49 48 48
37 38 39 39 39 40 40 40 41 42 42 43 43 44 44 45 45 46 47 47 48 48 49 49 50 50 51 51 52 52 53 53 54 54 55 55 55 55 55 55 56 55 54 54 53 53 52 51 50 50 49 49
39 39 40 40 41 41 41 42 42 42 42 43 43 43 43 44 44 44 45 46 47 47 48 48 49 49 50 51 51 52 53 53 54 54 55 55 55 55 55 55 55 55 54 53 53 52 52 52 51 51 50 49

ECMWFFLT2_700_spd_087.txt.gz
Wind_Speed
25 25 25 25 25 25 25 24 23 24 23 23 22 22 22 23 23 23 24 24 25 25 26 26 25 25 25 25 25 24 23 23 24 24 24 24 24 24 24 24 24 24 24 24 24 23 23 22 22 22 22 22
25 24 25 25 25 24 24 24 24 24 24 23 23 23 23 24 24 24 24 25 26 26 26 26 26 25 25 26 26 25 24 25 25 25 25 25 25 25 25 25 24 24 24 24 24 23 23 23 23 23 23 23
25 25 25 25 25 24 24 24 24 24 23 23 23 24 24 25 25 25 24 25 26 27 27 27 26 26 26 27 27 26 26 26 26 26 26 26 26 26 26 26 25 25 25 25 25 24 24 24 24 24 24 24
26 26 26 26 25 25 25 25 25 24 24 24 24 24 25 26 25 24 24 25 27 28 27 27 27 27 27 27 27 27 27 27 27 27 27 27 27 27 26 26 26 26 26 26 26 26 25 24 24 24 24 24
27 27 27 26 27 27 27 26 25 25 25 25 25 25 26 26 25 25 25 26 27 28 28 28 28 28 28 28 28 29 29 29 29 29 29 28 28 28 27 27 27 27 27 27 27 26 26 26 25 25 25 25
28 28 28 28 28 28 27 27 26 26 26 26 25 26 27 27 26 26 26 26 27 28 28 29 29 29 29 29 29 30 30 30 30 30 30 30 29 29 29 29 28 28 28 28 28 27 27 27 27 27 26 26
29 29 29 29 29 28 28 28 28 28 27 26 26 27 28 27 27 28 27 27 28 28 29 30 30 31 31 30 31 31 32 32 32 32 32 32 31 31 30 30 30 30 29 29 29 28 28 28 28 28 28 27
29 29 29 29 30 30 30 29 30 29 28 27 28 27 27 27 28 28 29 29 29 29 29 30 31 31 32 32 33 33 34 34 34 34 34 33 33 32 32 32 31 31 30 30 29 29 29 29 29 29 29 29
29 30 31 31 31 31 31 31 31 30 29 28 28 27 27 28 29 29 30 30 29 29 29 30 31 32 33 35 35 35 36 36 36 36 35 35 34 34 34 33 33 32 32 31 31 30 29 29 29 29 30 30
31 31 33 33 32 32 32 32 32 31 29 28 27 27 29 30 31 30 31 31 30 30 30 31 32 33 35 36 37 37 37 37 37 37 36 36 35 35 35 34 34 33 33 32 32 32 31 31 30 30 30 30
34 34 34 34 34 34 34 34 33 32 30 29 28 29 31 32 32 32 32 32 32 31 31 32 33 34 36 37 38 38 39 39 38 38 37 37 37 36 36 35 35 35 34 33 33 33 32 32 32 31 31 30
36 36 35 35 36 36 35 35 35 34 33 31 31 32 33 33 34 33 33 33 33 33 32 33 33 34 36 37 38 39 40 40 39 38 37 37 38 38 37 37 37 36 36 35 35 34 33 32 32 32 31 31
38 38 37 37 37 37 37 37 37 36 36 35 34 34 34 35 35 35 34 34 34 34 34 34 34 35 36 38 39 40 41 41 39 39 38 39 39 38 38 38 38 38 37 36 36 35 34 33 32 31 31 31
40 40 39 38 38 38 39 39 39 39 38 38 37 36 36 36 36 36 36 36 36 36 36 36 36 36 37 38 39 40 40 40 40 39 40 40 40 39 39 39 38 38 38 37 37 36 35 34 33 32 32 31
41 41 40 40 40 40 40 40 41 41 41 40 39 39 38 38 37 37 37 37 38 38 38 38 37 38 38 39 39 40 40 40 40 40 40 40 40 40 40 39 38 39 38 38 37 37 36 35 35 34 33 32
42 42 42 42 42 42 42 42 42 43 43 41 40 40 40 40 39 39 39 39 39 39 39 39 39 39 39 39 39 39 39 40 40 40 40 40 40 40 40 39 39 38 39 38 38 37 37 36 36 35 34 34
41 42 42 43 43 43 43 43 43 44 44 44 42 41 41 41 41 40 39 39 39 40 40 39 39 39 39 39 39 39 39 40 40 41 41 40 41 41 40 39 39 39 39 39 38 38 38 38 37 36 36 35
39 40 41 42 42 42 42 42 43 44 44 44 43 42 41 41 41 40 40 40 39 39 40 40 39 39 40 40 39 39 39 40 40 41 41 41 41 41 40 39 39 40 40 40 40 39 39 39 39 38 37 36
38 39 39 40 41 41 41 41 42 43 43 43 42 42 42 42 41 41 40 40 39 39 39 40 40 40 40 40 40 39 40 40 41 41 41 41 41 41 40 41 41 41 41 41 41 41 40 40 40 39 38 38
37 37 38 39 39 40 40 41 42 42 43 42 41 41 41 42 41 41 41 41 41 40 40 40 40 41 41 41 41 40 40 40 41 42 42 42 42 42 42 42 42 42 42 42 42 42 42 42 41 40 40 39
36 36 37 38 38 39 40 40 42 42 42 41 41 41 41 42 42 41 41 42 42 42 41 41 42 42 42 43 42 42 41 42 42 43 43 43 43 44 44 43 43 43 43 43 43 43 43 43 43 42 42 41
35 36 37 37 38 38 39 40 41 42 42 42 41 42 42 43 43 42 42 43 43 43 43 43 44 44 44 44 44 44 44 44 44 45 45 45 45 45 45 45 45 45 45 45 45 45 45 45 45 44 44 43
34 35 36 37 37 38 38 39 40 42 43 43 43 43 44 44 44 44 44 44 45 45 46 46 46 46 46 46 46 46 46 46 46 47 47 47 47 47 47 47 47 47 47 48 48 48 48 47 47 46 46 45
34 34 35 36 37 37 37 38 39 41 43 44 44 45 45 46 47 47 47 47 48 48 49 49 49 49 50 50 50 50 50 49 49 49 49 50 50 50 49 49 49 50 50 51 51 51 50 50 49 49 48 48
35 36 36 37 38 38 39 40 41 42 43 44 45 45 46 47 47 48 48 48 49 49 49 50 50 51 52 52 53 54 54 54 53 53 53 53 53 53 52 51 51 52 53 54 54 54 53 52 52 52 51 50
37 38 39 40 41 41 42 43 44 44 45 45 45 46 46 46 46 47 47 47 47 47 47 48 48 48 49 50 52 53 55 55 56 56 57 57 57 57 57 56 56 56 57 58 58 58 57 56 55 54 53 52
39 40 41 42 42 43 43 44 45 46 46 46 47 47 47 47 48 48 47 47 47 47 47 47 46 46 46 47 49 50 51 52 53 55 56 57 58 59 59 59 59 59 60 61 62 62 62 61 59 56 54 53
42 43 44 45 46 47 47 48 49 49 50 50 50 50 50 50 51 51 50 50 50 49 49 49 48 47 47 47 48 48 49 49 50 51 52 53 55 56 57 58 58 58 58 60 61 63 63 62 61 58 55 52
46 47 49 50 51 51 52 53 53 53 53 53 53 53 52 52 52 52 52 52 52 52 52 51 50 49 49 49 49 49 50 50 50 51 51 51 52 52 54 54 54 54 53 54 55 57 59 59 58 57 55 53
49 51 52 53 53 53 54 54 54 54 54 54 54 54 53 53 52 52 52 52 52 53 53 53 52 51 51 51 51 51 51 51 52 52 52 52 52 52 53 53 53 52 51 51 51 52 54 55 56 56 55 55
49 49 50 50 51 51 51 52 52 52 52 52 52 52 51 51 51 51 51 51 52 52 53 53 53 53 53 52 52 52 52 53 53 53 53 53 53 53 54 54 54 54 52 51 50 50 52 53 54 55 55 55

ECMWFFLT2_700_spd_090.txt.gz
Wind_Speed
25 25 25 25 25 24 24 23 23 24 24 24 25 25 25 25 25 25 25 26 26 26 26 26 26 26 26 26 26 26 25 25 25 25 25 25 25 25 25 25 26 26 26 25 25 24 24 24 23 22 22 21
25 25 26 26 26 26 25 25 25 25 25 25 25 26 26 26 25 26 26 27 27 27 27 27 27 27 27 27 27 27 26 26 27 27 26 26 26 26 26 26 27 27 27 27 27 26 26 26 25 24 24 23
25 26 26 26 27 27 27 27 27 27 27 27 27 28 28 26 26 26 27 28 28 28 28 27 27 27 27 27 28 28 27 27 28 28 28 28 28 28 28 28 28 28 28 28 28 28 28 27 27 26 26 25
25 26 26 26 27 27 27 27 28 28 28 28 29 29 28 27 28 27 28 29 29 29 29 28 28 27 27 28 28 29 29 29 29 29 29 29 30 30 30 30 30 30 30 30 30 30 30 29 29 28 28 27
26 27 27 27 27 27 27 27 28 29 29 29 29 30 29 29 29 29 29 29 29 29 29 28 28 28 28 29 29 29 30 30 30 30 30 31 31 31 31 32 32 32 32 32 32 31 31 31 31 31 30 29
28 28 28 28 28 28 28 28 29 29 29 29 29 30 30 30 30 29 30 30 30 29 28 28 29 29 29 30 30 31 31 31 32 32 32 32 33 33 33 34 34 34 34 34 34 33 33 33 32 32 32 32
29 29 29 29 29 30 30 30 30 29 29 29 30 30 31 31 31 30 31 31 30 29 29 29 30 31 31 31 32 32 32 33 33 33 34 34 34 35 35 35 36 36 36 36 36 35 35 35 34 33 33 32
29 30 30 30 30 31 32 32 32 32 31 31 31 31 32 32 32 32 32 32 32 31 31 30 31 31 32 33 33 34 34 34 34 35 35 35 36 36 36 37 37 37 37 37 37 37 37 37 36 36 35 34
31 31 31 32 32 32 33 34 34 34 34 34 34 34 34 34 34 34 34 34 34 33 33 32 32 32 33 34 35 35 35 35 36 36 36 37 37 38 38 38 38 38 38 38 38 38 38 38 38 37 37 36
33 33 34 34 34 34 35 36 36 36 36 35 35 35 35 35 35 36 36 35 35 34 34 33 33 33 33 34 35 36 36 37 37 37 38 38 38 39 40 40 40 40 39 39 39 39 39 39 39 39 38 38
36 36 36 37 37 37 38 38 38 38 37 37 37 37 37 37 37 37 37 37 36 36 35 35 34 34 34 35 35 36 37 37 38 39 39 40 40 41 42 42 42 41 41 41 41 41 40 40 40 40 40 39
39 39 39 39 40 40 40 40 40 40 39 39 38 39 39 39 39 39 39 38 38 37 37 36 36 36 36 36 36 37 38 38 39 40 41 42 42 43 43 44 44 44 43 43 43 42 42 42 42 42 41 41
41 41 41 41 42 42 42 42 42 42 41 41 41 41 41 41 41 41 40 40 39 39 38 38 38 37 37 37 38 38 39 39 40 41 42 43 44 45 45 46 46 46 45 45 45 44 44 44 44 43 43 43
41 42 42 42 43 43 43 43 43 43 43 43 43 43 43 43 43 43 42 42 42 41 41 40 39 39 38 38 39 39 40 41 41 42 43 45 46 46 47 47 47 47 47 46 46 46 46 45 45 44 44 44
41 42 42 42 43 43 43 43 43 43 43 44 44 45 45 45 45 45 44 44 44 43 43 42 42 41 40 40 40 41 41 42 42 43 44 45 46 47 48 48 48 48 48 47 47 47 47 47 47 46 45 45
41 41 42 42 42 43 43 43 44 44 44 44 45 45 45 46 46 46 46 46 46 45 45 44 44 43 42 41 41 41 42 42 42 43 44 45 47 47 48 48 49 49 49 49 48 48 48 48 48 47 47 46
40 40 41 41 41 41 42 43 43 44 44 45 45 46 46 47 47 48 48 48 47 47 46 45 45 45 44 43 43 42 42 42 42 42 43 44 45 47 47 48 48 49 49 49 49 48 48 48 48 48 47 47
38 39 39 40 40 41 42 42 43 44 44 45 45 46 47 47 47 47 48 48 48 47 47 46 46 45 45 44 44 43 43 43 43 42 43 43 44 45 46 47 48 48 49 49 49 48 48 48 47 47 47 46
37 38 38 39 40 41 42 42 43 44 44 45 45 45 46 46 46 47 47 48 47 47 47 47 46 46 45 45 44 44 44 44 44 44 44 44 44 45 45 46 47 48 49 49 49 48 48 48 48 47 47 47
37 38 39 39 40 41 42 43 43 44 44 45 45 45 45 45 46 46 46 47 47 46 47 47 47 47 46 46 45 45 45 45 45 45 45 46 46 46 46 46 47 48 48 49 49 48 48 48 48 48 48 48
36 38 39 40 41 42 43 44 45 45 45 46 46 47 47 47 47 46 46 46 46 46 47 47 48 48 48 48 47 47 46 47 47 47 47 47 47 48 48 48 48 48 49 49 49 49 49 49 49 49 49 48
35 36 38 40 41 42 44 45 46 47 47 48 48 49 49 49 49 49 49 48 48 48 48 48 49 49 49 49 49 49 49 49 49 49 49 48 48 50 50 50 50 50 50 50 50 50 50 50 50 50 49 49
35 36 38 39 41 42 44 45 47 48 49 49 50 50 51 51 51 51 51 51 50 50 50 50 49 49 49 50 50 50 50 50 50 51 51 51 51 51 52 53 53 53 53 53 53 52 52 51 51 51 50 50
36 37 38 39 41 42 44 45 46 47 49 50 50 50 51 52 52 52 51 51 51 50 50 50 50 49 49 49 49 50 50 50 50 51 51 52 52 52 53 54 55 56 56 56 56 55 55 54 53 53 52 52
37 38 39 41 42 43 44 45 46 47 48 50 50 50 51 52 52 53 53 52 52 52 51 51 50 50 49 49 49 50 50 50 50 50 50 50 51 52 52 53 55 57 58 59 58 58 58 57 56 56 55 55
38 40 42 43 44 46 46 48 49 50 51 52 53 54 54 55 55 56 56 56 56 55 55 54 53 53 52 52 52 52 51 51 51 51 50 50 50 51 51 52 53 55 57 59 59 60 60 59 59 58 58 58
41 43 45 47 48 50 51 52 53 53 54 55 55 56 57 57 57 58 58 58 58 57 57 57 56 56 55 55 55 54 54 54 53 53 52 52 52 51 51 51 52 53 54 56 57 59 60 60 60 60 60 60
46 48 50 51 52 53 53 53 54 54 54 54 54 55 55 55 56 56 57 57 57 57 57 57 57 56 56 56 56 56 56 56 56 56 55 55 54 53 53 52 52 53 54 55 55 57 58 58 59 59 59 60
48 50 50 50 51 51 51 51 52 52 52 52 52 52 52 52 52 53 53 53 54 54 54 55 55 55 55 55 55 56 56 56 57 57 57 57 57 56 56 55 54 54 55 56 56 57 57 57 58 58 58 58
48 48 49 49 49 49 49 50 50 51 51 51 50 50 49 49 49 50 50 51 51 51 51 51 51 51 51 52 52 53 54 55 56 56 57 57 58 58 58 58 57 57 56 56 56 57 58 58 59 58 57 58
47 48 48 48 48 48 48 48 48 49 49 49 49 49 48 47 47 47 48 48 48 49 49 49 49 48 48 48 49 50 51 52 53 54 54 55 56 57 58 58 59 59 58 57 57 56 57 58 59 59 59 59

ECMWFFLT2_700_spd_096.txt.gz
Wind_Speed
25 26 26 26 26 27 27 27 27 27 27 27 27 27 28 28 28 27 27 27 27 26 26 27 28 28 28 28 28 28 28 28 29 28 28 28 28 28 27 27 27 26 26 25 24 24 24 24 24 24 24 24
27 27 27 27 27 27 28 28 28 28 28 28 28 28 28 28 28 28 28 28 28 28 28 28 29 29 29 29 29 28 28 29 29 29 29 29 29 29 28 28 28 28 28 27 26 25 25 25 25 25 25 25
26 26 26 26 26 27 28 28 28 29 29 29 28 28 28 28 28 28 28 28 29 29 29 29 29 29 30 30 30 30 29 29 29 30 30 30 30 30 30 30 30 29 29 29 28 27 27 26 26 26 26 26
23 24 24 24 25 25 26 27 27 28 28 28 28 28 28 28 28 28 28 28 28 28 29 29 29 29 29 30 30 30 30 30 30 31 31 31 31 31 31 31 31 31 30 31 30 30 29 28 28 27 27 27
21 22 22 23 23 24 25 25 26 26 26 26 27 27 27 28 28 28 28 28 28 28 28 28 28 28 29 29 30 30 31 31 32 32 32 32 32 32 32 32 32 32 32 32 32 31 31 31 30 30 29 29
21 22 22 23 23 24 24 25 26 26 26 27 27 27 28 28 29 29 29 29 29 29 28 28 28 28 28 29 29 30 30 31 32 33 34 34 34 33 33 33 33 33 33 33 33 33 33 32 32 32 31 31
21 22 23 23 24 25 25 26 27 28 28 28 29 29 30 30 31 31 31 31 31 31 30 30 30 30 29 30 30 30 31 31 32 33 34 35 35 35 35 35 35 34 34 34 35 35 35 34 34 34 33 33
23 24 24 25 25 26 26 27 28 29 29 30 31 31 32 32 33 33 33 34 34 33 33 33 32 32 32 32 32 32 32 33 33 34 35 36 36 36 37 37 37 36 36 36 36 36 36 36 36 36 35 35
24 24 25 26 26 27 27 28 28 29 30 31 32 32 33 34 34 35 35 35 36 35 35 35 34 34 34 34 34 35 35 35 35 36 36 36 37 37 38 38 38 38 38 38 37 37 37 38 38 38 38 37
23 24 25 25 26 27 27 28 29 30 31 31 32 33 34 35 36 36 37 37 37 37 37 37 37 37 36 36 36 36 37 37 37 38 38 38 38 39 39 39 39 39 39 40 39 39 39 39 39 39 40 39
23 24 25 26 27 28 28 29 30 30 31 32 33 34 34 35 36 37 37 38 38 39 39 39 39 39 39 39 39 39 38 39 39 39 40 40 40 40 40 40 40 40 40 41 41 41 41 41 41 41 41 41
23 24 25 26 27 28 29 29 30 31 31 32 33 34 35 35 36 37 37 38 38 39 39 40 40 40 41 41 41 42 42 41 41 41 41 41 42 42 42 42 42 42 42 42 42 42 42 42 42 42 42 43
22 23 24 25 26 27 28 29 29 30 31 32 33 33 34 35 36 36 37 38 39 39 40 40 40 41 41 42 43 43 44 44 44 44 44 44 43 43 43 44 44 43 43 43 43 43 43 43 43 43 43 44
23 23 24 25 25 26 27 28 29 29 30 31 32 33 33 34 35 36 37 37 38 39 40 41 41 41 42 42 43 43 44 45 45 46 46 46 46 46 45 45 45 45 45 45 45 45 45 44 44 44 44 44
23 24 25 25 26 27 27 28 29 29 30 31 31 32 33 33 34 35 36 37 38 39 40 41 41 42 43 43 43 44 44 44 45 46 47 48 48 48 48 47 47 47 47 46 46 46 46 46 46 45 46 46
24 24 25 26 27 27 28 29 30 30 31 32 32 33 33 34 35 35 36 37 38 39 40 41 42 43 43 44 44 45 45 45 46 46 46 47 48 49 49 49 49 49 49 48 48 48 48 48 47 47 47 47
24 24 25 26 27 28 29 29 30 31 32 32 33 34 35 35 36 36 37 38 39 39 41 41 42 43 44 45 45 46 46 47 47 47 47 47 48 48 49 50 50 50 51 51 50 50 50 49 49 48 48 47
23 24 25 26 27 28 29 30 30 31 32 33 33 34 35 36 36 37 38 39 40 40 41 42 43 44 45 46 46 47 47 48 48 49 49 49 49 49 49 49 49 50 50 51 51 51 51 51 50 50 50 49
24 25 26 26 27 28 29 30 31 32 32 33 34 34 35 36 37 38 39 40 41 42 43 43 44 45 46 47 48 49 49 50 50 50 51 51 51 50 50 50 50 50 50 50 50 51 51 51 51 51 51 51
25 25 26 27 28 29 30 31 32 33 34 35 36 37 38 39 40 41 42 42 43 44 45 46 47 48 48 49 50 51 52 52 53 53 53 54 54 53 53 52 52 52 51 51 50 50 50 51 51 52 52 52
26 27 28 29 30 31 32 34 35 36 37 38 38 39 40 41 42 43 44 45 46 46 47 48 49 50 50 51 52 53 54 55 56 56 57 57 57 57 56 56 55 55 54 54 52 51 50 50 50 51 52 53
27 28 30 31 32 33 34 35 36 37 38 39 40 41 42 42 43 44 45 46 47 48 49 50 50 51 52 53 53 54 55 56 57 58 59 59 60 60 60 59 59 58 58 57 56 54 53 51 51 50 50 52
28 29 30 31 33 34 35 36 37 38 39 40 41 41 42 43 44 45 46 46 47 48 49 50 50 51 52 53 54 55 55 56 58 59 60 61 61 61 61 62 62 62 61 60 59 58 56 55 54 52 51 51
28 29 31 32 33 34 35 37 38 39 39 40 41 42 42 43 44 45 46 46 47 48 49 49 50 51 52 53 54 55 56 57 58 59 60 60 61 62 62 62 62 63 63 63 62 61 60 59 58 56 55 54
30 31 32 33 34 35 36 37 38 39 40 41 42 42 43 44 44 45 46 47 47 48 49 49 50 51 52 53 54 55 56 57 58 59 60 61 61 62 62 62 62 63 63 64 63 62 61 60 60 60 59 58
31 32 33 34 34 35 36 37 38 39 40 41 42 43 43 44 45 46 46 47 48 48 49 50 50 51 52 52 53 54 55 56 57 59 60 61 61 62 62 62 62 62 63 63 63 63 62 60 60 61 60 60
33 33 34 35 36 36 37 39 39 40 41 42 42 43 44 45 45 46 47 48 48 49 50 50 50 51 51 52 53 53 54 55 56 57 58 59 60 61 61 61 60 61 61 62 62 62 63 62 61 61 60 60
34 35 36 36 37 38 39 40 41 42 42 43 43 44 44 45 46 46 47 48 49 49 50 51 51 51 51 52 52 53 54 54 55 56 57 57 58 59 59 59 58 58 58 59 60 60 61 61 61 61 61 60
35 36 37 38 38 39 40 41 42 43 43 43 44 44 45 46 47 47 48 48 49 50 50 51 51 51 51 52 52 53 53 54 54 55 56 56 57 57 58 58 57 57 56 56 57 58 58 59 60 60 60 60
37 37 38 39 39 40 41 42 43 44 44 44 44 45 46 48 49 49 49 49 49 50 51 51 52 52 52 52 52 53 53 54 54 55 55 55 56 56 56 57 56 56 55 55 55 56 56 57 58 59 58 59
38 39 39 40 40 41 42 43 44 44 44 45 46 46 48 49 50 50 50 51 50 50 51 51 52 52 52 52 52 53 53 54 54 55 55 55 55 55 56 56 56 56 55 54 54 55 55 55 56 57 57 58

ECMWFFLT2_700_spd_099.txt.gz
Wind_Speed
17 18 19 19 19 20 20 21 21 21 22 23 23 24 24 24 24 24 24 24 24 24 25 25 25 25 25 25 25 26 26 26 26 27 27 26 25 24 24 25 25 25 26 26 27 27 27 28 28 28 28 27
19 20 21 21 22 22 22 23 23 24 24 24 25 25 25 25 25 25 25 25 25 25 25 26 26 27 27 27 27 27 28 28 28 28 28 28 27 26 25 25 25 26 26 26 27 27 28 28 29 29 29 29
21 22 23 24 24 25 25 26 26 26 26 26 27 27 27 27 27 27 26 26 26 26 26 27 27 27 28 28 28 28 28 29 29 29 29 29 29 28 27 26 26 26 27 27 27 28 28 29 29 30 30 30
22 23 24 24 25 26 26 27 27 27 28 28 28 28 28 28 28 28 27 27 27 27 27 27 28 28 28 28 28 29 29 29 30 30 30 30 31 30 30 29 28 28 28 28 28 28 29 29 30 30 30 31
22 23 23 24 24 25 26 26 27 27 28 28 28 29 29 29 29 29 28 29 29 29 29 29 29 29 29 29 29 29 30 30 30 31 31 31 31 32 32 31 31 31 30 30 30 30 30 30 30 31 31 31
22 23 23 24 24 25 26 26 27 28 28 28 29 29 29 29 29 30 30 30 30 30 31 31 31 31 31 31 30 31 31 31 31 32 32 32 32 33 33 33 33 33 32 32 32 32 32 32 32 32 32 32
21 22 23 23 24 24 25 26 26 27 27 28 28 28 29 29 29 30 30 30 30 31 31 32 32 32 33 33 33 33 33 33 33 33 34 34 34 34 35 35 35 34 34 34 34 34 34 34 34 34 34 34
20 20 21 22 23 23 24 24 25 25 25 26 26 26 27 27 28 28 28 29 29 30 30 31 32 32 33 34 34 35 35 35 36 36 36 36 36 36 36 37 37 37 37 36 36 36 35 35 35 35 35 35
20 20 21 21 22 22 23 23 23 24 24 24 25 25 26 26 26 27 27 27 28 28 29 30 30 31 31 32 33 34 35 35 36 37 37 38 39 39 39 38 38 39 39 39 39 38 38 37 37 37 37 37
19 19 19 19 19 20 20 20 21 21 22 22 23 24 24 25 25 26 26 26 27 27 28 28 29 30 30 31 32 32 33 34 34 35 36 37 38 39 40 41 41 40 40 40 41 41 41 40 39 39 39 39
17 17 18 18 18 19 19 19 20 20 21 22 22 23 23 24 25 25 26 26 26 27 27 28 28 29 29 30 31 32 32 33 34 34 35 36 37 38 39 40 41 42 42 42 42 42 42 43 42 42 41 41
17 18 18 19 19 20 20 20 21 21 22 22 23 23 24 24 25 26 26 27 27 28 28 28 29 29 30 30 31 32 32 33 33 34 35 35 36 37 38 39 40 41 42 43 44 44 44 44 44 44 44 44
19 19 20 20 20 21 21 21 21 22 22 23 23 24 24 25 26 26 27 28 28 29 29 30 30 30 31 31 31 32 33 33 34 34 35 36 36 37 38 38 39 40 41 42 43 45 45 45 46 46 46 46
19 20 20 21 21 21 21 22 22 22 23 23 23 24 24 25 26 27 27 28 29 29 30 31 31 32 32 32 33 33 34 34 35 35 36 36 37 38 38 39 40 40 41 41 43 44 45 46 47 47 48 48
20 20 21 21 22 22 22 23 23 23 23 23 24 24 25 25 26 27 27 28 29 30 30 31 32 33 33 33 34 34 35 35 36 36 37 37 38 39 39 40 40 41 41 42 43 44 45 45 46 48 49 49
20 21 21 22 22 22 23 23 24 24 24 25 25 25 26 26 27 27 28 28 29 30 31 31 32 32 33 34 34 35 35 36 36 37 37 38 39 39 40 41 41 42 43 43 44 44 45 46 46 48 49 49
21 21 22 22 23 23 23 24 24 24 25 25 26 26 27 27 27 28 28 29 30 30 31 32 32 33 34 34 35 36 36 37 37 38 38 39 39 40 40 41 41 42 43 44 44 45 46 47 47 48 49 50
22 22 23 23 24 24 24 24 24 25 25 26 26 27 27 28 28 29 30 31 31 32 33 33 34 35 35 36 36 37 38 38 39 39 40 40 40 41 41 42 42 42 43 44 44 45 46 47 48 49 49 50
23 23 24 24 24 25 25 25 25 25 26 26 27 28 28 29 30 31 31 32 33 34 35 35 36 37 37 38 38 39 39 40 40 41 41 42 42 42 43 43 44 44 44 44 45 46 46 47 48 49 50 51
24 25 25 25 26 26 26 26 26 26 27 27 28 29 29 30 31 32 33 34 34 35 36 37 38 38 39 39 40 40 41 41 42 42 43 43 43 44 44 44 45 45 45 46 46 47 48 48 49 49 50 51
26 26 27 27 27 28 28 28 28 28 29 29 29 30 30 31 32 33 34 35 36 37 38 38 39 40 40 41 41 42 42 42 43 43 44 44 45 45 45 46 46 46 46 47 47 47 48 49 50 51 51 52
28 28 29 30 30 31 31 31 31 31 31 31 31 31 32 32 33 34 35 36 37 38 39 39 40 41 41 42 42 43 43 44 44 45 45 45 46 46 47 47 48 48 48 48 48 48 49 50 51 52 53 53
30 31 31 32 32 33 33 33 33 33 33 33 33 33 34 34 35 36 37 38 39 39 40 41 41 42 42 43 43 44 44 45 45 46 46 47 47 47 48 49 49 50 50 50 50 50 50 50 51 52 53 54
31 32 32 33 33 34 34 34 34 34 35 35 35 35 35 35 36 37 38 39 40 40 41 42 42 43 44 44 45 45 45 46 46 47 47 48 48 49 49 50 51 51 52 52 52 51 51 52 52 52 53 54
33 33 34 34 34 35 35 35 35 35 36 36 36 36 36 36 37 37 38 39 40 41 42 43 43 44 45 45 46 46 47 47 48 48 49 49 49 50 50 51 51 52 53 54 54 54 52 52 52 53 53 54
34 34 35 35 35 36 36 36 36 37 37 37 37 38 38 38 38 38 39 40 41 42 42 43 44 44 45 46 46 47 48 48 49 49 50 50 50 51 51 52 53 53 54 55 56 57 56 54 53 53 53 54
34 34 35 35 36 36 37 37 37 38 39 39 39 40 40 39 40 40 40 41 41 42 42 43 44 45 45 46 47 47 48 49 49 50 50 51 51 51 52 52 53 54 55 56 57 58 58 58 56 55 53 52
34 35 35 36 36 37 37 38 38 39 40 40 41 41 41 41 41 41 41 42 42 43 43 44 44 45 46 46 47 48 48 49 49 50 50 51 51 52 52 53 53 54 55 56 57 58 58 59 59 58 56 53
35 35 36 36 37 38 38 39 39 40 41 41 42 42 42 42 42 42 42 42 43 43 44 44 45 46 46 47 48 48 49 49 50 50 50 51 51 52 53 53 53 53 54 55 56 57 58 59 59 60 59 57
35 36 36 37 37 38 39 39 40 41 42 42 42 43 43 43 43 43 42 42 43 43 44 45 46 47 48 48 49 49 50 50 51 51 51 52 52 52 53 53 53 54 54 54 55 56 56 57 59 60 59 59
36 36 37 37 38 39 39 40 41 42 43 43 43 43 44 44 44 44 43 43 43 44 45 46 47 48 49 49 49 50 50 51 51 52 52 52 53 53 53 53 54 54 54 53 54 54 55 56 57 59 59 59

ECMWFFLT2_700_spd_102.txt.gz
Wind_Speed
22 23 24 24 25 25 26 26 26 26 27 27 27 27 27 27 27 27 27 27 27 28 28 28 28 28 27 28 27 27 28 28 27 27 27 27 27 26 26 27 27 28 28 28 28 28 29 29 29 29 29 30
23 24 25 26 26 27 27 27 26 27 27 27 27 27 27 28 28 28 28 28 28 28 28 29 29 29 29 29 29 29 29 29 29 28 28 28 28 28 28 27 28 28 29 29 29 29 29 29 29 30 30 31
24 25 25 25 26 26 26 26 26 26 26 26 26 27 27 27 27 27 27 28 28 28 28 28 29 29 29 30 30 30 30 30 30 29 29 29 30 30 29 29 29 29 29 29 30 30 30 30 30 30 31 32
23 24 24 24 24 25 25 25 26 26 26 26 27 27 27 27 27 27 27 27 27 27 28 28 28 28 29 29 30 30 31 31 31 31 30 30 30 31 31 31 30 30 30 30 30 31 31 31 31 31 32 32
22 23 23 23 24 24 25 25 25 26 26 26 26 27 27 27 27 27 27 27 27 27 27 28 28 28 28 29 29 30 30 30 31 31 31 31 31 31 32 32 32 32 31 31 31 31 32 32 32 32 33 33
22 22 22 23 23 23 24 24 24 24 25 25 25 25 25 25 26 26 26 26 26 26 26 27 27 27 28 28 28 29 29 30 30 30 31 31 31 31 31 32 32 32 33 33 33 33 33 33 33 33 34 34
21 21 22 22 22 23 23 23 24 24 24 24 24 24 24 24 23 23 23 24 24 24 25 25 26 26 26 27 27 28 28 29 29 29 30 30 30 31 31 31 32 32 32 33 33 33 33 34 34 34 35 35
21 21 22 22 22 22 22 22 22 22 22 22 22 22 22 22 21 21 21 21 22 22 23 23 24 24 25 25 26 27 27 28 28 29 29 30 30 30 31 31 31 32 32 32 33 33 33 34 34 35 36 36
20 20 20 20 20 20 20 20 20 21 21 21 21 21 21 21 21 21 21 21 22 22 22 22 23 23 24 24 25 25 26 26 27 28 28 29 29 30 30 30 31 31 32 32 33 33 33 33 34 34 35 36
18 18 18 18 19 19 19 20 20 20 21 21 21 21 21 21 21 21 22 22 22 22 22 23 23 23 24 24 25 25 26 26 26 27 27 28 28 29 29 30 30 30 31 31 32 32 33 33 34 34 35 36
17 17 18 18 19 19 19 19 19 20 20 20 20 20 21 21 21 22 22 22 22 22 22 23 23 23 24 24 25 26 26 26 27 27 27 28 28 28 29 29 29 30 30 31 31 32 32 33 33 34 35 35
18 18 18 18 19 18 19 19 19 19 19 20 20 20 21 21 22 22 23 23 23 23 24 24 24 24 25 25 26 26 27 27 27 28 28 28 28 29 29 29 30 30 30 31 31 32 32 33 33 33 34 35
19 19 19 19 19 19 19 19 20 20 20 20 21 21 22 22 23 23 24 24 25 25 25 26 26 26 27 27 27 27 28 28 28 29 29 29 29 29 30 30 30 30 31 31 31 32 32 33 33 34 34 35
19 19 19 19 20 20 20 21 21 21 22 22 23 23 23 24 24 25 25 26 26 26 27 27 28 28 28 29 29 30 30 30 30 30 30 30 30 31 31 31 31 31 32 32 32 33 33 33 34 34 35 35
20 20 20 20 21 21 21 22 22 23 23 24 24 24 25 25 26 26 27 27 28 28 28 29 29 29 29 30 30 30 31 31 32 32 32 32 32 32 32 32 32 32 32 33 33 33 34 34 35 35 35 36
21 21 22 22 22 22 23 23 24 24 25 25 25 26 26 26 27 27 28 28 28 29 29 30 30 30 30 31 31 31 31 32 32 32 33 33 33 33 34 34 33 34 34 34 34 34 34 35 35 36 36 37
23 23 23 23 23 24 24 24 25 25 26 27 27 27 27 27 28 28 28 29 29 30 30 30 31 31 31 31 32 32 32 33 33 33 34 34 34 34 35 35 35 35 35 35 35 35 35 36 36 36 37 38
24 24 24 24 25 25 25 26 26 27 27 28 28 28 29 29 29 29 29 30 30 31 31 31 31 32 32 32 32 33 33 34 34 34 35 35 35 36 36 36 36 36 36 37 37 37 37 37 37 37 37 38
25 25 25 26 26 26 27 27 28 28 29 29 30 30 30 30 30 31 31 32 32 32 33 33 33 33 33 33 34 34 34 35 35 35 36 37 37 37 38 38 38 38 38 38 38 38 39 39 39 39 39 39
26 26 26 26 27 27 28 29 29 30 31 31 31 32 32 32 32 33 33 33 33 34 34 34 35 35 35 35 35 35 36 36 36 37 37 38 38 39 39 40 40 40 40 40 39 40 40 40 40 41 41 41
27 27 27 28 28 29 29 30 31 31 32 33 33 34 34 34 34 34 35 35 35 35 36 36 36 36 36 36 37 37 37 38 38 38 39 39 40 40 41 41 42 42 42 41 41 41 41 41 42 42 42 42
27 28 29 29 29 30 31 31 32 33 33 34 35 35 35 36 36 36 36 36 36 37 37 37 37 38 38 38 38 38 39 39 39 40 40 41 41 42 42 43 43 44 43 43 43 42 42 43 43 43 43 43
28 29 29 30 31 31 32 32 33 33 34 35 36 36 36 36 37 37 37 37 38 38 38 38 39 39 39 39 39 39 40 40 40 40 41 42 42 43 44 44 45 45 45 45 45 44 44 44 44 45 45 45
29 29 30 30 31 32 32 33 33 34 35 36 36 36 37 37 37 37 38 38 39 39 40 40 40 41 41 41 41 41 41 41 41 41 42 42 43 44 44 45 46 46 46 46 46 46 46 45 45 45 46 46
29 29 30 31 31 32 32 33 33 34 35 36 36 36 36 37 37 38 38 39 39 40 40 41 42 42 42 42 42 42 42 42 42 42 42 43 44 44 45 45 46 46 47 48 48 48 47 47 47 47 46 46
30 30 31 31 31 32 32 33 33 34 35 35 36 36 36 37 37 38 38 39 39 40 41 42 42 42 43 43 43 43 43 43 43 43 43 43 44 45 46 46 46 46 47 48 49 49 49 49 49 49 49 48
31 31 32 32 32 32 33 33 33 34 35 36 36 36 36 37 37 38 39 39 40 40 41 42 42 43 43 44 44 44 44 43 43 43 43 44 45 46 47 47 47 47 47 48 49 50 50 50 50 50 51 51
32 33 33 33 33 33 34 34 34 35 36 36 37 37 37 38 38 39 39 40 40 41 41 42 42 43 43 44 44 44 44 44 44 44 44 45 45 46 47 48 48 48 48 49 49 50 51 52 52 52 52 53
34 34 34 34 34 35 35 35 36 36 36 37 38 38 38 39 39 40 40 41 41 41 41 42 42 43 43 44 44 44 44 44 44 44 44 45 46 46 47 48 49 49 49 49 49 50 52 52 53 54 54 55
36 36 36 36 36 36 37 37 38 37 38 39 40 40 40 40 41 41 42 42 42 42 42 42 42 43 43 44 44 44 44 44 44 45 45 46 46 47 47 48 49 50 51 51 50 50 51 52 53 55 56 57
37 37 38 37 37 37 38 39 39 38 39 41 41 41 41 42 42 43 43 44 43 43 43 43 43 43 43 44 44 45 45 45 45 45 46 46 47 47 48 48 49 50 51 52 52 52 52 52 53 54 55 56

ECMWFFLT2_700_spd_105.txt.gz
Wind_Speed
22 22 23 23 23 24 24 24 25 24 25 25 25 25 24 25 25 25 26 26 26 26 26 26 26 27 27 27 27 27 28 28 28 28 28 28 28 28 28 28 29 29 28 29 28 28 28 28 29 29 29 29
24 24 24 25 25 25 25 24 24 24 24 24 24 24 24 24 24 25 25 25 25 26 26 26 26 26 27 27 27 27 27 28 28 28 29 29 29 29 29 29 29 29 29 29 29 29 29 29 29 29 30 30
24 24 24 24 24 23 23 23 23 24 24 24 24 24 24 24 24 24 25 25 25 25 25 25 25 26 26 27 27 27 27 27 28 28 29 29 30 30 30 30 30 30 30 30 30 30 30 30 30 30 30 30
23 23 23 22 22 22 22 23 23 23 23 24 24 24 24 24 24 24 25 25 25 25 25 25 25 25 26 26 27 27 27 27 28 28 28 29 29 30 30 30 30 30 30 31 31 31 31 31 30 30 31 31
21 21 21 22 22 22 22 22 22 23 23 23 24 24 24 25 25 25 25 25 25 25 25 26 26 26 26 26 27 27 27 28 28 28 28 29 29 29 30 30 30 30 30 31 31 31 31 31 31 31 31 32
21 21 21 21 21 21 21 21 22 22 23 23 23 24 24 24 24 24 25 24 25 25 25 25 25 25 25 25 26 26 27 27 27 28 28 29 29 29 30 30 30 30 30 31 31 32 32 32 32 32 32 33
21 21 21 21 21 21 21 21 21 21 21 21 22 22 22 23 23 23 24 24 24 24 24 24 24 24 24 25 25 25 25 26 26 26 27 27 28 28 29 29 29 29 30 30 31 32 32 33 33 33 33 33
21 21 21 21 21 21 21 21 20 20 20 20 21 21 21 22 22 23 23 23 23 23 23 24 24 24 24 24 24 24 24 25 25 25 25 26 26 27 27 28 28 29 29 29 29 30 31 32 33 33 34 34
22 21 21 20 20 20 20 20 20 20 20 21 21 21 21 21 21 21 22 22 22 22 22 22 22 22 23 23 23 24 24 24 24 24 24 25 25 25 26 26 27 28 28 29 29 29 30 30 31 32 33 34
20 20 20 19 20 20 20 20 20 20 20 20 21 21 21 21 21 21 21 21 21 21 22 22 22 22 23 23 23 23 24 24 24 24 24 24 25 25 25 25 26 26 27 27 28 28 29 29 30 31 32 33
19 19 19 19 20 20 20 20 20 20 20 21 21 21 21 22 22 22 22 22 23 23 23 24 24 24 24 25 25 25 25 25 25 25 25 26 26 26 26 26 26 27 27 27 27 27 28 28 29 30 30 31
19 19 19 20 20 20 20 20 21 21 21 22 22 22 23 23 23 23 24 24 25 25 25 26 26 27 27 27 27 27 27 27 28 28 28 28 28 28 28 28 28 28 28 28 28 28 28 28 28 28 29 30
20 20 20 21 21 21 21 22 22 22 23 23 23 24 24 24 25 25 25 26 26 27 27 28 28 29 29 29 29 30 30 30 30 30 30 30 30 31 31 31 30 30 30 30 30 30 30 30 30 30 29 29
21 22 22 22 22 23 23 23 23 24 24 24 24 24 25 25 26 26 27 27 28 28 28 29 29 30 30 31 31 31 32 32 32 32 32 32 32 32 32 33 33 32 33 33 33 33 33 33 33 32 32 32
23 23 24 24 24 24 24 25 25 25 25 25 25 25 26 26 26 27 28 28 29 29 29 30 30 31 31 32 32 32 32 33 33 33 33 33 33 33 33 34 34 34 34 34 34 34 34 35 35 35 35 35
24 24 25 25 25 25 26 26 26 26 26 27 26 27 27 27 28 28 28 29 29 30 30 31 31 31 32 32 33 33 33 33 33 34 34 34 34 34 34 34 34 34 35 35 35 36 36 36 36 37 37 37
25 25 26 26 26 26 27 27 27 27 27 27 27 27 28 28 29 29 29 30 30 31 31 32 32 33 33 34 34 34 34 34 34 34 35 34 35 35 35 35 35 35 35 35 36 36 36 37 37 38 38 39
26 27 27 27 27 27 27 27 28 28 28 28 28 28 28 29 29 30 31 31 31 32 33 33 34 34 35 35 35 35 35 35 36 36 36 36 36 36 36 36 36 36 36 36 36 37 37 37 38 38 39 40
27 28 28 28 28 28 28 28 28 28 29 29 29 29 29 30 30 31 32 32 33 33 34 35 35 36 36 37 37 37 37 37 37 37 37 37 37 37 37 37 37 37 37 37 37 37 38 38 38 39 39 40
29 29 29 29 29 28 29 29 29 29 30 30 30 30 30 31 31 32 32 33 34 34 35 36 37 37 37 37 38 38 38 38 38 38 38 38 38 38 38 39 38 38 38 38 38 38 39 39 39 39 40 40
29 30 30 30 29 29 29 30 30 30 30 30 30 30 31 31 32 32 33 33 34 35 36 36 37 37 38 38 38 38 38 38 38 38 39 39 39 39 39 40 40 39 40 40 39 40 40 40 40 41 41 41
30 30 30 30 29 29 30 30 30 30 30 30 30 31 31 32 32 32 33 34 35 35 36 37 37 37 38 38 38 39 39 39 39 39 39 40 40 40 40 40 41 41 41 41 41 41 41 41 41 42 42 43
30 31 30 30 30 30 30 30 30 30 30 30 31 31 32 32 33 33 33 34 35 36 36 37 37 38 38 39 39 39 39 40 39 39 40 40 40 41 41 42 42 42 42 42 42 42 42 41 42 42 43 43
31 31 31 30 30 30 31 31 31 31 31 31 32 32 33 33 33 33 34 35 36 36 37 37 37 38 39 39 40 40 40 41 41 41 41 41 41 41 42 42 43 43 43 43 43 43 43 43 43 43 43 43
31 31 31 31 31 32 32 32 32 31 32 32 33 33 34 34 34 35 35 36 37 37 38 38 39 39 40 40 41 41 41 42 42 42 43 43 43 43 43 43 44 44 44 44 44 44 44 43 44 45 45 45
31 31 32 33 33 33 34 34 33 33 33 34 34 35 35 35 35 36 36 37 37 38 39 39 40 40 41 41 42 42 43 43 43 43 43 44 44 45 45 45 45 45 44 45 45 45 45 45 44 45 47 47
32 32 33 34 35 35 35 36 34 34 35 35 36 36 36 37 37 37 37 38 38 39 40 40 41 41 42 42 43 44 44 44 44 44 44 44 45 45 45 46 47 47 45 44 45 46 46 46 46 46 46 49
33 34 35 36 37 37 37 37 36 36 37 37 37 38 38 38 38 38 38 38 39 40 40 40 41 41 42 42 43 44 45 45 46 46 46 46 46 46 46 47 48 49 48 46 45 46 47 47 47 47 47 49
35 36 36 38 38 38 39 39 38 39 39 39 39 39 40 40 39 40 39 39 40 41 41 41 41 41 42 42 43 44 44 45 46 46 46 47 47 47 47 47 47 48 49 48 46 45 46 47 48 48 49 50
36 38 38 39 39 39 40 40 40 40 41 41 41 40 41 41 40 41 41 41 41 42 42 41 42 42 42 42 43 44 44 45 46 46 46 47 47 48 48 48 47 48 48 49 48 47 45 45 47 49 50 51
38 39 39 40 40 40 41 42 42 42 43 43 43 42 43 43 42 42 42 42 42 43 43 43 43 43 43 43 44 45 45 45 46 46 47 47 47 48 49 49 48 48 48 49 50 50 48 47 46 48 49 51

ECMWFFLT2_700_spd_108.txt.gz
Wind_Speed
21 21 21 21 21 21 22 22 22 21 21 20 20 20 20 20 20 21 21 21 21 21 21 22 22 22 22 23 23 23 24 24 24 25 25 25 25 25 25 26 26 26 26 26 26 25 26 26 27 27 27 27
22 22 22 22 22 22 22 21 21 20 20 20 20 20 21 21 21 21 21 21 21 21 22 22 22 22 23 23 23 23 23 24 24 25 25 25 25 25 26 26 26 26 26 26 26 26 26 26 27 27 28 28
23 23 23 23 22 21 20 20 20 20 20 21 21 21 21 21 21 21 22 22 22 22 22 22 22 22 22 22 22 22 23 23 24 24 24 25 25 26 26 26 26 26 27 27 27 27 27 27 27 27 28 29
24 23 23 22 21 21 20 20 21 21 21 21 21 21 21 21 21 21 21 21 21 21 21 21 21 21 21 21 21 22 22 22 22 23 23 23 24 25 25 25 26 26 27 27 28 28 28 28 28 28 28 28
23 23 21 21 20 20 21 21 21 21 21 21 21 21 20 20 20 20 20 20 20 20 19 19 19 20 20 20 20 20 21 21 21 21 22 22 22 23 24 24 25 25 26 27 27 28 28 28 29 29 29 29
23 22 21 21 21 20 21 21 21 21 21 20 20 20 19 19 19 19 18 18 19 18 18 18 18 18 18 18 19 19 19 19 19 19 20 20 20 21 22 22 23 24 25 25 26 27 28 28 29 29 30 30
22 22 22 21 21 21 21 20 20 20 19 19 19 19 18 18 18 18 17 17 17 17 18 18 17 18 18 18 18 18 18 18 18 19 19 19 19 20 20 20 21 21 22 23 24 25 26 27 28 28 29 30
23 22 22 22 21 21 20 19 19 18 18 18 18 17 17 17 17 17 17 17 17 18 18 18 18 18 18 18 19 19 19 19 19 19 20 20 20 19 20 20 20 20 21 21 22 22 23 24 25 26 27 28
23 23 22 21 20 19 19 18 18 17 17 17 17 17 17 17 17 17 18 18 19 19 19 19 19 20 20 20 20 20 21 21 21 21 21 22 22 21 21 21 21 21 21 21 21 22 22 22 23 24 25 26
23 22 21 20 19 18 18 17 17 17 17 17 17 17 18 18 18 19 19 20 20 20 21 21 21 21 22 22 22 22 23 23 23 23 24 24 24 24 24 24 24 24 23 23 23 23 23 23 23 24 24 24
22 20 19 19 18 18 17 17 17 17 18 18 19 19 19 20 20 20 21 21 22 22 23 23 23 23 24 24 24 24 25 25 25 25 26 26 26 27 27 27 27 27 27 26 26 26 26 25 25 25 25 25
21 19 18 19 18 18 18 18 18 19 19 20 20 21 21 22 22 22 23 23 24 24 24 25 25 25 25 26 26 26 27 27 27 27 28 28 28 29 29 29 29 29 29 29 29 29 29 28 28 28 28 27
20 19 19 19 19 20 20 20 20 21 21 21 22 23 23 24 24 24 25 25 25 25 26 26 26 27 26 27 27 27 28 28 28 29 29 29 30 30 30 30 31 31 32 32 32 32 32 31 31 31 30 30
20 20 20 21 20 21 22 22 23 23 23 23 24 25 25 26 26 26 26 26 26 26 26 27 27 27 27 27 28 28 29 29 29 29 30 30 31 31 31 31 32 32 32 33 33 33 34 34 34 34 33 33
21 21 22 22 22 23 23 23 24 24 25 25 25 26 27 27 27 27 27 27 27 27 27 27 28 28 28 28 29 29 30 30 30 30 31 31 32 32 32 33 33 33 33 33 34 34 34 34 35 35 35 35
22 23 23 23 24 24 24 25 25 25 26 26 26 27 27 27 28 27 27 28 28 28 28 28 28 29 29 29 30 30 30 31 31 31 32 32 33 33 33 34 34 34 34 34 34 34 34 35 35 35 35 36
24 24 24 24 25 25 25 26 27 27 27 27 27 28 28 28 28 28 28 28 29 29 29 29 29 29 30 30 30 31 31 31 32 32 33 33 34 34 35 35 35 35 35 35 35 35 35 35 35 35 35 36
25 25 24 25 26 25 26 28 28 28 28 28 29 29 29 29 29 29 29 29 29 29 29 29 30 30 30 30 31 31 32 32 33 33 34 34 35 35 35 36 36 36 36 36 36 36 36 36 36 36 36 36
25 26 26 27 27 26 27 29 29 29 29 29 29 29 29 30 29 29 29 29 29 29 29 29 29 30 30 31 31 32 32 33 33 34 35 35 35 36 36 36 37 37 37 37 37 37 37 37 37 37 37 37
26 27 27 27 28 27 28 30 30 30 30 30 30 29 29 30 30 29 29 29 29 29 29 29 30 30 30 31 31 32 33 33 34 35 35 35 36 36 37 37 37 37 37 37 37 37 37 37 37 38 38 38
28 27 27 28 29 28 29 31 31 30 30 30 30 30 29 29 30 30 30 30 30 30 30 30 30 31 31 31 32 33 33 34 34 35 36 36 36 36 37 37 37 37 37 38 38 38 38 38 38 38 39 39
28 28 28 29 29 29 29 31 32 31 30 31 31 30 29 29 31 31 31 31 31 31 31 31 31 32 32 32 33 33 34 34 35 36 36 37 37 37 38 38 38 38 38 38 38 38 38 38 38 39 39 39
29 29 29 29 30 30 30 31 32 32 31 31 32 31 30 30 32 32 32 32 32 32 32 32 33 33 33 33 33 34 34 35 35 36 36 37 37 38 38 39 39 39 38 39 39 39 39 39 39 39 40 40
29 29 30 30 31 30 30 31 33 33 32 32 32 32 31 32 33 33 33 34 34 34 34 34 34 34 34 34 34 35 35 36 36 36 37 37 38 38 39 39 40 39 39 39 40 40 40 40 40 40 40 40
29 30 30 32 32 31 31 32 33 33 33 32 33 33 32 33 35 34 35 35 36 36 36 36 36 36 36 36 36 36 37 37 38 38 38 39 39 40 40 40 41 40 40 41 41 41 41 41 41 41 42 42
31 31 31 33 33 32 32 33 34 34 34 34 34 34 33 34 36 36 36 37 38 38 38 38 37 37 37 38 38 38 38 38 39 39 40 40 41 41 42 42 42 42 42 42 42 42 42 41 41 41 43 44
32 32 33 34 34 34 34 34 35 35 35 35 35 35 34 35 37 38 38 39 40 40 40 40 39 39 39 39 40 39 39 40 40 40 41 41 42 42 43 44 44 44 43 43 43 44 44 43 42 42 42 43
33 34 34 35 35 36 36 36 37 36 36 36 36 36 35 36 38 40 40 40 41 41 41 42 41 41 41 41 41 41 41 41 41 41 41 42 42 43 44 44 45 46 46 45 44 45 45 45 45 44 44 44
35 36 36 36 37 37 38 38 38 38 38 38 38 37 37 37 40 41 42 42 42 42 42 43 43 43 43 43 43 43 43 43 42 42 42 42 43 43 44 45 45 47 47 47 46 45 46 45 46 46 45 45
37 38 38 38 39 38 39 40 40 40 40 40 40 39 38 39 41 42 43 43 43 43 44 44 44 44 44 44 44 45 45 45 44 44 44 44 44 44 44 45 46 47 48 48 48 47 46 46 46 46 47 47
39 40 40 40 40 39 40 41 41 41 42 43 43 42 41 41 41 42 43 44 45 45 45 45 45 46 46 46 46 46 47 47 46 46 45 45 45 45 44 44 45 47 48 49 49 50 49 47 46 46 47 47

ECMWFFLT2_700_spd_111.txt.gz
Wind_Speed
17 17 17 17 17 17 18 18 18 18 18 18 17 17 17 17 18 18 18 18 18 18 19 19 19 19 20 20 20 20 20 20 20 20 20 20 20 20 21 21 21 21 21 21 21 22 22 22 22 23 23 24
19 18 18 18 18 18 18 18 18 18 18 18 18 18 18 18 18 18 18 18 18 18 18 18 18 18 18 19 19 19 19 19 19 19 19 19 19 20 20 21 21 21 21 21 21 21 22 22 22 23 23 23
20 19 18 18 18 18 18 18 18 18 18 19 19 19 19 19 19 19 18 18 17 17 17 17 16 16 16 16 16 16 16 16 16 17 17 17 17 18 19 19 20 21 21 21 21 21 22 22 23 23 23 23
20 19 18 17 17 17 18 18 19 19 19 19 19 19 19 19 19 18 18 17 17 16 15 14 14 13 12 12 12 12 12 12 12 13 13 14 14 14 15 16 17 18 19 19 20 20 20 21 22 22 23 23
20 19 18 17 17 18 18 19 19 20 20 20 19 19 19 18 17 17 16 15 14 13 12 11 10 10 9 9 9 9 9 10 10 11 11 11 12 12 13 13 13 14 15 16 17 17 18 18 19 20 21 21
19 19 18 18 18 19 19 20 20 20 20 19 18 18 17 17 16 15 14 12 11 10 10 9 9 9 9 10 10 10 10 10 11 11 11 12 12 12 13 13 14 14 14 15 15 16 16 17 17 17 18 18
19 19 19 19 20 20 21 21 21 20 19 18 17 17 16 16 14 12 11 11 10 10 10 10 10 11 11 12 12 12 12 13 13 13 14 14 14 14 15 15 15 16 16 16 17 17 17 18 18 18 18 18
20 20 20 21 21 22 22 21 20 19 18 17 17 16 14 13 13 12 11 11 11 11 12 12 13 13 14 14 15 15 15 16 16 16 16 17 17 17 17 17 17 18 18 19 19 19 19 20 20 20 20 20
20 21 21 22 23 22 22 20 19 18 17 16 15 15 13 13 13 13 13 13 14 14 14 15 15 16 16 17 17 18 18 18 19 19 19 19 19 19 20 20 20 20 20 21 21 21 21 21 22 22 22 23
21 21 22 23 23 22 20 19 18 17 17 16 15 15 14 14 14 15 15 15 16 17 17 17 18 19 19 19 20 20 20 20 21 21 21 21 21 22 22 22 22 22 22 22 23 23 23 23 24 24 24 25
22 22 23 23 22 20 19 18 17 17 17 16 16 16 16 16 16 17 18 18 18 19 20 20 20 21 22 22 22 22 23 23 23 23 23 23 23 23 23 24 24 23 24 24 24 25 25 25 25 26 26 26
22 23 23 22 21 20 18 17 17 18 17 17 17 17 17 18 18 19 20 20 21 22 22 23 23 23 24 24 24 24 24 24 25 25 25 25 25 25 25 25 25 25 25 25 25 26 26 26 27 27 28 28
23 22 21 21 20 19 19 18 18 19 18 18 19 19 19 20 20 21 22 22 23 23 24 25 25 25 25 26 26 26 26 26 26 26 26 27 27 27 27 27 27 27 27 27 27 27 28 28 28 29 29 30
22 21 20 21 20 19 19 19 19 20 19 19 21 21 21 22 22 23 23 24 24 25 25 26 26 26 26 27 27 27 27 27 27 27 27 27 27 27 27 28 28 28 28 28 28 28 28 29 29 30 30 31
21 20 20 21 20 20 21 20 21 21 20 21 22 23 23 23 24 24 25 25 25 26 26 27 27 27 27 27 27 27 27 27 27 28 28 28 28 28 28 28 28 28 29 29 29 29 29 30 30 30 31 31
21 21 21 22 21 22 22 21 22 22 21 21 23 25 24 24 25 25 26 27 27 27 27 27 28 28 28 27 27 27 27 27 27 27 27 27 27 27 28 28 28 29 29 30 30 30 30 31 31 31 31 32
22 22 23 23 23 23 23 23 23 23 22 22 23 25 25 25 26 26 27 28 28 27 28 28 28 28 28 28 27 27 27 27 27 27 27 27 27 27 28 28 29 29 30 30 30 31 31 32 32 32 32 32
23 23 23 24 24 24 24 24 24 24 23 23 24 25 26 26 27 27 28 29 29 28 29 29 28 28 28 28 28 28 27 28 28 27 27 28 28 28 28 28 29 29 30 30 31 31 32 32 33 33 33 33
24 24 24 24 24 25 24 25 26 25 24 24 25 26 27 27 28 28 29 29 29 29 29 29 29 29 28 28 28 28 28 28 28 28 28 28 28 28 28 29 29 29 30 30 31 31 32 33 33 33 33 34
25 25 24 24 25 25 25 26 27 26 25 25 25 26 27 28 28 28 29 29 29 29 29 29 29 29 29 29 29 29 29 29 29 29 29 29 29 29 29 29 29 30 30 30 31 31 32 32 33 34 34 34
25 25 25 25 26 26 26 27 27 27 26 26 26 26 27 28 29 29 29 30 30 30 30 30 30 30 30 30 31 31 31 31 31 30 30 30 30 30 31 31 30 31 31 31 31 31 32 32 33 34 34 35
26 25 26 26 27 27 27 27 28 28 28 27 27 27 27 28 29 29 30 30 31 31 31 30 31 32 32 32 32 32 32 33 33 33 33 32 32 33 33 32 32 33 33 33 33 33 33 33 34 34 34 35
26 26 26 27 28 28 27 27 28 29 29 29 28 27 27 28 30 31 31 31 31 32 32 32 32 33 34 34 34 34 34 35 35 35 35 35 35 35 35 35 35 35 35 35 35 35 35 35 35 35 36 36
27 27 27 28 28 29 28 28 30 31 30 30 29 28 28 29 30 32 32 32 32 33 33 34 34 35 35 35 36 36 36 37 37 37 37 37 37 37 37 37 37 37 37 37 37 37 37 37 37 37 38 37
28 27 28 28 29 29 29 30 31 32 31 31 30 30 30 29 30 32 32 33 33 34 35 35 35 36 36 36 37 37 38 38 38 39 39 39 39 39 39 38 38 38 39 39 38 38 38 38 39 39 39 39
29 28 29 29 30 30 31 32 33 33 32 32 32 32 31 30 30 32 33 34 35 36 36 36 35 36 36 37 37 38 38 38 39 39 39 40 40 40 40 40 40 40 40 40 40 39 39 39 39 40 41 41
30 29 30 31 32 32 33 33 34 34 34 34 34 33 31 31 31 32 33 35 37 37 37 37 36 36 37 37 37 38 38 39 39 40 40 40 40 41 41 41 41 41 41 41 41 41 41 40 39 40 41 41
31 31 32 33 34 35 35 36 36 36 36 35 34 33 32 32 32 33 35 36 38 38 38 38 37 37 37 37 38 39 39 40 40 41 41 41 41 41 42 42 42 42 42 42 42 42 42 42 41 41 41 42
32 33 34 35 36 37 38 38 38 39 37 36 35 34 34 34 34 35 36 37 38 39 39 39 39 38 39 39 39 40 40 41 42 42 42 42 43 43 43 43 43 42 42 42 42 42 43 43 43 43 43 44
34 35 36 37 38 39 39 40 40 40 39 38 38 37 37 37 37 37 37 38 39 40 41 41 41 40 40 41 41 41 41 42 43 43 43 44 44 45 45 45 44 44 43 43 42 42 42 43 43 44 45 45
36 37 38 39 40 40 41 41 41 40 40 41 41 40 41 40 39 39 39 39 39 41 42 42 43 42 42 42 42 42 43 43 44 44 45 46 46 46 47 47 47 46 45 44 44 43 42 42 43 44 45 45

ECMWFFLT2_700_spd_114.txt.gz
Wind_Speed
14 14 13 13 14 14 15 15 16 17 17 18 18 18 17 17 17 18 18 18 18 18 19 19 19 19 19 19 18 18 18 18 18 18 18 18 18 18 18 18 18 18 18 18 18 18 19 19 20 20 20 21
16 16 15 15 15 15 16 17 17 17 17 17 17 17 17 17 18 18 18 19 19 19 19 19 19 19 19 19 18 18 18 18 17 17 17 17 18 18 18 18 17 17 17 18 18 18 18 19 19 20 21 21
18 18 17 16 16 16 17 18 17 17 17 17 17 18 18 18 18 18 19 19 19 19 19 19 19 18 18 18 18 17 16 16 15 15 15 15 15 15 15 15 15 15 15 15 16 16 16 17 18 18 19 20
19 19 18 17 17 17 17 17 17 16 17 17 18 18 19 19 19 19 19 19 18 18 18 17 17 16 15 15 14 13 12 12 11 11 10 10 11 11 11 11 11 11 11 11 11 12 12 13 14 15 16 17
19 18 18 17 17 17 17 17 16 17 18 19 19 19 19 19 19 19 18 18 18 17 16 14 13 12 11 10 10 9 9 8 8 8 8 9 9 9 9 10 10 10 10 10 10 10 10 10 11 11 12 13
20 18 18 17 17 17 17 17 17 17 18 19 20 19 19 19 18 18 18 17 16 14 13 11 10 9 9 8 8 8 8 9 9 9 9 10 10 11 11 11 12 12 12 12 12 12 12 12 12 12 12 12
20 19 18 17 17 17 17 17 17 18 19 20 20 19 19 18 18 17 16 14 13 11 11 10 10 9 9 9 9 10 10 11 11 11 12 12 13 13 14 14 15 15 15 15 16 16 16 15 15 15 15 15
20 19 18 18 17 17 17 17 18 19 19 20 20 19 18 17 17 15 13 12 11 11 11 11 11 11 11 11 12 12 13 13 14 14 15 15 16 16 17 17 18 18 18 18 19 19 19 19 19 19 18 18
21 20 19 18 18 18 17 18 19 19 19 19 19 18 18 16 15 14 13 12 12 12 12 12 13 13 14 14 15 15 16 16 17 17 18 18 19 19 19 20 20 21 21 21 21 22 22 22 22 22 22 21
21 20 19 19 19 18 18 19 20 20 19 19 18 18 17 16 14 14 14 14 13 13 14 14 15 16 16 17 17 18 19 19 19 20 20 20 21 21 21 21 22 22 23 23 23 23 24 24 24 24 24 24
21 20 20 20 19 19 19 20 20 19 19 19 18 17 16 16 15 15 15 15 15 15 16 17 17 18 19 19 19 20 21 21 21 22 22 22 22 23 23 23 23 24 24 24 24 25 25 25 26 26 26 26
21 21 20 20 19 19 20 20 19 19 19 19 18 17 16 17 17 17 16 17 17 17 18 19 20 20 20 21 21 21 22 22 23 23 23 23 24 24 24 24 24 25 25 25 26 26 26 26 27 27 27 27
22 21 21 20 20 20 20 20 19 20 20 19 18 18 17 18 18 18 18 19 19 19 20 20 21 21 21 22 22 23 23 23 24 24 24 25 25 25 25 25 25 25 26 26 26 26 27 27 27 27 28 28
22 22 21 20 20 20 19 19 20 21 20 19 19 19 19 19 20 20 20 20 21 21 21 21 22 22 23 23 23 24 24 25 25 25 25 26 26 26 26 26 26 26 26 26 26 26 27 27 27 28 28 29
22 22 21 20 20 20 19 20 21 21 21 20 20 21 20 20 21 21 22 22 22 22 22 22 23 23 24 24 24 25 25 25 26 26 26 26 26 26 26 26 26 26 26 26 26 26 26 27 27 28 28 29
23 22 21 20 20 19 19 21 21 21 21 21 21 22 22 22 22 23 23 23 22 23 23 23 24 24 25 25 25 25 25 26 26 26 26 26 26 26 26 26 26 26 26 26 26 26 26 27 27 27 28 29
23 22 21 20 20 20 20 21 22 22 22 22 23 23 23 23 23 23 24 24 23 24 24 24 24 25 26 26 26 26 26 26 26 26 26 26 26 26 26 26 26 26 26 26 26 26 27 27 27 27 28 28
23 22 21 20 20 20 21 22 22 23 23 23 24 24 24 24 24 24 24 25 25 24 25 25 25 26 26 26 26 26 26 26 26 26 26 26 26 26 26 26 26 27 26 26 27 27 27 27 27 28 28 28
23 22 22 21 21 21 22 23 23 24 24 24 25 25 25 24 24 25 26 26 25 25 25 25 26 26 26 26 26 26 26 27 27 27 27 27 27 27 27 27 28 28 27 27 28 28 28 28 28 29 29 29
23 23 23 22 22 22 23 24 24 24 25 24 25 25 25 25 26 26 27 27 26 26 25 26 26 27 27 27 27 27 27 28 28 28 28 28 28 29 29 29 29 29 29 29 29 29 29 30 30 30 31 31
24 24 24 23 23 24 24 25 25 25 25 25 24 25 25 26 27 27 28 28 27 26 26 26 27 27 28 27 28 29 29 29 29 29 30 30 30 30 30 31 31 31 30 30 30 30 31 31 31 32 32 32
25 25 25 25 25 25 25 25 25 26 26 25 24 25 26 28 29 29 28 29 28 27 26 27 27 28 29 29 30 30 30 30 31 31 32 32 32 32 32 32 32 32 32 32 32 32 32 32 33 33 33 33
27 27 28 27 26 26 25 25 26 26 26 26 26 27 28 29 30 29 29 29 29 28 27 27 28 29 30 30 31 31 31 32 32 32 33 33 34 34 34 34 34 34 34 34 34 34 34 34 34 34 34 35
29 29 28 27 27 26 25 25 26 27 27 28 28 28 29 30 30 30 30 30 29 28 28 28 29 30 32 32 32 32 32 33 33 34 34 34 35 35 35 35 35 36 35 35 35 36 36 36 36 36 36 36
30 29 29 29 28 26 25 26 28 29 29 29 29 30 31 31 31 31 30 30 29 29 28 29 30 32 33 33 33 33 33 34 34 34 35 35 35 35 36 36 36 36 36 37 37 37 37 37 37 37 37 38
30 30 29 29 28 27 28 29 30 30 30 31 32 32 33 32 31 31 30 29 29 30 30 30 31 33 34 35 35 34 34 35 35 35 35 36 35 35 36 36 36 37 37 37 37 37 38 38 39 39 39 39
30 30 30 31 31 31 32 32 33 33 34 34 34 34 33 32 31 30 29 29 30 31 32 32 33 34 35 36 36 35 36 36 36 36 36 36 36 37 36 36 36 37 37 38 38 38 39 39 39 40 39 39
30 30 32 33 34 35 36 36 36 37 37 36 35 34 32 31 31 30 30 31 32 33 33 34 34 34 36 36 37 36 37 37 36 36 37 37 38 38 37 37 37 38 37 37 38 38 39 39 40 40 39 39
32 33 35 36 37 38 38 39 38 39 38 36 35 34 32 31 32 33 34 34 35 35 35 35 35 35 36 37 38 38 37 37 37 37 38 38 38 38 38 38 39 38 38 38 39 39 39 39 40 40 40 40
35 36 37 38 39 40 40 40 39 38 37 37 37 36 35 35 35 36 37 37 37 38 38 37 37 37 37 38 39 39 39 39 38 38 38 39 39 40 39 40 41 40 39 40 41 40 40 40 40 41 41 40
35 37 39 39 40 40 40 40 39 38 38 39 40 39 39 38 38 38 38 39 39 40 40 40 40 39 39 40 41 41 41 40 39 39 39 40 41 41 41 42 42 40 40 42 43 42 42 42 42 42 42 42

ECMWFFLT2_700_spd_117.txt.gz
Wind_Speed
14 13 13 12 12 13 14 15 16 17 18 18 19 20 20 20 20 19 19 17 17 17 18 18 18 18 18 18 18 18 19 19 19 19 19 19 19 19 19 19 18 18 18 19 19 19 19 19 19 19 19 19
15 15 14 14 14 14 15 15 17 18 19 19 19 20 20 20 19 19 19 18 18 18 19 19 19 19 19 19 19 19 19 19 19 19 19 19 18 18 18 18 18 18 17 18 18 18 19 19 19 19 19 19
17 16 16 16 16 15 15 16 17 19 20 20 20 20 19 18 18 19 19 19 19 19 19 19 19 19 19 19 19 19 18 18 18 18 17 17 16 15 15 15 15 14 14 14 15 15 16 16 17 17 17 18
19 18 17 17 17 17 16 16 18 20 20 20 20 20 18 18 18 19 19 20 20 20 20 20 19 19 19 19 19 18 17 16 15 14 13 12 11 11 10 10 10 10 10 10 10 10 11 12 12 13 13 14
20 20 19 19 18 18 17 17 18 20 21 20 20 19 19 18 18 19 20 20 20 20 20 19 19 18 17 16 15 14 13 12 11 10 10 9 9 9 8 8 8 9 9 9 9 9 9 9 10 11 11 11
22 22 21 20 19 19 19 18 19 20 21 21 21 20 19 19 19 20 20 20 20 19 19 18 17 15 14 12 11 10 9 9 9 8 9 9 9 9 9 10 10 11 11 11 11 11 11 11 12 12 12 12
22 22 22 21 20 20 19 19 20 21 22 22 21 20 20 20 20 20 20 20 19 19 18 16 14 12 11 10 10 9 9 9 9 9 10 10 11 11 12 12 13 13 14 14 14 15 15 15 15 15 15 15
23 23 22 21 21 21 19 20 21 22 22 22 21 21 20 20 20 20 19 19 18 17 15 14 13 12 11 11 10 10 10 10 11 11 12 12 13 14 14 15 15 16 16 17 17 17 18 18 18 18 18 18
23 23 23 22 22 21 20 21 21 22 22 22 21 21 20 20 19 19 19 17 16 15 14 13 13 13 12 12 12 12 12 13 13 14 14 15 15 16 16 17 17 18 18 19 19 19 20 20 20 20 20 21
25 24 23 22 22 21 21 21 21 22 23 22 21 21 20 20 19 19 18 16 15 15 14 14 14 14 14 14 14 15 15 15 15 16 16 16 17 17 18 19 19 19 20 20 21 21 21 22 22 22 22 22
26 25 24 23 23 23 23 22 21 22 23 23 21 20 19 19 19 18 17 16 16 16 16 16 16 16 16 16 17 17 17 17 17 17 18 18 18 19 19 20 20 21 21 22 22 22 23 23 23 23 23 24
26 26 25 25 24 24 24 23 22 23 24 22 20 19 19 19 18 18 17 17 17 17 17 17 18 18 18 18 18 18 18 18 18 19 19 19 19 20 20 21 21 21 22 22 23 23 23 23 24 24 24 25
27 26 26 25 24 24 24 23 24 24 23 21 20 20 20 19 19 19 19 18 18 18 19 19 19 19 19 19 20 20 19 20 20 20 20 20 20 21 21 21 22 22 22 22 22 23 23 23 24 24 24 25
27 27 26 25 25 25 25 25 25 24 22 21 20 20 20 20 20 20 20 20 20 20 20 21 21 21 21 20 20 20 20 21 21 21 21 21 21 21 21 21 22 22 22 22 22 22 22 23 23 24 24 24
28 27 27 26 26 27 26 26 26 24 23 22 21 21 21 21 21 21 21 21 21 21 21 22 22 22 22 21 21 22 22 21 21 21 22 22 22 22 22 21 22 22 22 22 22 22 22 23 23 23 23 24
29 28 28 28 28 28 27 27 26 24 23 22 22 22 22 22 22 22 22 22 22 22 22 23 23 23 23 22 22 23 23 22 22 22 22 22 22 22 22 22 22 22 22 22 22 22 23 23 23 23 24 24
31 30 30 30 29 28 28 27 25 24 23 23 23 22 22 23 23 23 23 23 23 23 24 23 23 23 24 24 23 23 23 23 23 23 23 23 23 23 23 23 22 23 23 23 23 23 24 24 24 24 24 24
32 31 31 31 30 29 28 27 25 24 24 24 24 23 23 23 23 24 24 24 24 24 24 24 24 24 25 25 24 24 24 24 23 23 24 24 24 23 23 23 23 24 24 24 25 25 25 25 25 25 25 25
32 31 32 31 30 29 28 27 26 25 25 25 25 24 24 24 24 25 25 25 25 25 25 25 25 25 26 25 25 24 24 24 24 24 24 24 24 24 24 25 25 25 25 26 26 26 27 27 27 27 27 27
33 33 33 32 30 29 28 27 26 26 26 26 26 25 24 24 25 25 26 26 26 26 26 26 26 26 27 26 25 25 25 25 25 25 25 25 25 25 26 26 27 27 27 27 28 28 28 28 29 29 29 29
34 34 33 32 31 30 29 28 28 27 28 27 27 26 25 25 26 26 26 27 27 27 27 27 27 27 27 26 26 25 25 26 26 26 26 26 26 27 27 28 28 28 29 29 30 30 30 30 31 31 31 31
34 34 33 33 32 32 31 30 29 29 29 28 26 26 25 26 27 27 28 28 28 28 28 28 28 27 27 27 26 26 26 26 27 26 27 27 27 28 28 29 29 30 30 31 31 32 32 32 32 33 33 33
35 35 35 34 34 33 32 31 29 29 28 26 26 26 26 27 28 28 29 30 30 30 29 29 28 27 27 27 27 27 27 27 28 28 28 28 29 29 29 30 30 31 31 32 33 33 33 33 34 34 34 34
35 36 35 34 34 34 32 30 29 28 27 27 27 27 27 29 29 30 31 31 31 31 30 29 28 28 28 28 28 28 28 28 29 30 29 29 29 30 30 31 31 32 32 33 33 33 34 34 35 35 35 35
34 34 34 33 33 32 31 30 30 30 30 29 29 29 30 31 31 32 33 33 33 32 30 29 28 28 28 28 28 29 29 30 31 31 30 30 30 31 32 32 33 33 33 33 33 34 35 35 35 35 36 36
33 32 32 33 32 32 32 33 33 33 32 32 32 33 34 34 34 35 35 34 33 31 30 28 28 28 28 29 29 30 31 31 32 31 31 31 32 32 33 33 34 33 33 34 34 35 36 36 36 36 36 36
32 32 32 33 33 33 35 36 36 35 35 35 36 36 36 36 36 35 35 34 32 31 30 29 29 29 30 30 31 31 32 32 32 32 32 32 32 33 34 34 34 34 34 35 35 36 37 36 36 37 36 36
32 32 34 35 35 36 37 38 38 38 38 38 37 38 37 36 35 34 34 33 32 31 30 30 30 30 31 32 32 33 33 33 33 33 33 33 33 34 35 34 34 34 35 36 36 37 37 37 37 38 37 37
32 33 35 36 37 38 38 39 39 39 39 37 38 37 36 34 34 34 34 33 33 33 32 32 32 33 34 34 34 34 34 34 34 34 35 35 35 35 35 35 36 36 37 37 37 38 38 38 39 39 38 38
32 34 36 37 37 38 38 39 39 38 37 37 38 37 36 36 37 37 37 37 36 36 36 36 36 36 37 36 37 37 36 36 36 36 36 36 36 36 36 37 38 38 38 38 39 39 39 39 40 41 41 41
32 34 35 36 37 38 38 39 38 37 37 38 39 39 39 39 40 40 40 40 40 39 39 39 39 39 39 39 40 40 40 40 39 38 38 39 40 39 39 40 41 40 39 40 40 39 40 41 41 42 44 43

ECMWFFLT2_700_spd_120.txt.gz
Wind_Speed
15 15 15 14 14 14 14 15 15 15 16 17 17 18 18 18 18 18 17 17 17 16 16 16 16 15 16 17 17 17 17 17 18 18 18 18 18 18 18 17 17 17 17 17 17 17 17 17 17 17 18 18
14 16 16 15 15 15 15 15 16 17 18 19 19 19 19 19 19 18 17 16 16 16 16 16 16 16 16 17 17 18 18 18 18 18 18 17 17 17 17 17 17 16 16 16 16 16 16 16 16 16 17 17
15 17 16 16 16 16 16 16 17 17 18 19 20 21 20 20 20 19 18 17 16 16 17 17 17 17 17 17 17 18 18 17 18 17 17 16 16 15 14 14 13 13 13 13 13 12 12 12 13 13 13 14
16 17 17 17 17 17 17 17 17 18 19 20 21 22 21 21 21 20 19 18 17 17 17 17 18 18 17 17 17 18 18 17 17 16 15 14 12 11 10 9 8 8 8 8 8 8 8 8 8 9 9 9
16 18 18 19 18 18 18 18 19 19 20 21 22 23 22 22 21 21 20 19 18 18 17 17 18 17 17 17 17 17 17 15 14 12 11 10 8 7 7 6 5 5 5 6 6 6 7 7 7 7 8 8
17 18 20 20 20 20 20 20 20 20 21 22 23 24 22 22 21 21 20 19 19 19 18 18 18 17 17 16 16 15 14 13 11 10 9 8 7 7 6 6 6 6 6 7 7 8 8 8 9 9 9 10
19 20 21 21 21 22 22 21 21 22 22 23 24 24 22 21 21 21 20 20 19 19 18 18 18 17 16 15 14 13 12 11 10 9 9 8 8 8 8 8 8 8 9 9 10 10 10 11 11 11 11 12
21 21 22 22 22 23 23 22 22 23 23 24 24 23 22 22 21 21 20 20 20 19 19 18 18 17 15 14 13 12 12 12 11 10 10 10 10 10 10 10 11 11 11 11 12 12 13 13 13 13 14 14
23 23 23 23 24 24 23 23 23 24 24 25 25 24 23 22 22 21 21 20 20 19 19 18 18 16 15 14 13 13 13 13 12 12 12 12 12 12 12 13 13 13 13 13 14 14 14 14 15 15 15 16
25 25 24 25 25 25 24 24 25 25 25 25 25 25 24 23 23 22 21 21 20 19 19 18 17 16 16 15 15 15 14 14 14 14 14 14 14 14 14 14 15 15 15 15 15 15 16 16 16 16 17 17
26 26 25 25 26 26 25 26 26 25 25 25 26 25 25 24 23 23 22 21 20 20 19 18 18 17 17 17 17 16 16 16 15 15 16 16 16 16 16 16 16 16 16 17 17 17 17 17 17 17 17 17
28 27 27 27 26 26 26 26 26 26 26 26 26 26 25 25 24 23 22 21 20 20 19 19 19 19 18 18 18 18 17 17 17 17 17 17 17 17 18 18 18 18 18 18 18 17 17 17 17 17 17 18
29 29 28 27 27 27 27 26 26 27 27 27 27 26 26 26 25 24 22 21 20 20 20 20 20 20 19 19 19 19 19 18 18 18 18 18 18 19 19 19 19 19 19 18 18 18 18 18 18 18 18 18
30 29 29 28 28 28 27 27 27 28 28 28 28 27 27 26 25 24 23 22 21 21 21 21 21 21 20 20 20 20 20 19 19 19 19 19 19 19 19 19 19 19 19 18 18 18 18 18 18 18 18 18
30 30 29 28 28 28 28 28 29 29 29 29 28 28 27 27 26 24 23 22 22 22 21 21 22 21 21 21 21 21 20 20 20 20 20 20 20 20 20 20 19 19 19 18 18 18 19 19 19 19 19 19
31 30 29 29 29 29 29 29 30 30 29 29 29 28 28 27 26 25 23 23 22 22 22 22 22 22 22 22 22 22 21 21 21 21 21 21 20 20 20 20 19 19 19 18 19 19 19 19 19 19 19 20
32 31 30 31 31 31 31 31 31 30 30 30 29 29 28 27 27 25 24 24 23 23 23 23 23 23 23 23 23 23 22 22 22 22 21 21 20 20 20 20 19 19 19 19 19 19 19 19 20 20 20 20
33 32 32 32 32 32 32 32 32 31 31 31 31 30 29 28 27 26 25 25 25 24 24 24 24 24 25 25 24 23 23 23 23 22 22 21 21 20 20 20 20 19 20 20 20 20 20 20 20 21 21 21
33 33 34 34 33 33 33 33 33 33 33 33 32 32 30 29 28 27 26 26 25 25 25 25 25 25 26 26 25 24 24 24 23 23 22 22 22 21 21 20 20 20 20 21 21 21 21 21 22 22 22 23
34 34 35 35 35 35 35 35 35 34 34 34 34 33 31 30 29 27 27 27 26 26 26 26 26 26 27 27 26 25 24 24 24 23 23 23 23 22 22 21 21 22 22 22 22 22 22 23 23 24 24 24
35 36 36 36 36 37 37 38 37 36 35 35 35 33 32 30 29 28 27 27 27 27 27 26 27 27 28 27 26 26 24 24 24 24 24 24 24 23 23 23 23 23 23 23 23 23 24 24 25 25 25 25
37 38 38 38 39 39 40 40 39 38 37 37 36 34 31 30 29 28 28 28 27 27 27 27 28 28 29 28 27 26 25 25 26 26 25 25 25 25 24 24 24 24 24 24 25 25 25 26 26 26 26 26
40 41 41 41 42 42 42 41 40 40 39 37 36 33 30 29 29 29 28 28 28 28 29 29 29 30 30 30 28 27 26 26 27 27 27 27 27 26 25 25 24 25 25 25 26 26 27 27 27 27 28 28
40 41 41 42 42 42 41 41 40 39 38 36 35 32 30 30 30 29 29 30 30 31 31 31 31 31 31 31 29 28 27 27 28 29 29 29 28 27 26 25 25 26 26 27 27 27 28 28 29 29 29 30
38 39 39 39 39 39 39 39 38 38 36 35 34 32 32 32 32 32 33 33 34 34 34 33 33 33 32 31 30 29 28 28 29 30 30 30 29 28 27 26 27 28 28 28 28 29 30 30 30 31 31 31
36 36 36 36 37 37 37 37 37 37 35 34 34 35 35 35 36 36 36 36 37 37 36 36 35 34 32 31 30 29 29 30 30 31 31 31 31 29 28 28 29 29 29 29 29 30 32 32 32 32 32 32
35 34 34 35 36 37 37 37 37 37 37 37 38 39 38 38 38 38 38 38 38 38 37 36 35 33 32 31 31 30 30 31 32 32 32 33 32 31 31 30 30 30 30 30 31 33 34 34 34 34 33 32
33 33 34 35 36 37 39 39 39 39 39 40 40 40 40 39 38 38 38 38 38 37 37 36 35 34 33 33 32 32 32 32 32 33 33 34 34 33 32 31 31 31 32 32 33 35 36 35 35 35 33 32
33 34 35 36 37 38 39 40 40 40 39 39 39 39 38 37 37 37 37 37 38 37 37 37 36 36 35 34 34 34 34 34 34 34 35 35 35 35 34 33 33 34 34 34 34 36 38 37 37 36 34 34
34 34 35 36 37 37 38 39 39 39 37 36 36 36 36 36 37 38 38 39 39 39 39 39 38 38 38 37 37 37 37 37 37 37 37 36 36 36 35 36 37 37 36 35 36 38 38 39 38 38 37 37
34 35 35 36 37 37 38 39 38 37 37 37 37 37 38 39 39 40 41 41 42 42 42 41 41 41 41 41 40 40 41 41 40 39 39 39 39 38 38 40 40 39 37 38 39 38 39 40 40 40 40 40

ECMWFFLT2_700_spd_123.txt.gz
Wind_Speed
20 19 18 18 19 18 18 19 18 18 18 19 20 19 18 18 17 17 17 16 16 16 16 16 17 17 16 16 16 16 15 15 15 15 15 16 15 16 16 16 16 16 16 16 17 17 17 18 18 18 18 18
18 17 17 18 19 18 17 17 18 17 18 19 20 20 19 19 18 17 17 17 17 17 17 17 17 17 17 16 16 16 16 16 16 16 16 16 16 16 16 16 16 16 16 16 17 17 17 17 17 17 18 18
19 17 17 19 20 19 17 17 17 16 17 18 19 20 20 20 19 18 18 18 17 17 17 17 16 17 17 17 17 17 17 17 17 17 17 16 16 16 16 16 16 16 16 16 15 15 15 15 15 15 15 15
19 18 19 20 21 20 19 18 17 16 16 18 20 20 22 22 20 19 18 18 17 17 17 17 17 17 18 18 18 17 17 17 17 17 17 16 16 16 15 15 14 14 13 13 12 12 11 11 11 11 11 11
18 18 19 19 20 20 19 18 17 17 18 19 21 22 23 23 22 20 19 18 17 17 18 18 18 17 18 19 18 18 18 17 17 17 16 15 15 14 13 12 12 11 10 10 9 9 8 8 8 8 8 8
19 19 19 18 19 20 20 19 18 19 20 21 22 23 24 25 23 21 20 19 18 18 18 19 18 18 18 18 19 18 18 18 17 16 15 14 13 12 11 11 10 10 10 9 9 9 8 8 8 8 8 8
20 20 19 18 19 20 20 20 20 21 22 22 23 24 25 26 25 22 21 20 19 19 19 19 19 19 18 18 19 18 17 17 16 15 14 13 13 12 12 11 11 10 10 10 10 10 9 9 9 9 10 10
20 20 20 20 20 21 20 21 22 23 23 24 24 25 26 27 26 24 22 21 20 20 20 20 19 19 18 18 18 18 17 16 16 15 15 14 14 13 13 12 12 12 11 11 11 11 11 11 11 11 12 12
21 21 21 22 22 22 22 22 23 24 24 25 25 26 27 28 27 25 24 23 22 21 21 21 20 19 19 18 18 18 17 17 17 16 16 15 15 14 14 14 13 13 13 13 13 13 13 13 13 13 13 14
23 23 23 23 23 23 23 23 24 25 25 25 26 26 28 29 28 26 25 24 23 23 22 22 21 20 20 19 19 19 19 19 18 18 17 17 16 16 15 15 15 15 15 15 15 14 14 14 14 15 15 15
24 25 24 24 24 24 24 24 25 25 25 26 27 27 28 29 28 27 26 25 24 24 23 23 22 22 21 20 20 20 21 20 20 19 19 18 17 17 17 17 16 16 16 16 16 16 16 16 16 16 16 16
25 26 26 26 26 25 25 25 26 26 26 27 28 28 29 29 29 28 27 26 25 25 24 24 24 23 22 22 22 22 22 22 21 20 20 19 19 18 18 18 17 17 17 17 17 17 17 17 16 16 16 16
25 27 27 27 27 26 26 26 27 27 28 28 28 29 29 30 29 29 28 27 26 25 25 25 24 24 23 23 23 23 23 23 22 22 21 20 20 19 19 19 18 18 18 18 18 18 17 17 17 16 16 16
28 29 30 29 29 28 28 28 28 29 28 28 28 29 30 30 30 30 29 28 27 27 27 26 25 25 24 24 25 24 24 24 23 22 22 21 21 20 20 20 19 19 19 19 19 18 17 17 17 16 16 15
32 32 32 32 31 31 30 29 30 30 29 29 29 30 31 31 31 31 30 29 29 28 28 28 27 26 26 26 26 25 25 24 24 23 23 22 22 22 22 21 21 21 20 20 19 18 18 17 17 16 16 16
34 34 35 35 34 33 32 32 32 32 30 29 30 31 32 32 32 32 31 30 30 29 29 29 28 27 26 26 26 26 25 25 25 24 24 23 23 23 23 22 22 22 21 21 20 19 18 18 18 17 17 16
36 36 36 36 36 35 35 34 34 34 32 31 31 32 32 32 33 32 32 32 31 30 30 30 28 27 27 27 26 26 26 26 25 25 25 24 24 24 24 23 23 23 22 21 20 20 19 19 18 18 18 17
38 37 37 37 37 37 37 37 37 36 34 33 33 33 33 33 34 33 33 33 32 32 31 30 29 28 27 27 27 26 27 27 26 26 26 25 25 24 24 24 23 23 23 22 21 21 20 20 19 19 19 18
38 38 37 37 37 38 38 38 38 37 36 34 34 34 35 35 35 35 34 34 34 33 32 31 29 28 28 28 28 28 28 28 27 27 26 26 25 25 24 24 24 24 23 22 22 22 21 21 20 20 20 20
39 38 37 37 38 39 39 39 38 37 37 36 36 36 36 36 36 36 35 35 34 33 32 31 30 29 30 29 29 29 28 28 28 27 26 26 25 25 25 25 25 24 24 23 23 22 22 21 22 22 22 22
40 39 38 38 38 39 39 39 39 38 38 38 38 38 38 37 37 36 35 35 34 33 32 31 31 31 31 30 30 30 29 28 28 27 26 26 26 26 26 26 26 26 25 24 24 23 23 23 23 23 23 23
40 40 39 39 39 39 40 40 40 39 40 40 39 39 39 38 38 36 35 35 34 33 33 32 32 31 31 31 31 30 29 29 28 28 27 27 27 27 27 27 27 27 26 25 24 24 24 24 24 24 24 24
41 42 42 41 41 42 42 42 42 42 43 42 41 40 40 40 39 37 36 35 34 33 33 33 33 33 33 33 32 31 30 30 29 28 28 28 28 29 29 29 29 28 27 25 25 25 26 26 26 26 25 25
43 43 44 44 43 43 43 43 43 43 44 44 43 41 41 41 39 37 36 35 33 33 34 34 35 35 35 35 34 32 31 30 29 29 30 30 31 31 30 30 29 28 27 27 27 27 27 27 27 27 27 27
42 43 43 43 42 41 42 43 43 43 43 44 43 41 42 41 39 37 36 35 34 35 35 36 37 37 37 36 35 33 32 32 32 32 32 32 32 31 31 31 30 30 30 29 29 29 29 29 29 29 29 29
41 42 42 41 40 40 41 41 42 42 42 42 42 41 42 41 39 38 37 36 36 37 38 38 39 38 38 37 36 35 34 34 34 33 33 32 32 32 32 33 33 33 32 31 30 31 31 31 31 31 31 30
41 41 40 40 39 39 40 40 40 41 40 41 42 42 42 41 40 39 39 38 38 39 39 40 39 38 37 37 37 36 36 35 35 34 33 33 33 34 34 35 35 34 34 33 32 33 34 33 33 33 32 30
39 39 39 39 39 39 40 41 41 41 42 42 43 43 43 43 42 41 41 40 40 40 40 39 38 37 37 37 38 38 38 37 36 35 34 34 35 36 36 36 36 36 36 36 34 35 36 35 35 35 32 30
38 38 39 39 40 40 41 42 42 42 42 42 43 43 43 42 42 42 41 41 41 40 39 38 38 37 38 38 39 40 39 39 38 37 37 36 37 37 38 38 38 38 38 38 36 37 39 38 37 35 32 31
36 37 39 40 40 40 41 42 42 41 41 40 41 41 41 41 41 41 41 41 41 40 39 39 39 39 39 40 41 41 41 41 40 40 39 38 39 39 39 40 41 41 40 39 39 40 40 39 38 36 34 34
34 36 38 39 40 40 40 41 41 40 40 40 40 40 41 42 41 41 41 41 41 41 41 41 41 41 41 42 42 43 44 44 43 42 41 41 41 41 41 43 44 43 42 42 42 41 41 41 40 39 38 37

ECMWFFLT2_700_spd_126.txt.gz
Wind_Speed
18 16 14 13 13 14 14 16 19 20 21 21 21 19 17 17 17 19 19 20 20 20 19 19 18 18 18 17 17 17 16 16 16 16 16 16 17 17 17 17 18 18 18 18 18 18 18 19 19 19 20 20
18 15 14 14 16 16 16 17 19 20 21 21 21 21 20 18 18 20 21 21 22 21 20 20 19 19 19 18 18 17 17 16 17 17 17 17 17 17 17 18 18 18 19 19 19 19 19 19 20 20 20 20
21 20 19 20 22 22 21 20 20 21 21 22 22 23 22 20 20 22 24 23 24 23 22 21 20 19 19 19 18 18 18 17 17 17 17 18 18 18 18 19 19 19 19 19 19 19 19 20 20 20 20 20
23 23 23 24 24 24 24 23 23 22 22 22 22 24 25 25 24 25 25 24 24 24 23 22 21 20 20 19 19 19 19 18 19 18 18 18 19 19 19 20 20 20 20 20 20 19 19 19 19 19 19 19
23 25 25 25 24 23 24 24 24 22 22 21 21 22 23 25 26 26 25 24 23 23 22 22 21 21 20 20 19 19 19 19 19 19 19 19 19 19 20 20 20 20 20 20 19 19 18 18 17 17 16 16
24 25 27 26 24 23 24 24 23 22 22 21 21 22 23 24 25 25 26 24 24 24 24 23 22 22 22 21 21 20 20 20 20 19 19 19 20 20 20 20 20 20 20 19 18 17 17 16 15 15 14 13
27 28 28 26 24 24 24 24 22 22 22 21 22 23 24 25 25 26 26 26 26 26 25 24 23 23 23 22 21 21 21 21 21 20 19 19 19 19 19 19 19 19 18 18 17 16 15 15 15 14 13 13
31 30 28 26 25 23 23 23 23 24 24 24 24 25 26 27 27 28 28 27 27 26 25 24 23 23 23 23 22 21 21 21 21 20 20 19 19 19 19 19 19 18 18 17 17 16 16 15 15 15 14 14
30 28 27 26 25 24 23 23 23 24 25 26 27 27 29 29 29 29 29 28 27 27 25 24 24 23 23 23 22 22 22 21 21 21 20 19 19 19 19 19 19 19 19 18 18 17 17 16 16 16 15 15
28 26 25 25 26 26 25 24 24 25 26 27 27 28 29 29 29 30 30 29 28 27 26 25 24 24 23 23 23 22 22 22 21 21 21 20 20 20 20 20 20 20 19 19 19 18 18 17 17 17 17 16
25 25 24 23 25 27 26 26 26 27 28 28 28 28 28 28 29 30 31 30 28 27 26 26 25 24 24 23 23 23 23 23 22 22 21 21 22 21 21 21 21 20 20 20 19 19 19 18 18 18 18 18
25 24 23 23 25 26 27 27 27 28 28 28 28 28 28 28 29 30 31 31 29 28 27 26 26 25 24 24 24 24 24 23 23 22 22 23 23 23 23 22 22 21 21 20 20 20 20 20 20 20 20 19
26 24 23 23 24 26 27 28 28 28 28 28 28 28 28 28 29 30 31 31 30 28 27 27 26 26 25 25 25 25 25 24 24 24 24 24 24 24 24 23 22 22 22 21 21 21 21 21 21 21 21 21
26 24 23 23 23 25 27 28 28 29 29 29 29 29 28 28 29 30 31 32 31 30 29 28 28 27 26 26 26 26 26 26 25 26 26 26 26 25 25 24 24 23 23 23 22 22 22 21 21 22 21 21
28 27 27 26 26 27 28 28 29 30 31 31 30 30 29 29 30 31 32 32 32 31 30 29 29 29 28 28 28 28 28 27 28 27 28 27 27 27 26 26 25 25 24 24 23 23 23 22 22 22 22 22
32 32 31 30 30 30 29 30 31 32 32 32 31 30 30 30 30 31 32 33 33 33 32 31 30 30 29 29 30 30 30 29 29 29 29 29 29 28 28 27 26 26 25 25 24 24 24 23 23 23 23 22
35 35 34 34 33 32 32 33 34 34 34 34 33 32 32 31 31 32 33 34 35 34 34 32 31 31 31 31 31 32 31 31 31 31 31 30 30 30 29 28 27 27 26 26 25 25 24 24 24 24 23 23
38 37 37 36 35 35 35 36 36 36 36 36 36 35 35 34 33 33 34 35 36 35 35 34 33 32 32 32 33 33 32 32 32 32 32 32 32 31 30 29 29 28 27 26 26 25 25 25 25 25 24 24
40 40 39 39 38 37 37 38 37 37 38 37 37 37 37 37 36 35 35 36 37 37 36 35 34 33 33 33 34 34 34 34 34 33 33 33 33 32 31 30 30 29 28 27 27 27 27 26 26 26 25 25
40 40 40 40 39 39 38 37 38 38 39 39 39 38 38 38 37 36 36 36 37 37 37 36 35 34 34 34 35 35 35 35 35 35 35 34 34 33 32 31 31 30 29 28 28 28 28 28 28 27 26 25
40 40 40 40 40 40 39 38 39 39 39 40 40 39 39 39 38 37 37 37 37 37 37 36 36 35 35 35 36 37 37 37 37 36 36 35 34 33 33 32 31 30 30 29 29 30 30 30 29 28 27 27
39 39 40 40 40 40 40 40 40 40 40 42 42 41 39 39 39 39 39 38 38 38 38 37 37 36 36 36 37 38 39 38 38 37 36 35 34 34 34 33 32 31 31 31 31 32 31 31 30 29 29 29
39 39 40 41 41 41 42 42 42 42 43 43 43 42 40 40 41 41 40 39 39 39 39 38 38 37 37 37 38 40 40 39 38 37 36 35 35 35 34 34 33 33 33 33 33 33 32 31 31 31 31 31
41 41 42 43 43 43 44 44 43 43 44 44 44 42 41 41 42 41 41 41 40 40 40 39 39 39 39 39 40 41 41 40 38 37 37 37 36 36 36 35 35 35 35 35 34 34 33 33 33 33 33 33
42 42 44 45 45 44 45 44 44 44 44 44 44 42 41 41 42 41 41 42 42 41 40 40 40 40 40 41 41 42 41 40 39 39 39 38 38 38 37 37 36 36 36 36 35 34 34 34 35 35 35 35
42 43 44 44 44 44 44 44 44 44 44 43 42 42 41 40 41 42 41 43 42 41 41 41 41 41 41 41 42 42 42 41 41 41 40 40 39 38 38 38 37 37 37 36 35 35 36 36 36 37 37 36
42 43 43 43 44 44 44 44 44 43 43 42 41 43 43 42 43 43 44 45 43 41 41 42 42 41 41 42 42 43 42 42 42 42 41 41 40 40 39 39 39 38 38 38 37 37 38 38 38 39 39 38
43 43 43 43 43 44 45 45 45 44 44 45 45 46 46 44 44 45 45 46 44 41 40 42 43 42 41 42 42 42 43 42 42 42 42 42 41 41 41 40 40 39 40 40 40 39 39 40 40 40 40 38
41 43 43 43 43 44 46 46 47 46 47 47 46 46 46 44 45 45 44 45 45 42 42 45 45 43 42 43 42 43 43 42 42 42 43 43 43 43 43 42 42 42 42 42 41 41 42 42 42 41 41 39
38 41 43 44 44 45 46 46 47 46 45 45 44 43 43 43 43 43 44 46 45 44 46 47 45 42 42 43 43 42 43 43 43 43 44 44 44 45 44 44 45 44 43 43 43 43 44 44 43 42 42 40
35 38 41 43 45 45 45 45 46 44 43 42 42 41 41 41 41 41 44 46 45 45 48 47 44 41 42 46 45 43 43 44 44 44 44 45 46 46 46 47 47 46 45 45 45 45 45 45 44 44 43 41

ECMWFFLT2_700_spd_129.txt.gz
Wind_Speed
27 27 27 25 21 19 19 20 21 23 24 22 22 22 21 21 21 21 20 19 18 16 14 14 15 15 16 16 16 17 18 18 19 19 19 19 19 18 18 18 18 18 18 18 18 19 19 19 19 18 18 18
25 24 23 22 21 20 19 19 19 19 20 21 21 21 19 18 18 18 18 19 19 19 17 16 16 17 18 18 18 18 18 19 19 19 18 18 18 18 18 18 18 18 19 19 19 19 20 20 20 20 20 20
25 27 25 24 23 19 17 16 14 14 16 20 21 21 20 20 19 18 18 19 20 20 19 18 17 18 19 19 20 20 20 19 18 18 18 18 18 19 19 19 19 19 20 20 20 21 21 21 21 21 21 20
28 30 28 25 23 19 17 17 16 15 17 18 19 20 21 22 22 22 22 22 22 22 22 20 19 19 19 20 20 20 20 19 19 18 19 19 19 20 20 20 20 21 21 21 21 22 22 22 22 22 22 21
29 30 28 26 23 19 19 19 19 19 19 20 19 19 20 20 21 23 23 23 23 24 22 19 19 20 20 22 22 22 20 19 19 19 19 20 21 21 21 21 21 21 22 22 22 22 23 23 23 23 22 22
29 27 27 26 24 21 20 20 21 21 22 23 23 22 22 22 21 21 21 20 20 20 19 19 21 22 23 23 24 24 23 21 20 19 20 21 22 22 22 22 22 22 22 23 23 23 23 23 23 23 22 22
31 30 28 26 25 25 24 23 22 22 23 25 26 24 24 24 23 22 21 20 19 18 18 21 23 24 25 25 25 26 26 26 24 23 22 22 23 23 23 23 23 23 23 24 24 24 23 23 23 22 22 21
34 34 33 28 23 24 26 26 23 23 24 25 26 24 24 24 24 23 22 23 23 22 21 22 23 24 26 27 27 27 27 27 27 26 25 25 25 24 25 24 24 24 24 24 24 24 23 22 22 21 20 20
37 35 35 32 25 24 26 26 24 25 26 25 26 25 24 24 25 25 25 26 26 26 26 26 26 27 27 28 29 29 28 28 27 26 26 26 26 25 25 25 25 25 25 25 24 23 22 22 21 20 20 19
38 37 36 35 30 28 27 27 27 26 27 26 26 26 26 26 27 28 28 29 29 29 28 28 28 29 29 29 29 29 28 28 27 27 26 26 26 25 25 25 25 25 25 25 24 23 22 21 21 20 20 19
39 38 34 32 31 31 29 28 27 27 28 27 27 27 27 27 28 29 30 31 32 31 31 30 29 30 30 30 29 28 28 28 27 26 26 25 25 25 25 24 25 25 25 24 24 23 22 22 21 21 20 20
39 37 33 31 30 30 27 26 26 27 29 29 29 29 28 28 28 29 31 32 33 33 33 32 31 31 31 30 29 28 28 27 27 26 26 25 25 25 24 24 24 25 25 25 24 24 23 22 22 21 21 21
38 35 33 32 30 25 22 22 23 25 28 28 30 30 29 28 27 28 29 31 31 32 33 32 31 31 30 29 29 28 28 27 27 26 26 25 25 25 25 25 25 26 26 26 25 25 24 23 23 22 22 22
34 33 31 32 32 28 23 22 24 27 27 27 28 28 29 29 28 28 29 29 30 31 31 30 30 29 29 29 29 29 28 28 28 27 27 26 26 25 26 26 27 27 27 27 26 26 25 25 24 24 23 23
31 30 30 30 32 32 28 24 25 27 27 27 28 28 29 29 29 29 29 29 29 30 30 29 30 29 29 30 30 30 30 29 29 28 28 27 27 27 27 27 28 28 28 28 28 27 26 26 25 25 25 25
31 31 29 28 29 31 30 27 25 26 28 29 29 29 29 29 30 30 30 30 29 29 29 29 30 30 31 31 31 31 31 30 30 29 29 29 28 28 29 29 30 30 30 29 29 28 28 27 27 27 26 26
34 33 30 29 28 28 28 29 28 29 31 33 33 33 33 32 32 32 32 31 31 31 30 30 31 31 32 32 32 32 32 32 31 30 30 30 30 30 30 31 31 32 31 31 30 30 29 29 28 28 28 27
38 37 34 33 33 31 31 32 33 33 34 35 36 36 35 34 34 34 34 33 33 33 32 32 32 32 33 33 33 33 33 33 32 31 31 31 31 31 32 32 33 33 33 32 32 31 31 30 30 29 29 28
39 39 39 39 38 37 38 38 36 37 36 36 37 37 37 37 36 35 35 35 35 35 35 35 35 35 35 35 35 34 34 34 33 33 33 33 33 33 33 34 34 34 34 34 33 33 32 32 31 30 29 28
37 38 40 41 41 41 43 40 38 38 37 37 37 37 38 38 38 37 36 36 36 37 37 37 37 37 37 37 36 36 35 35 34 34 34 35 35 34 35 35 35 36 35 35 35 34 33 32 31 31 30 30
36 37 39 41 42 44 44 41 40 40 38 38 38 37 37 38 39 39 37 35 35 37 38 38 38 38 38 37 37 37 36 36 35 34 35 36 36 36 37 37 37 38 37 37 36 35 34 33 33 32 32 32
36 36 37 39 42 43 43 42 43 42 41 40 39 39 39 38 39 39 38 36 35 36 38 38 38 37 37 37 37 37 36 37 36 35 36 37 38 38 38 39 39 39 38 37 36 35 35 34 34 34 33 33
38 37 37 38 41 42 43 44 45 43 43 42 41 41 41 39 39 39 40 39 36 36 39 40 39 38 37 38 38 38 37 38 37 37 38 39 40 40 40 40 39 39 38 37 36 36 35 35 35 35 34 34
39 39 38 39 41 42 43 43 43 44 45 45 44 43 42 41 40 39 41 42 38 36 39 39 38 39 38 38 39 39 39 39 38 38 39 40 42 42 41 41 40 39 38 37 37 37 37 36 37 36 36 36
40 40 40 40 41 41 42 41 42 43 45 45 43 43 43 42 42 41 42 44 41 38 39 38 39 41 39 39 40 40 40 40 40 39 40 41 43 43 43 42 41 40 39 39 39 38 38 38 38 38 38 37
41 42 41 41 41 41 41 42 43 43 43 43 42 43 43 43 44 43 43 46 44 39 40 41 43 44 42 40 41 41 42 42 42 41 40 41 42 44 45 44 43 41 41 41 40 39 39 40 40 40 39 38
42 42 43 42 42 42 42 43 43 42 42 44 44 44 45 46 46 44 44 46 43 39 41 44 46 46 43 41 41 42 42 43 43 42 42 42 42 44 45 46 45 43 42 42 41 41 42 42 41 41 41 40
44 43 44 44 45 44 43 45 43 42 44 46 47 47 46 46 46 45 45 46 44 41 41 42 45 45 42 39 39 40 41 43 44 43 42 42 43 44 45 47 46 44 44 44 43 43 43 42 42 42 42 40
43 44 43 43 46 46 46 47 46 46 47 47 48 49 48 46 46 47 46 46 45 45 44 43 45 45 42 39 38 39 42 44 45 45 45 43 43 44 45 47 47 46 45 46 45 45 44 44 44 44 43 42
38 41 41 40 42 44 46 48 49 48 46 45 46 46 45 45 47 48 47 46 45 47 48 47 46 47 47 45 44 46 47 46 45 45 46 46 44 44 45 47 48 48 47 47 47 47 46 46 46 45 44 44
33 36 40 40 40 41 44 48 50 48 46 45 45 43 43 44 45 46 45 45 46 47 49 48 46 48 50 49 50 52 49 47 48 46 46 47 46 45 46 47 49 50 48 48 49 49 47 47 47 46 46 46

ECMWFFLT2_700_spd_132.txt.gz
Wind_Speed
27 29 29 29 29 30 30 29 30 30 31 31 30 31 33 33 32 30 30 30 29 27 23 20 17 16 17 16 15 14 14 14 14 15 15 15 16 16 17 18 18 19 19 19 19 19 19 19 20 20 20 20
25 28 28 27 27 28 28 29 31 29 27 27 27 27 29 31 33 31 31 33 33 32 29 25 21 18 17 15 15 14 12 11 11 12 13 14 15 16 16 17 18 18 19 19 19 19 19 19 20 20 20 21
25 27 29 28 26 25 24 26 28 26 24 23 23 23 24 26 29 30 30 32 33 33 31 27 24 21 18 16 15 15 14 11 10 10 11 12 13 14 16 17 18 18 18 19 19 19 19 19 20 20 21 22
26 27 28 27 25 23 22 23 24 23 22 21 20 18 18 20 23 25 26 29 31 30 28 27 26 25 22 20 18 17 16 13 11 10 10 11 12 13 15 17 18 18 19 19 19 19 20 20 20 20 21 22
27 27 28 28 27 26 25 23 24 23 21 20 18 17 16 16 17 19 20 23 28 29 27 26 26 25 24 23 22 21 19 16 12 9 10 11 12 13 15 17 18 18 19 19 20 20 21 20 20 21 22 23
28 29 29 30 30 29 29 27 25 23 21 20 19 18 18 17 16 16 17 19 23 26 26 27 27 26 26 26 27 26 23 20 15 11 11 12 14 16 16 16 17 18 19 20 21 21 21 21 22 22 23 24
30 30 30 33 34 32 30 29 27 22 20 20 20 20 21 21 19 18 17 18 20 22 23 25 26 27 28 28 29 29 26 24 20 16 15 15 15 17 17 17 18 18 19 20 21 21 21 22 23 23 24 25
32 33 33 35 36 34 30 27 26 24 22 22 21 21 21 21 21 21 20 19 20 20 20 20 21 22 25 25 26 27 25 25 24 22 21 20 20 21 22 22 22 21 21 21 21 21 21 23 24 24 24 25
33 35 36 38 39 36 32 28 26 24 23 23 22 22 21 21 21 22 23 21 20 18 17 17 17 17 19 20 22 22 21 21 22 22 21 21 23 24 24 25 25 25 25 24 24 23 23 24 24 24 24 24
32 35 37 41 41 39 36 31 27 23 22 25 25 24 23 22 22 22 23 23 22 20 18 17 16 15 15 17 19 19 19 19 18 18 19 21 22 23 24 25 25 26 27 27 26 26 26 26 25 25 24 24
29 32 37 43 42 41 39 34 30 24 23 27 26 25 25 24 23 23 23 24 24 24 23 21 20 18 17 18 18 18 18 18 18 17 19 22 26 26 26 26 27 27 28 28 28 28 28 28 27 26 25 25
28 29 35 43 43 40 36 33 31 27 27 30 27 24 25 24 23 24 24 26 26 26 27 26 25 24 23 22 22 21 20 20 20 20 21 24 27 29 29 28 28 29 29 29 29 30 29 29 28 26 26 25
27 29 32 37 39 38 35 34 33 29 29 30 26 23 24 24 23 24 25 26 27 27 28 28 27 26 26 27 27 26 24 25 25 24 25 26 28 29 29 29 29 30 30 30 29 29 29 28 27 26 26 25
26 29 32 34 35 34 33 34 34 32 31 29 25 22 23 22 22 24 26 27 27 27 27 27 28 27 27 29 30 29 28 28 28 27 27 28 28 29 29 29 28 29 28 28 28 28 28 27 27 27 26 26
27 29 33 34 34 31 29 31 32 30 30 29 27 23 22 22 22 23 24 25 27 26 25 25 25 25 26 27 27 27 27 28 28 27 27 27 27 28 28 28 28 27 27 27 27 27 27 27 27 27 27 27
29 30 32 33 32 31 30 30 30 28 28 30 30 27 25 24 23 23 23 24 26 25 24 24 25 24 23 23 24 25 25 26 27 27 27 27 27 28 28 28 28 27 27 27 27 28 28 28 28 28 28 28
30 31 34 36 34 31 31 29 29 29 29 30 30 31 30 27 26 25 25 26 27 27 27 27 28 27 27 26 25 24 24 26 27 27 27 28 28 29 29 29 29 28 28 28 29 30 30 30 30 30 30 29
31 32 34 38 35 32 33 33 30 29 30 30 29 31 32 30 29 29 29 30 31 32 33 33 33 33 32 31 29 27 26 27 27 27 27 29 30 30 30 30 31 30 30 30 31 32 32 32 32 31 31 31
31 32 34 36 36 36 39 39 35 32 32 31 30 31 32 32 32 32 32 33 34 35 36 37 37 35 34 32 31 29 29 29 29 28 28 30 31 31 31 31 32 32 31 32 33 33 33 33 33 32 32 32
31 32 34 35 36 38 42 42 41 39 38 36 34 34 35 34 36 35 33 34 34 35 36 36 36 35 35 34 33 32 32 32 32 31 31 32 32 33 33 33 33 33 33 33 34 34 35 35 34 34 34 33
32 33 34 35 36 37 40 42 43 43 43 43 40 39 41 40 40 37 34 34 35 34 35 35 35 35 36 36 36 35 35 35 34 34 33 34 34 34 35 34 34 35 34 34 35 36 36 36 35 36 35 34
32 32 34 35 35 36 40 42 43 44 44 44 43 41 43 43 41 39 36 35 36 36 36 34 34 35 35 36 36 35 34 34 34 34 34 35 36 36 36 35 35 36 36 36 36 37 37 37 37 37 36 36
30 31 34 34 34 36 40 43 44 46 44 42 43 42 42 42 41 41 40 37 37 38 37 36 34 34 34 34 35 34 33 33 33 33 34 36 37 37 37 36 36 37 38 37 37 37 38 38 38 38 37 37
27 31 35 35 35 36 39 42 43 45 43 41 42 41 42 44 43 43 44 41 38 38 38 37 36 36 35 35 35 35 35 34 33 32 33 36 37 38 38 37 37 38 39 38 38 39 39 39 39 39 38 37
30 30 33 35 37 38 38 41 41 43 42 40 40 42 43 45 44 45 45 44 41 41 41 38 38 39 37 37 38 37 36 36 36 35 33 34 37 39 39 38 38 38 39 40 40 40 40 40 41 41 40 39
39 36 35 36 37 38 40 40 39 40 42 40 40 43 44 45 45 45 45 45 44 44 44 41 41 42 39 38 39 37 36 38 40 38 35 35 35 36 38 39 39 39 40 40 41 41 41 42 42 42 42 41
40 41 41 39 38 39 40 40 38 38 40 42 42 43 44 45 46 45 45 45 45 45 46 45 44 42 39 39 38 36 38 41 41 39 38 39 35 33 36 40 40 40 39 40 41 42 44 44 43 43 44 44
33 38 41 42 42 42 41 41 41 39 40 43 45 46 46 47 47 47 46 46 46 47 48 47 46 44 40 39 38 36 38 42 42 40 41 41 37 34 35 38 39 39 38 40 42 44 45 44 45 46 46 44
26 30 35 39 41 43 43 42 42 42 43 44 44 45 46 46 46 48 48 47 47 47 45 45 46 46 43 40 40 38 38 42 42 40 42 43 39 35 34 35 35 37 38 40 41 43 45 46 47 47 45 44
18 21 27 32 36 39 41 42 41 42 44 44 44 44 44 44 45 46 48 48 49 48 45 43 43 45 45 43 44 41 38 40 41 41 43 43 41 38 37 37 38 38 39 40 41 43 44 46 48 47 46 46
19 19 20 24 28 33 36 39 40 40 41 42 43 42 40 41 43 44 46 47 48 48 46 44 43 45 45 44 46 45 40 40 41 42 43 43 44 43 40 41 44 42 40 41 42 42 43 45 48 49 49 48

ECMWFFLT2_700_spd_135.txt.gz
Wind_Speed
22 24 26 25 29 31 28 25 26 28 29 32 35 33 32 32 30 28 27 26 27 27 28 29 29 28 28 29 28 26 24 21 18 17 19 20 20 21 21 21 22 21 21 20 21 21 21 22 22 21 21 20
23 25 26 25 28 29 28 26 26 29 32 34 36 35 34 33 30 29 28 26 26 28 29 29 30 29 29 30 30 28 26 24 21 20 21 21 20 20 20 20 20 21 21 20 21 21 21 22 22 22 21 20
24 26 26 26 26 26 26 26 25 26 29 32 34 34 33 31 29 29 28 26 26 27 29 30 31 30 29 30 30 28 27 27 24 23 23 22 20 19 18 18 19 20 20 21 21 21 20 21 22 22 21 20
26 26 25 26 26 26 27 26 25 25 27 28 30 32 31 28 26 25 25 23 23 25 27 30 32 32 30 30 29 27 26 26 24 24 23 21 19 17 16 16 16 17 18 19 19 19 19 20 22 22 21 19
25 25 25 26 27 28 29 27 25 26 27 25 23 25 26 25 23 22 21 19 19 21 23 27 31 33 32 31 29 28 26 23 21 22 22 20 18 16 15 13 14 14 15 16 16 16 17 18 20 21 20 19
24 26 26 27 28 30 30 29 27 28 28 23 21 22 24 23 22 21 19 17 17 18 20 23 26 31 34 33 31 29 26 23 20 20 21 19 17 16 14 13 12 13 12 12 13 14 15 17 19 20 20 19
23 25 27 28 28 30 34 33 30 31 29 25 24 24 23 22 21 20 18 16 15 16 19 21 24 27 32 34 34 33 31 28 23 20 19 19 18 16 15 14 12 12 11 9 9 11 13 15 18 19 19 18
23 23 26 30 31 32 36 36 33 33 32 27 26 24 23 22 20 19 17 15 14 15 16 18 21 24 27 31 32 34 34 33 29 24 21 21 21 20 19 18 15 14 13 11 10 11 12 13 16 17 17 17
23 23 24 31 35 35 38 40 37 36 33 29 26 26 25 22 20 18 17 15 14 13 13 13 14 17 21 25 28 31 33 34 34 33 28 26 25 24 24 24 22 19 17 16 15 15 16 16 16 17 16 16
22 24 26 29 31 35 42 44 39 35 32 30 28 26 25 23 21 19 17 17 17 15 13 12 12 12 14 17 21 24 26 29 33 35 35 33 31 31 30 29 28 26 24 21 20 20 21 20 19 19 19 18
22 24 27 27 27 32 38 41 39 36 37 36 31 27 24 22 21 21 19 18 19 19 16 14 12 12 12 13 14 15 16 19 22 26 29 31 33 34 35 33 32 31 29 27 26 26 27 25 23 22 23 21
22 22 26 28 29 31 33 36 37 38 41 37 31 27 23 21 23 23 21 21 20 20 19 16 14 13 14 15 15 14 12 13 13 14 16 19 22 25 28 30 30 29 29 28 28 29 30 29 27 25 25 24
22 21 25 28 30 32 33 35 37 39 40 34 28 26 22 22 25 24 21 21 20 19 20 18 16 16 16 17 17 15 14 14 13 13 13 13 15 17 18 21 22 23 23 22 22 23 24 25 23 23 24 24
24 23 24 26 29 32 32 33 36 38 36 30 25 25 24 24 26 28 25 21 20 20 20 19 18 18 18 19 17 15 15 16 16 16 16 16 16 16 17 18 19 19 19 18 19 19 19 20 21 22 24 26
26 25 25 25 30 34 33 33 35 35 35 30 23 22 24 24 24 27 27 22 20 20 20 19 18 18 19 19 18 17 17 18 18 17 18 19 19 19 19 19 20 21 21 22 22 22 22 23 25 27 28 29
27 28 27 27 29 32 34 35 34 35 39 35 24 22 24 23 23 24 25 25 23 21 20 19 19 19 19 19 19 18 18 19 19 19 20 21 21 22 21 21 22 23 24 26 27 26 26 26 28 30 30 30
27 29 29 29 29 30 33 36 37 37 42 41 31 26 26 25 26 25 25 27 27 24 23 21 20 20 21 20 19 19 20 20 20 21 22 22 23 23 23 24 24 24 25 27 29 29 28 28 28 29 30 29
27 29 30 31 31 31 33 36 38 38 40 42 36 30 28 28 28 27 26 28 29 28 26 25 23 22 23 22 22 22 23 24 23 24 24 24 25 25 25 25 25 25 26 27 29 29 29 29 29 29 29 29
25 27 29 31 32 33 34 35 35 36 38 39 37 36 32 29 30 30 29 28 29 29 28 28 27 26 26 26 27 27 27 28 28 28 27 26 26 25 25 26 26 26 27 28 29 30 29 30 30 30 31 30
25 26 28 30 32 34 35 36 36 36 37 38 39 41 37 33 33 33 32 31 30 30 30 30 30 30 30 30 30 30 31 30 29 28 27 27 26 26 26 27 27 27 27 28 30 31 31 31 31 31 32 32
27 25 25 27 30 34 35 36 37 38 38 37 38 41 40 37 37 37 36 35 33 33 34 34 32 33 33 32 32 31 30 29 28 28 28 28 29 29 29 30 30 30 29 30 31 32 32 32 32 32 32 33
31 27 24 23 26 30 33 35 35 35 35 35 37 43 44 42 42 42 40 38 38 38 38 38 36 35 34 33 32 31 30 29 28 28 27 28 29 30 30 31 31 31 31 32 32 32 33 33 33 33 33 34
34 32 29 24 22 24 27 31 33 33 33 34 37 40 41 41 43 44 44 42 43 43 41 41 40 37 36 34 32 32 31 31 30 28 27 26 27 28 29 29 30 31 31 32 33 34 34 33 34 34 34 35
36 35 33 28 25 25 25 27 30 31 33 36 39 39 37 37 40 42 44 44 47 47 43 42 42 38 37 35 33 33 34 33 32 30 28 27 27 28 29 29 30 31 31 32 33 35 35 35 35 36 36 36
36 36 35 32 30 30 30 29 29 28 31 36 40 43 42 41 40 40 41 41 44 49 48 44 43 42 39 36 33 35 36 35 35 33 31 31 31 31 31 29 29 30 30 31 32 33 34 35 36 38 38 38
35 37 37 36 35 33 32 31 30 29 30 32 36 40 43 45 44 41 42 41 40 46 49 45 43 44 42 39 38 38 36 35 36 36 35 34 32 31 32 31 31 31 30 29 30 31 33 36 38 38 38 39
30 35 38 38 38 36 35 34 34 35 35 33 32 34 38 41 43 42 42 41 38 42 45 44 44 45 44 44 44 42 38 36 38 39 39 37 35 34 33 33 33 32 29 28 28 31 34 36 37 39 40 40
18 25 31 36 39 40 39 38 38 39 41 42 41 40 39 40 39 39 40 38 38 40 41 41 42 42 42 42 43 44 42 40 40 41 41 39 37 37 36 35 34 32 30 30 30 32 34 35 37 40 40 38
9 12 16 22 29 35 40 42 42 41 42 44 47 47 46 43 40 39 40 39 39 38 38 39 39 39 40 39 40 42 44 45 44 43 41 39 38 37 37 36 35 34 34 32 32 33 34 35 37 38 36 35
12 12 12 13 16 20 26 33 39 42 43 43 46 48 48 46 44 42 42 41 39 36 36 38 39 41 43 43 41 39 40 43 46 46 44 42 39 39 39 39 39 39 36 33 33 34 34 35 36 36 34 36
17 17 17 17 17 16 17 20 25 31 37 42 45 47 47 44 43 44 45 45 44 40 37 35 36 40 43 44 44 43 41 41 43 46 46 45 43 42 43 42 42 41 37 36 35 35 34 35 37 37 36 37

ECMWFFLT2_700_spd_138.txt.gz
Wind_Speed
25 23 25 27 25 32 34 35 37 35 34 33 35 36 34 32 32 32 28 25 23 23 24 22 22 23 24 23 24 25 25 26 29 33 33 30 29 27 26 27 27 26 26 27 28 28 28 27 26 24 23 23
25 23 23 25 25 29 30 29 31 31 30 28 29 30 30 30 30 32 33 33 31 29 29 26 24 24 23 23 23 25 26 27 30 34 33 30 30 29 28 27 27 26 25 26 27 27 27 26 25 24 23 24
22 23 22 23 26 30 30 31 32 30 26 24 25 25 26 27 28 30 32 34 34 32 30 26 23 23 23 22 22 24 26 28 30 33 34 31 29 30 30 28 26 26 25 26 26 26 26 25 24 23 23 23
19 22 24 24 26 29 28 28 29 26 23 23 24 25 26 27 28 28 30 32 32 29 26 22 19 19 21 22 22 24 26 28 29 30 32 29 28 28 28 28 26 25 25 25 26 25 25 24 23 23 22 22
18 21 25 26 26 27 27 26 27 26 26 26 25 26 27 28 29 26 25 27 26 24 22 20 17 16 18 20 22 23 26 28 27 26 26 26 26 27 26 26 26 25 25 25 24 24 24 22 21 21 22 22
18 19 23 25 26 27 27 27 28 29 29 29 27 27 27 26 25 22 21 22 23 22 21 19 17 14 14 18 22 23 24 27 27 25 23 22 23 26 26 25 25 24 25 25 24 23 24 21 19 19 20 22
19 20 22 25 27 27 28 29 30 30 29 29 27 28 27 23 22 21 21 22 21 20 20 19 16 13 12 15 20 25 26 27 27 26 24 23 21 23 25 25 24 23 23 24 23 22 23 22 19 18 18 20
20 21 23 26 26 26 28 30 30 30 29 29 29 31 30 24 23 24 23 22 20 17 17 16 13 11 11 12 15 22 28 30 29 27 26 25 23 21 21 22 22 21 20 21 22 21 20 20 18 17 18 18
20 21 25 27 27 27 28 30 32 30 29 31 32 33 31 26 26 25 24 22 18 16 14 13 11 10 11 11 12 15 22 29 33 31 29 29 27 24 22 21 20 20 19 19 20 20 19 18 17 16 16 16
21 21 23 25 27 30 28 27 31 32 30 33 36 34 31 27 25 23 23 22 19 16 14 13 11 11 11 11 12 12 14 21 28 32 32 33 32 30 27 24 22 21 20 20 21 21 19 18 17 16 16 16
24 22 21 23 27 30 30 28 31 33 33 36 38 35 30 26 24 23 24 23 20 18 16 14 12 12 13 12 11 10 10 12 17 23 28 32 35 36 35 32 29 26 25 24 24 24 23 21 20 18 18 17
27 25 23 24 25 29 33 33 33 33 34 35 34 31 29 29 30 30 27 24 22 21 19 16 15 15 14 14 12 10 10 10 11 15 20 24 29 34 39 40 38 34 32 31 30 28 28 27 25 23 22 21
28 28 26 26 26 27 33 35 34 33 33 33 33 32 32 34 36 33 27 23 23 23 21 19 18 18 16 15 15 14 13 12 12 13 15 18 22 26 32 38 41 39 37 36 36 34 33 33 32 30 28 27
28 29 28 28 27 27 30 32 33 33 32 32 34 34 34 37 35 27 24 22 21 23 22 21 20 20 19 18 17 16 16 15 15 16 16 17 18 20 23 28 33 38 40 40 40 39 38 38 37 36 34 33
27 29 29 29 28 27 28 30 32 33 32 32 33 35 38 39 31 21 20 18 17 20 22 23 22 21 20 20 19 18 17 17 17 17 17 17 18 18 19 20 23 27 33 37 39 40 40 39 38 36 35 34
24 28 30 30 29 28 27 29 33 35 35 34 35 37 39 40 32 22 17 15 15 17 19 21 22 22 22 21 21 20 19 19 19 18 18 19 19 19 18 18 18 20 22 26 30 33 34 34 33 31 29 29
24 24 27 29 30 30 29 29 32 35 36 35 35 36 39 41 36 25 16 16 18 18 19 21 23 23 22 22 22 22 21 21 21 20 20 20 19 19 19 19 18 19 19 21 23 24 26 27 28 27 25 24
26 24 24 26 28 30 30 30 31 32 33 35 35 35 38 40 37 31 23 19 20 22 22 22 23 24 23 23 23 23 22 22 22 21 21 20 20 20 21 21 20 20 21 21 22 22 24 25 26 25 24 23
28 27 25 25 26 28 29 30 32 33 33 34 35 36 37 38 38 39 33 26 24 25 24 24 23 24 25 25 25 25 24 23 23 23 23 22 22 22 22 22 22 22 22 23 23 23 23 24 25 26 25 24
31 29 29 28 28 27 26 27 29 32 33 34 35 36 37 37 40 41 36 33 31 29 28 26 24 24 26 28 29 29 27 27 26 26 26 25 25 25 25 25 24 23 23 24 24 24 24 25 26 26 26 26
33 32 31 29 29 29 26 26 27 27 29 32 34 35 37 38 39 40 38 38 38 36 33 30 27 26 27 30 31 32 32 31 30 29 29 28 27 27 26 26 26 25 25 25 26 26 26 27 27 28 28 28
34 33 32 30 30 31 29 28 27 26 25 27 30 32 35 37 38 39 39 39 41 42 40 35 33 31 29 31 33 34 35 35 35 34 32 30 29 28 26 26 26 26 27 27 28 28 28 28 29 30 31 31
35 33 33 32 31 30 31 30 29 28 27 27 26 26 29 34 37 37 35 34 36 43 45 42 40 37 34 34 36 37 38 39 39 39 37 33 29 28 26 26 26 27 29 30 31 30 30 30 30 31 33 34
35 34 33 33 33 33 32 33 32 30 29 29 27 25 27 29 32 34 34 32 32 38 42 41 43 43 40 39 39 39 41 41 39 38 37 32 28 28 27 26 27 27 29 30 31 32 32 32 32 33 34 35
34 33 33 32 33 34 35 36 36 33 31 31 28 28 29 28 29 30 32 33 34 36 36 36 37 38 39 41 41 41 44 42 37 36 35 32 29 28 28 28 28 28 29 30 30 30 31 31 33 34 34 35
33 32 31 31 30 30 32 36 37 35 35 36 34 33 32 31 32 32 30 30 33 37 39 38 36 33 34 38 40 43 46 45 40 38 36 34 33 32 31 31 31 30 30 30 29 28 28 30 31 32 33 34
27 31 32 34 34 34 32 30 31 32 33 35 38 39 38 35 33 33 33 33 35 39 42 44 43 38 33 34 37 41 45 46 42 39 38 37 37 36 35 34 34 33 32 31 30 29 30 30 30 31 33 34
14 20 25 29 33 38 40 36 35 36 32 30 31 33 38 39 36 32 31 32 35 38 41 43 46 45 39 34 36 41 45 47 45 42 41 40 40 39 38 38 36 35 34 33 33 32 33 32 32 33 33 32
9 11 13 16 20 26 32 37 41 45 43 39 35 30 29 33 37 37 37 36 37 39 41 42 43 46 45 38 38 42 42 43 43 43 44 43 43 42 41 41 40 38 38 37 35 34 35 34 34 34 30 28
13 14 13 14 15 16 19 24 30 36 41 44 46 44 37 32 32 34 35 36 36 38 39 40 40 42 45 40 38 40 40 39 38 38 39 40 41 42 43 44 44 42 41 41 39 37 37 36 36 34 31 30
18 18 19 19 19 19 19 20 21 23 27 31 38 45 46 44 42 40 37 32 31 33 35 37 38 40 44 45 41 40 41 40 38 36 35 36 37 39 41 44 46 45 43 44 42 40 38 37 38 37 35 34

ECMWFFLT2_700_spd_141.txt.gz
Wind_Speed
22 22 22 24 27 28 32 39 37 38 40 39 41 42 39 37 33 28 24 24 26 25 25 25 23 20 17 16 19 20 20 19 19 20 22 24 27 29 30 32 33 34 35 35 33 31 29 27 27 26 27 27
22 22 24 24 28 30 33 40 39 38 40 42 42 39 37 34 27 24 28 29 27 26 27 26 27 27 26 25 24 23 22 21 22 23 24 26 27 30 32 33 34 34 34 35 35 32 29 27 26 25 26 27
20 20 22 23 25 22 25 24 26 32 33 36 35 30 29 25 22 23 25 25 24 25 26 26 29 30 31 30 25 21 20 20 21 24 25 27 28 30 31 33 33 33 33 33 33 32 29 26 24 24 24 25
19 19 19 20 20 18 20 18 23 27 29 30 25 22 24 24 23 23 23 23 23 24 26 27 27 26 26 24 21 18 17 17 18 20 23 25 27 31 32 32 33 32 32 31 31 30 27 25 24 24 24 24
20 19 16 17 19 18 23 27 27 29 30 29 26 23 24 25 24 23 23 24 24 24 24 23 21 20 20 19 18 17 16 16 17 18 20 22 26 30 31 31 31 32 33 32 30 28 27 26 25 24 24 24
20 19 17 18 21 21 23 26 27 28 29 30 30 26 24 25 25 26 26 25 24 22 20 18 17 17 18 17 16 16 16 16 17 18 20 21 24 28 28 29 30 32 34 33 31 29 28 28 26 24 24 24
22 21 20 20 21 21 21 24 26 29 30 30 30 28 27 26 25 27 27 25 24 21 18 17 17 17 16 15 13 14 15 16 16 17 19 19 22 23 23 25 27 29 32 32 31 29 28 27 25 25 24 24
25 23 22 21 21 21 23 25 25 28 31 30 30 31 32 29 26 26 27 26 25 22 19 18 18 18 16 14 12 13 15 16 17 17 18 18 19 19 18 21 23 26 28 29 29 28 27 26 24 23 24 24
27 25 24 21 21 24 28 29 26 28 30 29 31 32 34 31 26 25 27 28 27 24 20 18 18 18 15 13 11 13 16 18 20 20 19 18 19 18 18 19 20 23 25 26 27 27 26 25 24 22 22 22
28 27 26 23 23 25 29 32 31 30 29 29 30 30 33 32 26 26 28 28 26 24 20 18 18 17 15 13 12 13 16 19 23 25 24 22 21 20 20 19 20 21 22 24 26 27 26 25 25 23 21 21
27 27 27 26 26 26 26 30 34 34 32 29 30 29 29 30 28 29 30 28 25 23 22 21 20 18 15 14 13 13 15 19 23 26 29 28 25 23 22 22 22 23 22 22 23 24 25 26 25 24 22 21
25 27 27 26 26 28 26 28 33 40 42 35 28 29 30 33 31 30 29 26 25 27 28 26 23 19 17 15 14 14 15 17 19 21 25 28 30 29 28 26 25 25 25 24 23 23 23 23 24 24 23 22
23 25 26 25 25 27 28 28 29 35 45 40 31 31 34 34 31 30 28 26 29 32 32 28 24 20 19 17 16 15 15 15 15 15 17 20 24 28 31 32 32 30 29 27 26 25 25 25 24 24 23 23
23 24 24 24 24 25 28 30 29 30 36 38 35 33 34 32 30 29 29 28 31 34 31 25 24 21 19 18 17 16 16 16 14 14 15 15 17 20 24 29 32 35 35 34 32 31 30 30 30 28 27 26
24 24 23 23 23 24 26 29 30 31 32 34 35 35 35 34 31 30 31 32 32 32 29 24 23 22 21 20 19 18 18 19 17 15 16 17 17 17 19 21 24 28 32 36 38 39 38 37 36 35 33 33
25 24 23 23 24 25 26 27 29 30 30 32 34 36 37 36 34 33 33 34 31 27 23 20 20 20 20 20 20 20 20 21 20 19 19 20 20 20 20 19 20 21 23 27 31 36 40 42 42 40 39 38
27 26 25 23 25 28 28 27 28 29 29 30 32 35 37 37 37 36 34 34 32 27 21 19 19 18 18 19 20 21 21 23 23 22 22 22 23 22 22 21 21 21 20 21 23 25 30 35 39 41 42 43
29 28 27 25 25 29 31 29 27 28 30 30 31 32 32 34 37 36 34 35 35 31 25 22 21 20 19 20 21 21 22 24 26 26 25 25 25 24 24 24 24 23 22 22 21 22 22 24 28 32 35 39
32 30 28 27 28 30 30 31 30 28 29 31 31 31 29 30 35 36 35 37 37 34 30 27 23 22 22 22 22 23 23 25 27 28 28 28 28 28 28 28 28 27 27 26 25 24 23 23 23 24 26 29
35 33 31 30 31 31 28 30 33 31 30 30 31 33 32 30 33 33 36 40 38 36 37 33 27 25 25 24 25 26 26 27 28 29 30 30 30 30 30 29 29 28 28 29 29 28 27 26 25 24 24 25
35 34 33 32 31 32 30 28 30 30 31 30 30 32 33 34 34 32 37 39 38 39 39 36 32 29 28 27 28 28 29 30 29 30 30 31 31 31 31 29 28 27 28 28 29 30 30 29 29 28 26 26
33 32 32 32 32 33 34 33 29 28 33 34 31 30 32 35 35 36 38 37 38 42 40 40 40 36 32 31 31 30 31 33 32 32 32 32 33 33 32 31 30 29 29 30 30 31 31 31 31 31 30 29
30 30 30 30 31 33 34 35 33 31 33 35 34 32 30 32 35 37 38 37 41 43 40 44 44 38 35 35 36 36 35 35 34 34 35 35 34 34 35 34 33 33 33 33 33 32 32 33 33 32 32 31
27 28 28 28 29 32 32 32 33 33 33 32 34 37 34 32 33 36 37 37 41 40 39 46 47 41 39 38 41 41 38 37 36 35 36 36 37 38 39 39 38 37 36 36 35 34 34 34 34 34 34 34
24 27 28 28 27 30 32 32 33 35 34 30 30 35 37 35 35 37 37 38 39 39 39 45 47 41 34 32 35 35 35 36 36 37 37 37 37 38 40 42 42 40 39 39 38 37 35 34 34 34 35 35
19 23 27 30 30 28 28 32 36 37 36 34 31 30 31 34 36 37 38 38 38 39 39 42 42 36 30 29 29 29 30 32 32 34 36 39 38 37 37 38 40 39 39 40 39 37 35 34 34 34 35 36
14 17 21 27 32 33 31 31 37 39 38 39 37 33 29 30 34 36 37 39 39 40 41 42 42 40 38 35 32 30 30 31 32 31 33 37 40 39 38 36 36 37 37 38 38 37 36 36 35 35 36 35
13 13 15 18 23 29 33 33 34 38 40 40 40 38 34 32 35 37 36 36 38 40 41 42 44 45 44 43 40 35 32 33 35 34 33 34 38 41 41 40 38 37 37 38 38 38 39 38 38 37 35 33
16 15 15 15 17 20 25 29 31 35 38 38 37 39 39 36 36 37 35 32 32 36 38 40 43 44 45 46 47 45 42 40 40 39 37 35 37 40 41 42 42 40 39 38 39 39 39 39 39 37 34 30
21 20 19 19 19 19 19 22 24 28 32 33 32 32 35 37 37 37 37 35 32 33 35 35 36 39 42 44 46 48 47 46 47 46 42 38 38 38 39 42 43 42 41 40 40 39 39 39 39 38 34 32
27 25 25 24 23 23 22 22 22 23 26 28 28 27 28 31 33 35 37 40 40 39 38 36 34 34 36 37 40 42 44 47 50 52 49 45 43 41 41 43 44 42 42 43 43 41 40 40 41 41 38 36

ECMWFFLT2_700_spd_144.txt.gz
Wind_Speed
26 27 27 25 23 25 28 28 27 29 28 27 29 30 32 37 38 36 34 31 29 23 18 16 17 14 15 20 22 20 19 16 13 14 17 19 20 20 20 21 24 25 26 27 27 26 25 26 24 22 23 24
26 27 28 27 24 24 27 28 27 29 29 31 38 37 35 41 40 36 33 30 27 23 19 20 20 15 15 18 21 24 25 22 19 19 20 21 21 20 19 21 23 24 25 26 27 27 27 27 25 23 24 26
27 27 28 29 28 25 24 22 19 20 27 30 37 36 33 37 36 32 28 24 23 23 21 19 18 18 18 20 21 24 27 28 28 25 21 19 20 21 22 23 24 25 26 26 27 28 27 26 24 24 26 27
27 27 27 28 29 27 23 19 12 12 21 21 24 27 27 29 28 25 22 21 20 20 21 19 19 20 20 22 23 24 24 25 25 22 18 15 16 20 22 24 25 26 26 26 26 26 25 22 22 23 27 28
27 26 25 26 28 28 23 19 15 15 18 17 19 21 22 25 23 17 19 21 22 21 20 21 21 21 20 21 21 21 20 19 19 18 17 14 15 17 20 23 25 27 27 26 24 23 22 21 21 23 25 26
25 24 22 23 25 26 24 21 18 19 22 22 22 23 24 24 22 24 26 23 23 23 23 24 22 21 20 18 18 18 19 18 18 18 17 15 16 17 19 22 24 26 27 27 24 23 22 21 21 23 25 26
24 23 21 20 22 23 23 21 20 21 21 22 23 25 26 24 25 28 27 25 25 24 25 25 23 20 18 17 18 19 20 19 19 18 18 17 17 17 18 20 21 23 25 27 27 26 24 23 22 22 24 25
25 24 21 20 19 20 23 22 23 24 22 23 26 27 27 26 28 26 26 29 26 22 23 24 24 21 19 19 19 20 20 20 19 18 17 16 16 16 15 16 17 18 20 23 26 28 28 28 28 27 25 23
25 25 23 21 19 19 21 21 23 28 27 27 28 29 29 29 29 27 28 27 23 22 22 23 26 24 20 18 17 18 18 18 17 14 12 12 13 14 14 14 15 15 15 17 20 23 26 28 30 32 31 27
25 25 23 22 20 19 21 22 24 27 27 28 30 30 31 30 30 30 28 24 23 24 22 23 24 22 18 17 17 17 18 17 15 12 11 12 12 12 12 13 14 15 15 16 17 19 21 22 24 27 30 31
25 25 24 22 21 20 22 24 26 27 26 29 31 31 31 31 33 32 27 23 24 24 23 22 20 18 18 20 21 20 18 17 16 16 17 17 16 14 13 13 14 15 15 16 18 18 18 18 20 22 23 25
26 25 25 24 22 21 21 24 27 29 30 29 28 31 31 32 37 36 27 24 24 22 23 23 19 20 22 23 22 22 19 17 18 19 21 22 21 20 18 16 16 17 17 17 17 18 17 17 18 20 21 21
28 25 25 26 24 22 22 23 26 29 31 30 29 31 31 30 36 36 28 25 25 23 24 24 22 23 25 24 22 24 20 18 18 19 21 23 24 25 24 22 20 20 20 20 20 19 19 18 17 17 19 20
32 27 25 26 25 23 21 23 26 28 30 32 32 31 29 27 33 35 30 28 28 25 24 24 25 26 27 25 21 23 21 19 19 18 18 19 21 23 25 26 26 25 24 23 23 23 22 21 20 19 18 18
34 31 27 26 26 24 23 23 26 29 29 30 31 31 27 25 30 32 31 33 31 29 27 26 27 28 28 25 21 23 21 20 20 19 18 16 17 18 20 23 26 29 29 28 27 27 26 25 24 23 22 22
34 33 29 27 27 25 24 24 25 29 30 29 29 30 28 26 30 31 32 34 32 32 30 29 30 28 27 25 23 23 21 22 22 21 20 18 17 18 18 20 22 24 27 29 30 30 30 30 30 29 28 27
32 32 31 27 27 27 26 24 24 28 31 32 30 29 28 28 32 32 32 33 33 34 32 31 30 27 25 25 24 23 22 23 24 24 23 22 20 20 20 20 20 21 22 24 25 27 28 30 32 33 34 34
31 31 30 28 27 27 27 25 25 25 27 31 31 29 28 28 32 32 32 33 34 33 33 33 31 27 24 23 23 24 22 22 24 26 25 25 24 23 23 22 22 22 22 22 21 22 23 24 26 29 32 34
31 30 30 29 27 27 27 27 29 29 27 28 30 30 29 29 31 32 32 34 35 33 35 37 34 30 26 23 24 24 23 22 23 26 27 27 27 26 26 26 26 26 26 25 24 24 23 23 23 24 25 26
32 32 31 29 27 26 28 29 31 34 32 28 27 29 31 31 30 32 33 34 34 34 40 40 33 32 30 26 25 24 24 25 24 25 26 28 30 30 30 30 30 30 30 30 30 29 29 28 28 27 26 25
31 31 31 30 28 25 26 30 32 36 37 33 27 27 31 34 34 32 32 34 36 37 43 43 35 34 36 30 27 26 27 28 28 28 27 28 30 32 34 34 33 33 33 34 34 34 34 33 33 32 31 30
29 30 31 30 28 26 25 26 31 35 38 37 33 29 28 32 35 33 31 33 37 40 44 46 40 39 39 34 31 30 31 32 33 32 30 30 30 31 33 36 37 37 37 38 38 38 38 38 38 37 36 35
26 28 30 30 29 28 26 26 29 32 36 37 37 36 32 30 31 32 32 33 36 39 42 44 44 44 44 39 36 36 35 36 35 33 32 33 32 32 33 36 39 41 41 41 41 41 41 40 40 39 39 38
24 25 27 29 30 28 25 24 26 28 32 35 37 38 36 34 32 31 31 33 37 40 41 42 43 46 47 44 41 42 40 37 35 34 34 35 35 35 35 36 38 41 42 42 41 41 40 40 39 39 39 39
26 25 25 27 29 28 26 26 25 25 27 32 36 37 36 35 35 33 31 33 37 40 41 42 44 45 47 46 46 47 44 41 39 38 37 37 39 39 38 38 38 38 40 41 41 40 40 39 38 38 38 39
29 27 25 24 25 26 26 27 29 29 29 30 33 37 37 35 34 33 31 30 32 37 40 42 44 45 46 47 48 49 47 45 46 45 41 39 41 41 37 37 37 36 37 40 42 41 41 41 40 39 40 41
32 30 28 26 25 25 24 24 25 28 31 31 31 34 38 38 36 33 32 29 26 29 35 39 42 45 47 48 49 49 48 47 49 50 44 40 42 41 35 33 34 34 35 38 41 42 43 43 42 42 42 43
35 34 33 31 29 27 27 26 24 24 26 28 30 31 34 38 40 39 37 34 30 27 27 30 32 36 43 47 49 50 49 49 50 50 47 43 43 41 39 37 35 34 33 35 38 39 40 41 42 43 43 43
36 37 36 35 33 31 31 30 28 26 24 25 26 28 31 34 38 40 40 39 38 35 32 29 27 27 32 38 43 46 48 50 49 46 44 43 42 41 40 40 39 37 35 35 37 38 38 37 38 40 40 41
38 39 39 39 38 37 35 34 33 31 29 27 27 27 29 31 33 35 37 37 37 37 37 37 34 31 29 30 32 34 37 42 44 45 44 42 41 42 43 43 43 41 38 37 37 38 40 39 38 37 36 36
44 43 43 43 43 42 41 40 38 37 36 35 34 33 32 32 33 33 34 34 34 34 35 37 37 37 35 33 32 31 30 31 34 38 43 45 45 46 47 48 49 46 43 41 39 39 40 41 40 39 37 37

ECMWFFLT2_700_spd_150.txt.gz
Wind_Speed
29 29 29 29 29 30 30 30 29 29 29 28 28 29 32 31 29 26 26 26 27 27 29 33 31 31 33 31 26 26 32 29 23 21 21 26 29 26 27 32 35 35 34 31 30 31 33 34 34 35 33 32
27 27 28 28 28 29 29 29 29 29 29 28 28 29 28 24 20 17 20 23 25 29 31 32 32 31 30 28 19 16 30 33 22 18 19 24 27 24 22 25 31 36 37 36 34 32 32 33 35 35 31 30
25 25 27 28 28 28 27 27 26 26 27 27 27 27 20 12 9 5 10 19 22 28 29 27 29 33 33 31 25 19 26 29 23 21 23 25 26 24 23 24 28 33 36 38 38 36 32 32 34 34 31 30
25 26 27 28 29 29 27 25 24 23 24 25 26 25 18 12 10 4 2 10 15 21 24 24 25 28 32 31 29 27 26 24 23 24 27 27 25 27 28 28 29 32 36 38 38 37 35 34 32 31 32 32
28 29 28 28 29 30 28 25 23 22 22 23 25 25 21 18 15 13 13 11 11 15 17 18 18 17 21 24 24 25 23 20 23 25 26 25 22 27 30 29 29 31 34 35 36 37 37 37 34 32 33 34
32 32 31 30 29 29 29 26 24 23 22 22 23 25 24 22 21 22 23 17 14 15 16 15 14 12 14 16 18 21 21 19 23 26 24 23 23 26 28 27 28 31 32 32 34 36 38 39 38 37 37 37
33 34 33 32 30 29 29 27 25 23 23 22 23 25 25 23 20 19 19 17 16 16 17 17 18 18 15 15 16 17 19 19 23 27 25 24 26 28 27 27 26 28 29 29 31 34 36 38 40 40 39 39
34 34 34 33 31 29 29 28 26 24 24 24 23 25 26 24 21 19 19 20 19 18 18 18 19 20 17 17 17 15 16 18 23 28 29 27 29 31 31 30 26 25 25 26 29 32 34 36 38 39 39 40
35 35 34 33 31 29 28 28 27 24 23 25 25 26 26 26 24 21 20 21 21 20 20 20 20 19 19 20 19 17 16 17 23 29 33 31 31 33 33 31 27 26 26 26 27 29 33 35 36 37 37 39
35 35 34 32 30 28 26 27 27 26 24 24 26 27 26 27 28 26 24 23 24 24 22 22 20 19 20 20 20 19 16 15 18 22 27 28 28 30 30 30 29 28 28 28 29 29 30 33 36 36 36 37
35 34 33 32 30 27 25 24 25 27 25 25 26 28 29 30 31 31 30 27 26 26 26 23 21 19 20 21 21 19 17 16 15 15 16 19 21 24 26 28 30 30 29 29 30 30 31 32 33 36 37 37
34 32 31 30 29 28 26 23 22 25 27 27 27 29 31 32 33 33 33 30 28 27 28 27 23 22 22 23 23 20 19 19 18 16 16 17 19 21 24 26 28 29 29 29 29 30 32 32 32 33 36 38
34 32 29 27 26 26 25 24 22 22 26 28 29 29 31 32 33 34 32 31 31 30 31 29 25 25 25 26 26 23 21 21 20 19 18 18 19 21 23 25 25 26 27 27 28 29 30 31 31 31 33 35
35 33 31 28 25 24 24 24 23 21 23 28 30 30 31 33 33 33 32 31 32 32 32 30 28 28 28 28 30 28 24 22 22 22 20 20 20 22 24 25 25 25 26 26 26 26 27 28 29 30 30 32
35 34 33 31 29 26 24 23 23 22 22 25 29 31 32 33 32 31 30 30 31 32 32 30 29 30 31 32 33 31 27 25 25 24 22 21 22 24 26 27 27 27 26 25 25 25 25 26 26 27 28 29
34 34 35 34 33 31 27 24 23 23 22 23 26 30 33 33 33 30 27 27 30 32 32 30 30 31 33 35 35 32 28 27 28 26 24 23 24 26 28 30 30 30 29 27 24 24 24 25 26 26 27 27
35 35 35 35 35 35 33 30 27 25 24 23 24 26 30 34 33 30 26 26 28 31 33 32 30 31 32 34 36 35 30 29 30 28 26 25 26 28 30 32 32 32 32 30 28 26 25 26 27 27 27 28
36 35 35 35 36 36 36 36 33 31 28 26 25 25 26 30 33 33 31 29 28 30 32 34 33 31 31 33 37 37 32 32 32 31 30 27 27 29 31 33 34 35 34 34 33 31 28 28 28 28 28 28
37 37 36 36 36 36 36 37 37 36 34 31 29 27 26 26 29 34 36 33 30 30 31 34 35 34 33 34 38 37 34 35 36 34 33 30 29 31 32 33 34 36 36 37 37 36 34 32 30 29 29 29
36 37 37 37 36 36 36 36 37 37 37 36 34 32 30 28 27 29 35 36 33 31 31 33 35 37 37 37 38 38 36 39 40 38 36 34 33 33 33 34 34 36 37 38 39 40 39 38 36 35 33 32
37 37 37 37 37 36 36 36 36 37 37 37 37 36 34 32 30 29 30 36 38 35 33 32 32 35 39 41 41 41 41 44 43 41 40 39 38 37 37 36 35 35 37 38 38 40 42 43 41 40 39 38
39 38 38 37 37 36 36 36 36 36 37 37 37 37 36 35 34 33 31 32 37 40 39 36 33 32 34 40 44 45 46 47 45 42 43 44 42 40 40 39 37 35 36 38 39 38 40 44 46 45 44 43
40 40 40 40 39 38 37 37 36 36 37 37 38 38 38 37 36 35 35 33 34 38 42 42 40 36 33 35 41 46 48 49 46 42 44 47 47 43 41 41 40 38 37 38 40 40 39 41 45 47 46 46
41 41 42 43 43 42 41 40 40 39 38 38 38 38 38 38 37 36 35 35 34 35 39 43 45 43 39 35 37 42 47 49 46 44 45 49 50 48 45 44 43 42 40 39 40 41 42 41 42 44 45 45
42 42 43 44 45 45 45 45 44 43 41 40 40 39 39 39 39 38 37 36 35 35 37 40 44 46 45 42 38 36 38 44 46 46 48 52 52 51 50 49 47 46 44 42 40 40 43 44 44 44 44 44
44 44 44 45 46 47 47 47 46 45 44 43 42 41 41 41 40 40 39 38 37 36 36 38 41 43 45 45 43 39 35 35 41 44 47 51 52 52 53 51 51 51 49 46 43 41 42 44 46 48 47 47
46 46 45 46 46 47 48 48 47 46 45 44 43 42 41 42 42 42 42 41 40 38 37 38 40 42 43 44 45 46 42 36 35 38 42 47 50 52 54 52 50 51 51 50 46 44 44 44 46 49 51 51
46 47 47 46 46 46 47 47 47 46 45 44 42 41 40 40 40 41 42 42 42 41 40 39 40 42 43 43 43 46 47 45 40 36 36 39 44 48 52 51 49 48 49 51 50 47 46 46 46 48 50 52
46 46 47 47 47 47 47 47 47 45 44 42 41 39 38 37 37 38 39 41 42 42 42 41 41 42 44 45 44 44 45 47 48 44 39 36 37 39 41 43 46 47 46 47 49 50 49 48 49 49 47 47
46 46 46 47 47 47 46 46 47 46 44 41 40 38 37 37 36 36 37 38 40 41 42 42 41 42 43 45 46 46 45 45 47 48 46 42 39 36 34 33 37 42 44 45 47 49 51 51 52 51 48 45
45 45 46 46 46 46 46 45 45 45 44 41 39 37 36 36 35 35 35 35 37 39 40 41 41 41 42 44 46 47 47 46 46 46 47 46 45 43 39 35 33 34 38 42 44 46 47 49 52 53 52 48

ECMWFFLT2_700_spd_156.txt.gz
Wind_Speed
29 29 29 29 29 29 29 30 29 28 27 27 27 26 23 24 27 27 28 29 29 30 31 32 33 33 33 34 34 35 37 39 40 39 40 39 38 35 34 34 29 29 36 41 40 37 37 38 37 36 37 39
28 28 29 29 30 30 30 31 31 30 29 28 28 29 27 25 26 27 28 28 28 28 29 29 30 31 31 33 33 34 35 36 37 37 36 37 36 33 33 34 27 19 19 27 39 40 38 37 36 36 37 38
28 28 29 30 31 32 32 32 33 33 32 31 31 31 31 29 27 27 28 28 28 28 28 28 27 26 27 29 29 31 32 33 34 34 33 33 34 34 35 36 30 22 15 12 23 35 36 36 36 36 37 38
29 30 31 32 33 33 33 34 34 35 35 34 33 33 33 33 30 28 28 28 29 29 28 28 26 25 25 26 25 26 28 29 30 30 30 30 31 33 35 39 35 28 20 8 11 25 28 29 31 33 37 38
30 31 33 34 35 35 35 35 35 35 35 34 34 34 34 34 33 32 30 29 29 30 31 30 29 27 26 26 26 26 25 26 26 26 27 28 31 33 33 37 38 30 27 19 11 21 26 25 25 26 31 35
31 33 34 35 36 37 37 36 36 35 34 33 33 33 33 33 33 33 33 32 30 30 32 32 31 30 28 28 29 28 26 25 25 25 25 25 28 33 35 36 37 32 31 32 23 19 24 24 27 25 25 31
33 34 35 36 36 37 37 36 36 35 33 32 31 31 31 32 32 33 33 34 32 31 32 33 33 32 31 31 30 29 27 26 24 25 25 25 24 26 30 32 35 35 33 36 32 25 25 25 29 28 22 24
33 34 34 35 35 35 34 34 35 34 33 32 31 30 30 30 31 32 33 33 33 33 33 33 33 33 32 32 31 29 28 27 24 24 23 23 24 24 24 23 25 28 31 35 34 31 33 31 30 31 27 23
34 34 34 34 33 33 33 33 32 33 33 33 32 30 29 29 29 31 33 33 33 33 35 35 34 34 31 31 33 32 30 29 26 25 24 22 22 23 24 24 22 22 24 30 33 32 34 34 33 33 32 29
33 34 33 33 33 33 33 32 32 31 31 31 31 31 30 29 28 29 31 33 34 33 35 36 35 34 31 30 32 34 32 30 29 28 27 25 24 23 25 27 29 26 24 26 29 31 32 33 34 35 35 35
33 33 33 34 34 33 33 33 33 32 32 31 31 31 30 29 29 28 29 31 33 34 35 36 36 36 34 32 31 33 34 32 30 29 29 28 27 26 27 28 31 32 30 28 28 29 31 31 33 34 35 35
32 33 33 33 33 34 34 34 34 34 34 33 32 32 31 30 29 29 29 30 32 34 35 36 38 38 37 35 33 33 34 33 31 30 31 30 30 30 30 30 31 33 34 34 33 32 33 34 36 37 37 36
32 32 33 33 34 34 34 35 35 35 35 35 35 34 33 33 31 30 29 30 31 32 34 35 37 39 39 38 36 35 36 36 35 34 34 33 32 33 33 33 33 33 34 34 35 36 36 37 39 40 40 40
32 33 34 34 35 35 35 36 36 36 37 37 37 37 36 36 35 34 32 30 30 31 33 34 36 38 39 39 39 38 38 38 38 37 35 35 35 35 36 36 35 35 34 33 33 34 35 35 35 36 37 38
31 32 33 34 35 35 36 36 36 37 37 38 39 39 39 39 38 38 36 35 32 31 32 33 35 36 38 39 39 40 40 39 40 40 38 36 36 37 38 37 36 37 36 35 34 34 34 34 33 33 33 34
31 32 32 33 34 35 36 36 37 38 38 38 39 40 41 41 41 41 40 40 38 35 33 33 34 35 37 39 40 40 40 40 40 41 41 39 37 38 39 38 36 38 38 38 37 36 35 35 34 33 32 33
31 31 31 32 33 35 36 37 38 39 40 40 40 41 41 42 43 43 43 43 42 41 39 36 34 34 36 37 39 40 40 40 40 41 41 41 40 39 40 40 38 38 39 39 40 40 38 36 35 34 33 32
31 31 32 33 34 35 36 38 39 40 41 42 42 42 43 43 44 44 44 44 44 44 43 41 39 37 36 36 38 40 40 40 40 40 41 42 44 43 41 40 40 41 41 41 42 42 40 37 36 35 34 33
32 33 34 35 36 37 38 39 40 41 42 43 43 44 44 44 45 45 45 45 45 45 45 44 43 41 39 38 38 39 40 41 40 41 41 42 44 48 48 43 40 42 44 44 43 43 42 38 36 37 36 35
33 34 35 36 38 39 40 41 41 42 44 45 45 45 45 45 45 46 46 46 46 46 46 46 45 44 43 41 40 40 40 41 41 42 44 45 44 46 50 49 46 43 42 43 44 45 46 41 39 40 38 35
34 36 37 38 39 41 42 44 44 44 45 46 47 47 48 47 47 47 47 46 46 47 47 47 47 46 45 44 42 42 42 42 42 43 45 49 49 47 46 49 51 50 46 45 46 47 49 46 41 42 40 37
36 37 38 39 40 41 43 44 46 47 47 47 48 48 49 50 50 49 48 48 47 46 46 47 47 47 47 46 45 43 43 43 43 44 45 47 51 52 51 49 50 53 51 48 49 50 50 48 45 43 42 40
36 37 39 40 41 41 42 43 45 47 48 49 49 48 49 50 51 51 50 49 48 48 46 46 47 47 48 47 47 46 44 44 44 44 45 46 48 51 54 54 53 54 52 48 51 53 51 49 47 45 43 42
36 37 38 39 40 41 42 43 44 46 47 49 49 49 48 48 49 50 51 51 50 50 49 48 47 47 47 48 48 48 47 46 45 45 45 47 48 49 50 53 54 56 54 49 50 53 54 52 50 47 44 42
37 38 39 40 41 42 43 44 45 46 47 48 49 50 49 49 49 49 50 51 51 51 50 49 49 48 47 47 48 49 49 48 46 45 45 46 48 50 50 50 52 54 55 53 50 51 52 53 52 50 47 44
37 38 39 40 41 42 43 44 45 46 47 48 49 51 51 50 50 49 49 50 50 51 50 50 49 49 48 48 48 48 49 50 49 46 45 45 46 49 51 51 51 53 53 53 53 52 50 50 52 54 53 49
38 39 40 41 42 43 44 45 45 46 46 47 48 50 52 52 52 51 50 50 50 50 50 50 50 49 49 49 49 49 49 50 50 49 46 44 45 47 49 51 51 52 53 52 53 54 51 48 47 51 55 54
39 41 42 43 43 44 45 46 47 47 47 47 48 49 51 52 52 52 52 51 50 50 50 50 50 50 49 50 50 50 50 50 50 50 48 44 44 45 48 50 50 50 51 52 52 53 53 50 46 46 50 53
41 42 43 44 45 45 46 46 47 48 48 48 49 49 50 51 53 53 53 53 51 51 50 50 50 50 50 50 50 51 51 51 49 49 49 46 44 44 46 49 50 49 48 49 50 51 52 52 49 45 44 49
42 43 44 45 46 46 46 47 47 48 49 49 49 50 50 51 52 53 54 54 53 52 51 50 49 49 50 49 50 50 50 50 48 47 47 47 45 43 44 46 48 48 46 45 45 47 49 51 51 49 44 45
44 44 45 46 47 47 47 48 48 49 49 50 50 50 51 51 52 53 53 54 54 54 52 51 49 49 48 48 49 49 49 48 47 45 44 45 45 43 42 44 46 47 45 42 41 42 44 47 49 50 48 45